<?xml version="1.0" encoding="UTF-8" standalone="no" ?>
<gpx xmlns="http://www.topografix.com/GPX/1/1" xmlns:xsi="http://www.w3.org/2001/XMLSchema-instance" xsi:schemaLocation="http://www.topografix.com/GPX/1/1 http://www.topografix.com/GPX/1/1/gpx.xsd" version="1.1" creator="VisuGPX - https://www.visugpx.com">
  <metadata>
    <name>Saint Germain en Laye</name>
    <desc><![CDATA[Début du sentier des oratoires puis perte des balises...]]></desc>
  </metadata>
  <trk>
    <name><![CDATA[Saint Germain en Laye_1]]></name>
    <trkseg>
      <trkpt lat="48.90502" lon="2.09695">
        <ele>154</ele>
        <time>2016-05-05T08:49:27.000Z</time>
      </trkpt>
      <trkpt lat="48.905" lon="2.09718">
        <ele>113</ele>
        <time>2016-05-05T08:50:00.000Z</time>
      </trkpt>
      <trkpt lat="48.905" lon="2.09718">
        <ele>113</ele>
        <time>2016-05-05T08:50:04.000Z</time>
      </trkpt>
      <trkpt lat="48.90496" lon="2.09733">
        <ele>111</ele>
        <time>2016-05-05T08:50:08.000Z</time>
      </trkpt>
      <trkpt lat="48.905" lon="2.09748">
        <ele>109</ele>
        <time>2016-05-05T08:50:18.000Z</time>
      </trkpt>
      <trkpt lat="48.905" lon="2.09748">
        <ele>109</ele>
        <time>2016-05-05T08:50:20.000Z</time>
      </trkpt>
      <trkpt lat="48.905" lon="2.09748">
        <ele>109</ele>
        <time>2016-05-05T08:50:22.000Z</time>
      </trkpt>
      <trkpt lat="48.90498" lon="2.09764">
        <ele>109</ele>
        <time>2016-05-05T08:50:24.000Z</time>
      </trkpt>
      <trkpt lat="48.90498" lon="2.09764">
        <ele>109</ele>
        <time>2016-05-05T08:50:26.000Z</time>
      </trkpt>
      <trkpt lat="48.90498" lon="2.09764">
        <ele>109</ele>
        <time>2016-05-05T08:50:28.000Z</time>
      </trkpt>
      <trkpt lat="48.90498" lon="2.09764">
        <ele>109</ele>
        <time>2016-05-05T08:50:30.000Z</time>
      </trkpt>
      <trkpt lat="48.90498" lon="2.09764">
        <ele>109</ele>
        <time>2016-05-05T08:50:32.000Z</time>
      </trkpt>
      <trkpt lat="48.90498" lon="2.09764">
        <ele>109</ele>
        <time>2016-05-05T08:50:34.000Z</time>
      </trkpt>
      <trkpt lat="48.90498" lon="2.09764">
        <ele>109</ele>
        <time>2016-05-05T08:50:40.000Z</time>
      </trkpt>
      <trkpt lat="48.90505" lon="2.09853">
        <ele>112</ele>
        <time>2016-05-05T08:52:19.000Z</time>
      </trkpt>
      <trkpt lat="48.90505" lon="2.09853">
        <ele>112</ele>
        <time>2016-05-05T08:52:21.000Z</time>
      </trkpt>
      <trkpt lat="48.90505" lon="2.09853">
        <ele>112</ele>
        <time>2016-05-05T08:52:23.000Z</time>
      </trkpt>
      <trkpt lat="48.90517" lon="2.09946">
        <ele>117</ele>
        <time>2016-05-05T08:53:13.000Z</time>
      </trkpt>
      <trkpt lat="48.90523" lon="2.09994">
        <ele>117</ele>
        <time>2016-05-05T08:53:15.000Z</time>
      </trkpt>
      <trkpt lat="48.90526" lon="2.10021">
        <ele>117</ele>
        <time>2016-05-05T08:53:17.000Z</time>
      </trkpt>
      <trkpt lat="48.90527" lon="2.10037">
        <ele>117</ele>
        <time>2016-05-05T08:53:19.000Z</time>
      </trkpt>
      <trkpt lat="48.90527" lon="2.10037">
        <ele>117</ele>
        <time>2016-05-05T08:53:21.000Z</time>
      </trkpt>
      <trkpt lat="48.90527" lon="2.10037">
        <ele>117</ele>
        <time>2016-05-05T08:53:35.000Z</time>
      </trkpt>
      <trkpt lat="48.90527" lon="2.10037">
        <ele>117</ele>
        <time>2016-05-05T08:53:37.000Z</time>
      </trkpt>
      <trkpt lat="48.90527" lon="2.10096">
        <ele>116</ele>
        <time>2016-05-05T08:54:16.000Z</time>
      </trkpt>
      <trkpt lat="48.90526" lon="2.10138">
        <ele>116</ele>
        <time>2016-05-05T08:54:29.000Z</time>
      </trkpt>
      <trkpt lat="48.90527" lon="2.1016">
        <ele>116</ele>
        <time>2016-05-05T08:54:31.000Z</time>
      </trkpt>
      <trkpt lat="48.90527" lon="2.1016">
        <ele>116</ele>
        <time>2016-05-05T08:54:36.000Z</time>
      </trkpt>
      <trkpt lat="48.90532" lon="2.10188">
        <ele>116</ele>
        <time>2016-05-05T08:55:32.000Z</time>
      </trkpt>
      <trkpt lat="48.90532" lon="2.10188">
        <ele>116</ele>
        <time>2016-05-05T08:55:35.000Z</time>
      </trkpt>
      <trkpt lat="48.90532" lon="2.10188">
        <ele>116</ele>
        <time>2016-05-05T08:55:37.000Z</time>
      </trkpt>
      <trkpt lat="48.90539" lon="2.10196">
        <ele>116</ele>
        <time>2016-05-05T08:55:45.000Z</time>
      </trkpt>
      <trkpt lat="48.90544" lon="2.10199">
        <ele>116</ele>
        <time>2016-05-05T08:55:47.000Z</time>
      </trkpt>
      <trkpt lat="48.90544" lon="2.10199">
        <ele>116</ele>
        <time>2016-05-05T08:55:57.000Z</time>
      </trkpt>
      <trkpt lat="48.9056" lon="2.10198">
        <ele>116</ele>
        <time>2016-05-05T08:56:15.000Z</time>
      </trkpt>
      <trkpt lat="48.90569" lon="2.10198">
        <ele>116</ele>
        <time>2016-05-05T08:56:17.000Z</time>
      </trkpt>
      <trkpt lat="48.90574" lon="2.10198">
        <ele>116</ele>
        <time>2016-05-05T08:56:19.000Z</time>
      </trkpt>
      <trkpt lat="48.90574" lon="2.10198">
        <ele>116</ele>
        <time>2016-05-05T08:56:21.000Z</time>
      </trkpt>
      <trkpt lat="48.90579" lon="2.10201">
        <ele>116</ele>
        <time>2016-05-05T08:56:25.000Z</time>
      </trkpt>
      <trkpt lat="48.90586" lon="2.10204">
        <ele>116</ele>
        <time>2016-05-05T08:56:27.000Z</time>
      </trkpt>
      <trkpt lat="48.90586" lon="2.10204">
        <ele>116</ele>
        <time>2016-05-05T08:56:31.000Z</time>
      </trkpt>
      <trkpt lat="48.90586" lon="2.10204">
        <ele>116</ele>
        <time>2016-05-05T08:56:52.000Z</time>
      </trkpt>
      <trkpt lat="48.90609" lon="2.10236">
        <ele>116</ele>
        <time>2016-05-05T08:57:13.000Z</time>
      </trkpt>
      <trkpt lat="48.90622" lon="2.10253">
        <ele>116</ele>
        <time>2016-05-05T08:57:16.000Z</time>
      </trkpt>
      <trkpt lat="48.90629" lon="2.10263">
        <ele>116</ele>
        <time>2016-05-05T08:57:18.000Z</time>
      </trkpt>
      <trkpt lat="48.90632" lon="2.10269">
        <ele>116</ele>
        <time>2016-05-05T08:57:20.000Z</time>
      </trkpt>
      <trkpt lat="48.90635" lon="2.10273">
        <ele>116</ele>
        <time>2016-05-05T08:57:22.000Z</time>
      </trkpt>
      <trkpt lat="48.90635" lon="2.10273">
        <ele>116</ele>
        <time>2016-05-05T08:57:24.000Z</time>
      </trkpt>
      <trkpt lat="48.90639" lon="2.10279">
        <ele>116</ele>
        <time>2016-05-05T08:57:26.000Z</time>
      </trkpt>
      <trkpt lat="48.90639" lon="2.10279">
        <ele>116</ele>
        <time>2016-05-05T08:57:28.000Z</time>
      </trkpt>
      <trkpt lat="48.90639" lon="2.10279">
        <ele>116</ele>
        <time>2016-05-05T08:57:30.000Z</time>
      </trkpt>
      <trkpt lat="48.90639" lon="2.10279">
        <ele>116</ele>
        <time>2016-05-05T08:57:44.000Z</time>
      </trkpt>
      <trkpt lat="48.90665" lon="2.10193">
        <ele>120</ele>
        <time>2016-05-05T08:58:20.000Z</time>
      </trkpt>
      <trkpt lat="48.90665" lon="2.10193">
        <ele>120</ele>
        <time>2016-05-05T08:58:22.000Z</time>
      </trkpt>
      <trkpt lat="48.90665" lon="2.10193">
        <ele>120</ele>
        <time>2016-05-05T08:58:24.000Z</time>
      </trkpt>
      <trkpt lat="48.90668" lon="2.1018">
        <ele>120</ele>
        <time>2016-05-05T08:58:26.000Z</time>
      </trkpt>
      <trkpt lat="48.90673" lon="2.10174">
        <ele>120</ele>
        <time>2016-05-05T08:58:33.000Z</time>
      </trkpt>
      <trkpt lat="48.90675" lon="2.1017">
        <ele>120</ele>
        <time>2016-05-05T08:58:35.000Z</time>
      </trkpt>
      <trkpt lat="48.9068" lon="2.10164">
        <ele>120</ele>
        <time>2016-05-05T08:58:41.000Z</time>
      </trkpt>
      <trkpt lat="48.90683" lon="2.10158">
        <ele>120</ele>
        <time>2016-05-05T08:58:45.000Z</time>
      </trkpt>
      <trkpt lat="48.90685" lon="2.10155">
        <ele>120</ele>
        <time>2016-05-05T08:58:47.000Z</time>
      </trkpt>
      <trkpt lat="48.90685" lon="2.10155">
        <ele>120</ele>
        <time>2016-05-05T08:58:49.000Z</time>
      </trkpt>
      <trkpt lat="48.90685" lon="2.10155">
        <ele>120</ele>
        <time>2016-05-05T08:58:51.000Z</time>
      </trkpt>
      <trkpt lat="48.90688" lon="2.10149">
        <ele>120</ele>
        <time>2016-05-05T08:58:53.000Z</time>
      </trkpt>
      <trkpt lat="48.90691" lon="2.10143">
        <ele>120</ele>
        <time>2016-05-05T08:58:56.000Z</time>
      </trkpt>
      <trkpt lat="48.90694" lon="2.10138">
        <ele>120</ele>
        <time>2016-05-05T08:59:00.000Z</time>
      </trkpt>
      <trkpt lat="48.90697" lon="2.10133">
        <ele>120</ele>
        <time>2016-05-05T08:59:04.000Z</time>
      </trkpt>
      <trkpt lat="48.90699" lon="2.10129">
        <ele>120</ele>
        <time>2016-05-05T08:59:08.000Z</time>
      </trkpt>
      <trkpt lat="48.90699" lon="2.10129">
        <ele>120</ele>
        <time>2016-05-05T08:59:10.000Z</time>
      </trkpt>
      <trkpt lat="48.90699" lon="2.10129">
        <ele>120</ele>
        <time>2016-05-05T08:59:12.000Z</time>
      </trkpt>
      <trkpt lat="48.90699" lon="2.10129">
        <ele>120</ele>
        <time>2016-05-05T08:59:14.000Z</time>
      </trkpt>
      <trkpt lat="48.90699" lon="2.10129">
        <ele>120</ele>
        <time>2016-05-05T08:59:17.000Z</time>
      </trkpt>
      <trkpt lat="48.90699" lon="2.10129">
        <ele>120</ele>
        <time>2016-05-05T08:59:19.000Z</time>
      </trkpt>
      <trkpt lat="48.90699" lon="2.10129">
        <ele>120</ele>
        <time>2016-05-05T08:59:21.000Z</time>
      </trkpt>
      <trkpt lat="48.90699" lon="2.10129">
        <ele>120</ele>
        <time>2016-05-05T08:59:23.000Z</time>
      </trkpt>
      <trkpt lat="48.90699" lon="2.10129">
        <ele>120</ele>
        <time>2016-05-05T08:59:26.000Z</time>
      </trkpt>
      <trkpt lat="48.90699" lon="2.10129">
        <ele>120</ele>
        <time>2016-05-05T08:59:33.000Z</time>
      </trkpt>
      <trkpt lat="48.90699" lon="2.10129">
        <ele>120</ele>
        <time>2016-05-05T08:59:35.000Z</time>
      </trkpt>
      <trkpt lat="48.90699" lon="2.10129">
        <ele>120</ele>
        <time>2016-05-05T08:59:37.000Z</time>
      </trkpt>
      <trkpt lat="48.90699" lon="2.10129">
        <ele>120</ele>
        <time>2016-05-05T08:59:39.000Z</time>
      </trkpt>
      <trkpt lat="48.90699" lon="2.10129">
        <ele>120</ele>
        <time>2016-05-05T08:59:41.000Z</time>
      </trkpt>
      <trkpt lat="48.90699" lon="2.10129">
        <ele>120</ele>
        <time>2016-05-05T08:59:45.000Z</time>
      </trkpt>
      <trkpt lat="48.90699" lon="2.10129">
        <ele>120</ele>
        <time>2016-05-05T08:59:47.000Z</time>
      </trkpt>
      <trkpt lat="48.90699" lon="2.10129">
        <ele>120</ele>
        <time>2016-05-05T08:59:55.000Z</time>
      </trkpt>
      <trkpt lat="48.90699" lon="2.10129">
        <ele>120</ele>
        <time>2016-05-05T08:59:57.000Z</time>
      </trkpt>
      <trkpt lat="48.90704" lon="2.10116">
        <ele>120</ele>
        <time>2016-05-05T09:00:31.000Z</time>
      </trkpt>
      <trkpt lat="48.90708" lon="2.10108">
        <ele>120</ele>
        <time>2016-05-05T09:00:33.000Z</time>
      </trkpt>
      <trkpt lat="48.9071" lon="2.10102">
        <ele>120</ele>
        <time>2016-05-05T09:00:35.000Z</time>
      </trkpt>
      <trkpt lat="48.9071" lon="2.10102">
        <ele>120</ele>
        <time>2016-05-05T09:00:38.000Z</time>
      </trkpt>
      <trkpt lat="48.90712" lon="2.10094">
        <ele>120</ele>
        <time>2016-05-05T09:00:40.000Z</time>
      </trkpt>
      <trkpt lat="48.90714" lon="2.10087">
        <ele>120</ele>
        <time>2016-05-05T09:00:42.000Z</time>
      </trkpt>
      <trkpt lat="48.90717" lon="2.1008">
        <ele>120</ele>
        <time>2016-05-05T09:00:44.000Z</time>
      </trkpt>
      <trkpt lat="48.90721" lon="2.1007">
        <ele>120</ele>
        <time>2016-05-05T09:00:46.000Z</time>
      </trkpt>
      <trkpt lat="48.90723" lon="2.10063">
        <ele>120</ele>
        <time>2016-05-05T09:00:48.000Z</time>
      </trkpt>
      <trkpt lat="48.90728" lon="2.10048">
        <ele>120</ele>
        <time>2016-05-05T09:00:50.000Z</time>
      </trkpt>
      <trkpt lat="48.90732" lon="2.10042">
        <ele>120</ele>
        <time>2016-05-05T09:00:54.000Z</time>
      </trkpt>
      <trkpt lat="48.90736" lon="2.10029">
        <ele>116</ele>
        <time>2016-05-05T09:01:08.000Z</time>
      </trkpt>
      <trkpt lat="48.90736" lon="2.10029">
        <ele>116</ele>
        <time>2016-05-05T09:01:10.000Z</time>
      </trkpt>
      <trkpt lat="48.90736" lon="2.10029">
        <ele>116</ele>
        <time>2016-05-05T09:01:12.000Z</time>
      </trkpt>
      <trkpt lat="48.90736" lon="2.10029">
        <ele>116</ele>
        <time>2016-05-05T09:01:14.000Z</time>
      </trkpt>
      <trkpt lat="48.90736" lon="2.10029">
        <ele>116</ele>
        <time>2016-05-05T09:01:16.000Z</time>
      </trkpt>
      <trkpt lat="48.90762" lon="2.09982">
        <ele>120</ele>
        <time>2016-05-05T09:01:46.000Z</time>
      </trkpt>
      <trkpt lat="48.90762" lon="2.09982">
        <ele>120</ele>
        <time>2016-05-05T09:01:48.000Z</time>
      </trkpt>
      <trkpt lat="48.90762" lon="2.09982">
        <ele>120</ele>
        <time>2016-05-05T09:01:50.000Z</time>
      </trkpt>
      <trkpt lat="48.90762" lon="2.09982">
        <ele>120</ele>
        <time>2016-05-05T09:01:52.000Z</time>
      </trkpt>
      <trkpt lat="48.90767" lon="2.0997">
        <ele>120</ele>
        <time>2016-05-05T09:01:54.000Z</time>
      </trkpt>
      <trkpt lat="48.90767" lon="2.0997">
        <ele>120</ele>
        <time>2016-05-05T09:01:56.000Z</time>
      </trkpt>
      <trkpt lat="48.9077" lon="2.09964">
        <ele>120</ele>
        <time>2016-05-05T09:02:02.000Z</time>
      </trkpt>
      <trkpt lat="48.90774" lon="2.09958">
        <ele>120</ele>
        <time>2016-05-05T09:02:06.000Z</time>
      </trkpt>
      <trkpt lat="48.90774" lon="2.09958">
        <ele>120</ele>
        <time>2016-05-05T09:02:08.000Z</time>
      </trkpt>
      <trkpt lat="48.90774" lon="2.09958">
        <ele>120</ele>
        <time>2016-05-05T09:02:10.000Z</time>
      </trkpt>
      <trkpt lat="48.90774" lon="2.09958">
        <ele>120</ele>
        <time>2016-05-05T09:02:12.000Z</time>
      </trkpt>
      <trkpt lat="48.90774" lon="2.09958">
        <ele>120</ele>
        <time>2016-05-05T09:02:14.000Z</time>
      </trkpt>
      <trkpt lat="48.90774" lon="2.09958">
        <ele>120</ele>
        <time>2016-05-05T09:02:28.000Z</time>
      </trkpt>
      <trkpt lat="48.90783" lon="2.09936">
        <ele>120</ele>
        <time>2016-05-05T09:02:32.000Z</time>
      </trkpt>
      <trkpt lat="48.90789" lon="2.09924">
        <ele>120</ele>
        <time>2016-05-05T09:02:34.000Z</time>
      </trkpt>
      <trkpt lat="48.90792" lon="2.09916">
        <ele>120</ele>
        <time>2016-05-05T09:02:36.000Z</time>
      </trkpt>
      <trkpt lat="48.90792" lon="2.09916">
        <ele>120</ele>
        <time>2016-05-05T09:02:38.000Z</time>
      </trkpt>
      <trkpt lat="48.90792" lon="2.09916">
        <ele>120</ele>
        <time>2016-05-05T09:02:40.000Z</time>
      </trkpt>
      <trkpt lat="48.90792" lon="2.09916">
        <ele>120</ele>
        <time>2016-05-05T09:02:42.000Z</time>
      </trkpt>
      <trkpt lat="48.90792" lon="2.09916">
        <ele>120</ele>
        <time>2016-05-05T09:02:44.000Z</time>
      </trkpt>
      <trkpt lat="48.90792" lon="2.09916">
        <ele>120</ele>
        <time>2016-05-05T09:02:58.000Z</time>
      </trkpt>
      <trkpt lat="48.90799" lon="2.09889">
        <ele>120</ele>
        <time>2016-05-05T09:03:02.000Z</time>
      </trkpt>
      <trkpt lat="48.90804" lon="2.09873">
        <ele>120</ele>
        <time>2016-05-05T09:03:05.000Z</time>
      </trkpt>
      <trkpt lat="48.90806" lon="2.09866">
        <ele>120</ele>
        <time>2016-05-05T09:03:07.000Z</time>
      </trkpt>
      <trkpt lat="48.90806" lon="2.09866">
        <ele>120</ele>
        <time>2016-05-05T09:03:09.000Z</time>
      </trkpt>
      <trkpt lat="48.90806" lon="2.09866">
        <ele>120</ele>
        <time>2016-05-05T09:03:11.000Z</time>
      </trkpt>
      <trkpt lat="48.90808" lon="2.09859">
        <ele>120</ele>
        <time>2016-05-05T09:03:13.000Z</time>
      </trkpt>
      <trkpt lat="48.90808" lon="2.09859">
        <ele>120</ele>
        <time>2016-05-05T09:03:15.000Z</time>
      </trkpt>
      <trkpt lat="48.90808" lon="2.09859">
        <ele>120</ele>
        <time>2016-05-05T09:03:17.000Z</time>
      </trkpt>
      <trkpt lat="48.90813" lon="2.09847">
        <ele>116</ele>
        <time>2016-05-05T09:03:27.000Z</time>
      </trkpt>
      <trkpt lat="48.90816" lon="2.09839">
        <ele>116</ele>
        <time>2016-05-05T09:03:29.000Z</time>
      </trkpt>
      <trkpt lat="48.90819" lon="2.09831">
        <ele>116</ele>
        <time>2016-05-05T09:03:34.000Z</time>
      </trkpt>
      <trkpt lat="48.90821" lon="2.09825">
        <ele>116</ele>
        <time>2016-05-05T09:03:37.000Z</time>
      </trkpt>
      <trkpt lat="48.90825" lon="2.09813">
        <ele>118</ele>
        <time>2016-05-05T09:03:46.000Z</time>
      </trkpt>
      <trkpt lat="48.90833" lon="2.09794">
        <ele>117</ele>
        <time>2016-05-05T09:03:50.000Z</time>
      </trkpt>
      <trkpt lat="48.90833" lon="2.09794">
        <ele>117</ele>
        <time>2016-05-05T09:03:52.000Z</time>
      </trkpt>
      <trkpt lat="48.90833" lon="2.09794">
        <ele>117</ele>
        <time>2016-05-05T09:03:54.000Z</time>
      </trkpt>
      <trkpt lat="48.90833" lon="2.09794">
        <ele>117</ele>
        <time>2016-05-05T09:03:56.000Z</time>
      </trkpt>
      <trkpt lat="48.90833" lon="2.09794">
        <ele>117</ele>
        <time>2016-05-05T09:03:58.000Z</time>
      </trkpt>
      <trkpt lat="48.90833" lon="2.09794">
        <ele>117</ele>
        <time>2016-05-05T09:04:00.000Z</time>
      </trkpt>
      <trkpt lat="48.90833" lon="2.09794">
        <ele>117</ele>
        <time>2016-05-05T09:04:06.000Z</time>
      </trkpt>
      <trkpt lat="48.90811" lon="2.09856">
        <ele>112</ele>
        <time>2016-05-05T09:05:07.000Z</time>
      </trkpt>
      <trkpt lat="48.90811" lon="2.09856">
        <ele>112</ele>
        <time>2016-05-05T09:05:09.000Z</time>
      </trkpt>
      <trkpt lat="48.90811" lon="2.09856">
        <ele>112</ele>
        <time>2016-05-05T09:05:11.000Z</time>
      </trkpt>
      <trkpt lat="48.90811" lon="2.09856">
        <ele>112</ele>
        <time>2016-05-05T09:05:13.000Z</time>
      </trkpt>
      <trkpt lat="48.90805" lon="2.09869">
        <ele>111</ele>
        <time>2016-05-05T09:05:28.000Z</time>
      </trkpt>
      <trkpt lat="48.90802" lon="2.09878">
        <ele>111</ele>
        <time>2016-05-05T09:05:30.000Z</time>
      </trkpt>
      <trkpt lat="48.90799" lon="2.09886">
        <ele>111</ele>
        <time>2016-05-05T09:05:32.000Z</time>
      </trkpt>
      <trkpt lat="48.90797" lon="2.09894">
        <ele>110</ele>
        <time>2016-05-05T09:05:36.000Z</time>
      </trkpt>
      <trkpt lat="48.90797" lon="2.09894">
        <ele>110</ele>
        <time>2016-05-05T09:05:38.000Z</time>
      </trkpt>
      <trkpt lat="48.90797" lon="2.09894">
        <ele>110</ele>
        <time>2016-05-05T09:05:40.000Z</time>
      </trkpt>
      <trkpt lat="48.90797" lon="2.09894">
        <ele>110</ele>
        <time>2016-05-05T09:05:42.000Z</time>
      </trkpt>
      <trkpt lat="48.90796" lon="2.09904">
        <ele>109</ele>
        <time>2016-05-05T09:05:46.000Z</time>
      </trkpt>
      <trkpt lat="48.90794" lon="2.09912">
        <ele>109</ele>
        <time>2016-05-05T09:05:50.000Z</time>
      </trkpt>
      <trkpt lat="48.90794" lon="2.09912">
        <ele>109</ele>
        <time>2016-05-05T09:05:52.000Z</time>
      </trkpt>
      <trkpt lat="48.90794" lon="2.0992">
        <ele>109</ele>
        <time>2016-05-05T09:05:54.000Z</time>
      </trkpt>
      <trkpt lat="48.90794" lon="2.0992">
        <ele>109</ele>
        <time>2016-05-05T09:05:56.000Z</time>
      </trkpt>
      <trkpt lat="48.90794" lon="2.0992">
        <ele>109</ele>
        <time>2016-05-05T09:05:58.000Z</time>
      </trkpt>
      <trkpt lat="48.90794" lon="2.0992">
        <ele>109</ele>
        <time>2016-05-05T09:06:08.000Z</time>
      </trkpt>
      <trkpt lat="48.90794" lon="2.0992">
        <ele>109</ele>
        <time>2016-05-05T09:06:15.000Z</time>
      </trkpt>
      <trkpt lat="48.90817" lon="2.09948">
        <ele>116</ele>
        <time>2016-05-05T09:06:48.000Z</time>
      </trkpt>
      <trkpt lat="48.90829" lon="2.09963">
        <ele>116</ele>
        <time>2016-05-05T09:06:50.000Z</time>
      </trkpt>
      <trkpt lat="48.90835" lon="2.0997">
        <ele>117</ele>
        <time>2016-05-05T09:06:52.000Z</time>
      </trkpt>
      <trkpt lat="48.90835" lon="2.0997">
        <ele>117</ele>
        <time>2016-05-05T09:06:54.000Z</time>
      </trkpt>
      <trkpt lat="48.90835" lon="2.0997">
        <ele>117</ele>
        <time>2016-05-05T09:06:57.000Z</time>
      </trkpt>
      <trkpt lat="48.90835" lon="2.0997">
        <ele>117</ele>
        <time>2016-05-05T09:07:01.000Z</time>
      </trkpt>
      <trkpt lat="48.90858" lon="2.09996">
        <ele>119</ele>
        <time>2016-05-05T09:07:43.000Z</time>
      </trkpt>
      <trkpt lat="48.90872" lon="2.10012">
        <ele>119</ele>
        <time>2016-05-05T09:07:45.000Z</time>
      </trkpt>
      <trkpt lat="48.90872" lon="2.10012">
        <ele>119</ele>
        <time>2016-05-05T09:07:47.000Z</time>
      </trkpt>
      <trkpt lat="48.90872" lon="2.10012">
        <ele>119</ele>
        <time>2016-05-05T09:07:52.000Z</time>
      </trkpt>
      <trkpt lat="48.90872" lon="2.10012">
        <ele>119</ele>
        <time>2016-05-05T09:07:54.000Z</time>
      </trkpt>
      <trkpt lat="48.9089" lon="2.10024">
        <ele>119</ele>
        <time>2016-05-05T09:08:10.000Z</time>
      </trkpt>
      <trkpt lat="48.9089" lon="2.10024">
        <ele>119</ele>
        <time>2016-05-05T09:08:12.000Z</time>
      </trkpt>
      <trkpt lat="48.909" lon="2.10032">
        <ele>118</ele>
        <time>2016-05-05T09:08:15.000Z</time>
      </trkpt>
      <trkpt lat="48.909" lon="2.10032">
        <ele>118</ele>
        <time>2016-05-05T09:08:17.000Z</time>
      </trkpt>
      <trkpt lat="48.909" lon="2.10032">
        <ele>118</ele>
        <time>2016-05-05T09:08:26.000Z</time>
      </trkpt>
      <trkpt lat="48.909" lon="2.10032">
        <ele>118</ele>
        <time>2016-05-05T09:08:28.000Z</time>
      </trkpt>
      <trkpt lat="48.90916" lon="2.10048">
        <ele>117</ele>
        <time>2016-05-05T09:08:42.000Z</time>
      </trkpt>
      <trkpt lat="48.90927" lon="2.10056">
        <ele>117</ele>
        <time>2016-05-05T09:08:44.000Z</time>
      </trkpt>
      <trkpt lat="48.90934" lon="2.1006">
        <ele>117</ele>
        <time>2016-05-05T09:08:46.000Z</time>
      </trkpt>
      <trkpt lat="48.90934" lon="2.1006">
        <ele>117</ele>
        <time>2016-05-05T09:08:51.000Z</time>
      </trkpt>
      <trkpt lat="48.90934" lon="2.1006">
        <ele>117</ele>
        <time>2016-05-05T09:08:57.000Z</time>
      </trkpt>
      <trkpt lat="48.90969" lon="2.10056">
        <ele>115</ele>
        <time>2016-05-05T09:09:29.000Z</time>
      </trkpt>
      <trkpt lat="48.90988" lon="2.10055">
        <ele>115</ele>
        <time>2016-05-05T09:09:31.000Z</time>
      </trkpt>
      <trkpt lat="48.90998" lon="2.10054">
        <ele>116</ele>
        <time>2016-05-05T09:09:33.000Z</time>
      </trkpt>
      <trkpt lat="48.91005" lon="2.10055">
        <ele>116</ele>
        <time>2016-05-05T09:09:35.000Z</time>
      </trkpt>
      <trkpt lat="48.91005" lon="2.10055">
        <ele>116</ele>
        <time>2016-05-05T09:09:37.000Z</time>
      </trkpt>
      <trkpt lat="48.91005" lon="2.10055">
        <ele>116</ele>
        <time>2016-05-05T09:09:39.000Z</time>
      </trkpt>
      <trkpt lat="48.9101" lon="2.10055">
        <ele>117</ele>
        <time>2016-05-05T09:09:41.000Z</time>
      </trkpt>
      <trkpt lat="48.9101" lon="2.10055">
        <ele>117</ele>
        <time>2016-05-05T09:09:43.000Z</time>
      </trkpt>
      <trkpt lat="48.91017" lon="2.10056">
        <ele>118</ele>
        <time>2016-05-05T09:09:47.000Z</time>
      </trkpt>
      <trkpt lat="48.91022" lon="2.10057">
        <ele>118</ele>
        <time>2016-05-05T09:09:49.000Z</time>
      </trkpt>
      <trkpt lat="48.91027" lon="2.10058">
        <ele>118</ele>
        <time>2016-05-05T09:09:51.000Z</time>
      </trkpt>
      <trkpt lat="48.91032" lon="2.10058">
        <ele>118</ele>
        <time>2016-05-05T09:09:53.000Z</time>
      </trkpt>
      <trkpt lat="48.91039" lon="2.10059">
        <ele>118</ele>
        <time>2016-05-05T09:09:57.000Z</time>
      </trkpt>
      <trkpt lat="48.91056" lon="2.10057">
        <ele>119</ele>
        <time>2016-05-05T09:10:06.000Z</time>
      </trkpt>
      <trkpt lat="48.91056" lon="2.10057">
        <ele>119</ele>
        <time>2016-05-05T09:10:09.000Z</time>
      </trkpt>
      <trkpt lat="48.91062" lon="2.10055">
        <ele>118</ele>
        <time>2016-05-05T09:10:13.000Z</time>
      </trkpt>
      <trkpt lat="48.91062" lon="2.10055">
        <ele>118</ele>
        <time>2016-05-05T09:10:16.000Z</time>
      </trkpt>
      <trkpt lat="48.91078" lon="2.10052">
        <ele>117</ele>
        <time>2016-05-05T09:10:27.000Z</time>
      </trkpt>
      <trkpt lat="48.91078" lon="2.10052">
        <ele>117</ele>
        <time>2016-05-05T09:10:31.000Z</time>
      </trkpt>
      <trkpt lat="48.91094" lon="2.10061">
        <ele>117</ele>
        <time>2016-05-05T09:10:46.000Z</time>
      </trkpt>
      <trkpt lat="48.91101" lon="2.10063">
        <ele>117</ele>
        <time>2016-05-05T09:10:52.000Z</time>
      </trkpt>
      <trkpt lat="48.91101" lon="2.10063">
        <ele>117</ele>
        <time>2016-05-05T09:10:56.000Z</time>
      </trkpt>
      <trkpt lat="48.91101" lon="2.10063">
        <ele>117</ele>
        <time>2016-05-05T09:10:58.000Z</time>
      </trkpt>
      <trkpt lat="48.91125" lon="2.10047">
        <ele>118</ele>
        <time>2016-05-05T09:11:11.000Z</time>
      </trkpt>
      <trkpt lat="48.91125" lon="2.10047">
        <ele>118</ele>
        <time>2016-05-05T09:11:13.000Z</time>
      </trkpt>
      <trkpt lat="48.91125" lon="2.10047">
        <ele>118</ele>
        <time>2016-05-05T09:11:16.000Z</time>
      </trkpt>
      <trkpt lat="48.91136" lon="2.10052">
        <ele>118</ele>
        <time>2016-05-05T09:11:19.000Z</time>
      </trkpt>
      <trkpt lat="48.91136" lon="2.10052">
        <ele>118</ele>
        <time>2016-05-05T09:11:24.000Z</time>
      </trkpt>
      <trkpt lat="48.91135" lon="2.10034">
        <ele>119</ele>
        <time>2016-05-05T09:11:26.000Z</time>
      </trkpt>
      <trkpt lat="48.91135" lon="2.10034">
        <ele>119</ele>
        <time>2016-05-05T09:11:30.000Z</time>
      </trkpt>
      <trkpt lat="48.91135" lon="2.10034">
        <ele>119</ele>
        <time>2016-05-05T09:11:32.000Z</time>
      </trkpt>
      <trkpt lat="48.91135" lon="2.1001">
        <ele>116</ele>
        <time>2016-05-05T09:11:50.000Z</time>
      </trkpt>
      <trkpt lat="48.91135" lon="2.1001">
        <ele>116</ele>
        <time>2016-05-05T09:11:52.000Z</time>
      </trkpt>
      <trkpt lat="48.91135" lon="2.1001">
        <ele>116</ele>
        <time>2016-05-05T09:11:54.000Z</time>
      </trkpt>
      <trkpt lat="48.91135" lon="2.1001">
        <ele>116</ele>
        <time>2016-05-05T09:11:56.000Z</time>
      </trkpt>
      <trkpt lat="48.91137" lon="2.1">
        <ele>114</ele>
        <time>2016-05-05T09:12:00.000Z</time>
      </trkpt>
      <trkpt lat="48.91138" lon="2.09991">
        <ele>114</ele>
        <time>2016-05-05T09:12:02.000Z</time>
      </trkpt>
      <trkpt lat="48.9114" lon="2.09985">
        <ele>114</ele>
        <time>2016-05-05T09:12:04.000Z</time>
      </trkpt>
      <trkpt lat="48.91141" lon="2.09979">
        <ele>114</ele>
        <time>2016-05-05T09:12:06.000Z</time>
      </trkpt>
      <trkpt lat="48.91142" lon="2.09975">
        <ele>113</ele>
        <time>2016-05-05T09:12:08.000Z</time>
      </trkpt>
      <trkpt lat="48.91145" lon="2.0996">
        <ele>113</ele>
        <time>2016-05-05T09:12:14.000Z</time>
      </trkpt>
      <trkpt lat="48.91145" lon="2.0996">
        <ele>113</ele>
        <time>2016-05-05T09:12:18.000Z</time>
      </trkpt>
      <trkpt lat="48.91149" lon="2.09946">
        <ele>112</ele>
        <time>2016-05-05T09:12:20.000Z</time>
      </trkpt>
      <trkpt lat="48.91153" lon="2.09933">
        <ele>112</ele>
        <time>2016-05-05T09:12:26.000Z</time>
      </trkpt>
      <trkpt lat="48.91153" lon="2.09933">
        <ele>112</ele>
        <time>2016-05-05T09:12:28.000Z</time>
      </trkpt>
      <trkpt lat="48.91153" lon="2.09933">
        <ele>112</ele>
        <time>2016-05-05T09:12:30.000Z</time>
      </trkpt>
      <trkpt lat="48.91153" lon="2.09933">
        <ele>112</ele>
        <time>2016-05-05T09:12:36.000Z</time>
      </trkpt>
      <trkpt lat="48.91155" lon="2.09919">
        <ele>111</ele>
        <time>2016-05-05T09:12:38.000Z</time>
      </trkpt>
      <trkpt lat="48.91155" lon="2.09919">
        <ele>111</ele>
        <time>2016-05-05T09:12:40.000Z</time>
      </trkpt>
      <trkpt lat="48.91155" lon="2.09919">
        <ele>111</ele>
        <time>2016-05-05T09:12:42.000Z</time>
      </trkpt>
      <trkpt lat="48.91155" lon="2.09919">
        <ele>111</ele>
        <time>2016-05-05T09:12:46.000Z</time>
      </trkpt>
      <trkpt lat="48.91155" lon="2.09919">
        <ele>111</ele>
        <time>2016-05-05T09:12:48.000Z</time>
      </trkpt>
      <trkpt lat="48.91166" lon="2.09932">
        <ele>118</ele>
        <time>2016-05-05T09:26:17.000Z</time>
      </trkpt>
      <trkpt lat="48.91176" lon="2.09936">
        <ele>115</ele>
        <time>2016-05-05T09:27:19.000Z</time>
      </trkpt>
      <trkpt lat="48.91176" lon="2.09936">
        <ele>115</ele>
        <time>2016-05-05T09:27:21.000Z</time>
      </trkpt>
      <trkpt lat="48.91176" lon="2.09936">
        <ele>115</ele>
        <time>2016-05-05T09:27:23.000Z</time>
      </trkpt>
      <trkpt lat="48.9118" lon="2.0995">
        <ele>115</ele>
        <time>2016-05-05T09:27:29.000Z</time>
      </trkpt>
      <trkpt lat="48.91183" lon="2.09959">
        <ele>115</ele>
        <time>2016-05-05T09:27:35.000Z</time>
      </trkpt>
      <trkpt lat="48.91183" lon="2.09959">
        <ele>115</ele>
        <time>2016-05-05T09:27:39.000Z</time>
      </trkpt>
      <trkpt lat="48.91183" lon="2.09959">
        <ele>115</ele>
        <time>2016-05-05T09:27:41.000Z</time>
      </trkpt>
      <trkpt lat="48.91185" lon="2.09972">
        <ele>114</ele>
        <time>2016-05-05T09:27:43.000Z</time>
      </trkpt>
      <trkpt lat="48.9119" lon="2.09985">
        <ele>112</ele>
        <time>2016-05-05T09:27:55.000Z</time>
      </trkpt>
      <trkpt lat="48.9119" lon="2.09985">
        <ele>112</ele>
        <time>2016-05-05T09:27:57.000Z</time>
      </trkpt>
      <trkpt lat="48.9119" lon="2.09985">
        <ele>112</ele>
        <time>2016-05-05T09:27:59.000Z</time>
      </trkpt>
      <trkpt lat="48.91189" lon="2.09991">
        <ele>111</ele>
        <time>2016-05-05T09:28:03.000Z</time>
      </trkpt>
      <trkpt lat="48.91188" lon="2.09998">
        <ele>110</ele>
        <time>2016-05-05T09:28:09.000Z</time>
      </trkpt>
      <trkpt lat="48.91188" lon="2.09998">
        <ele>110</ele>
        <time>2016-05-05T09:28:11.000Z</time>
      </trkpt>
      <trkpt lat="48.91187" lon="2.10005">
        <ele>110</ele>
        <time>2016-05-05T09:28:13.000Z</time>
      </trkpt>
      <trkpt lat="48.91185" lon="2.1001">
        <ele>111</ele>
        <time>2016-05-05T09:28:17.000Z</time>
      </trkpt>
      <trkpt lat="48.91185" lon="2.1001">
        <ele>111</ele>
        <time>2016-05-05T09:28:19.000Z</time>
      </trkpt>
      <trkpt lat="48.91185" lon="2.1001">
        <ele>111</ele>
        <time>2016-05-05T09:28:21.000Z</time>
      </trkpt>
      <trkpt lat="48.91185" lon="2.1001">
        <ele>111</ele>
        <time>2016-05-05T09:28:23.000Z</time>
      </trkpt>
      <trkpt lat="48.91183" lon="2.10017">
        <ele>112</ele>
        <time>2016-05-05T09:28:25.000Z</time>
      </trkpt>
      <trkpt lat="48.91182" lon="2.10024">
        <ele>113</ele>
        <time>2016-05-05T09:28:29.000Z</time>
      </trkpt>
      <trkpt lat="48.91182" lon="2.10024">
        <ele>113</ele>
        <time>2016-05-05T09:28:31.000Z</time>
      </trkpt>
      <trkpt lat="48.9118" lon="2.10032">
        <ele>114</ele>
        <time>2016-05-05T09:28:33.000Z</time>
      </trkpt>
      <trkpt lat="48.91178" lon="2.10036">
        <ele>114</ele>
        <time>2016-05-05T09:28:35.000Z</time>
      </trkpt>
      <trkpt lat="48.91178" lon="2.10036">
        <ele>114</ele>
        <time>2016-05-05T09:28:37.000Z</time>
      </trkpt>
      <trkpt lat="48.91178" lon="2.10036">
        <ele>114</ele>
        <time>2016-05-05T09:28:39.000Z</time>
      </trkpt>
      <trkpt lat="48.91178" lon="2.10036">
        <ele>114</ele>
        <time>2016-05-05T09:28:49.000Z</time>
      </trkpt>
      <trkpt lat="48.91178" lon="2.10036">
        <ele>114</ele>
        <time>2016-05-05T09:28:51.000Z</time>
      </trkpt>
      <trkpt lat="48.91172" lon="2.10062">
        <ele>117</ele>
        <time>2016-05-05T09:29:23.000Z</time>
      </trkpt>
      <trkpt lat="48.91169" lon="2.10078">
        <ele>117</ele>
        <time>2016-05-05T09:29:25.000Z</time>
      </trkpt>
      <trkpt lat="48.91167" lon="2.10086">
        <ele>117</ele>
        <time>2016-05-05T09:29:27.000Z</time>
      </trkpt>
      <trkpt lat="48.91165" lon="2.10092">
        <ele>118</ele>
        <time>2016-05-05T09:29:29.000Z</time>
      </trkpt>
      <trkpt lat="48.91162" lon="2.101">
        <ele>118</ele>
        <time>2016-05-05T09:29:33.000Z</time>
      </trkpt>
      <trkpt lat="48.91162" lon="2.101">
        <ele>118</ele>
        <time>2016-05-05T09:29:35.000Z</time>
      </trkpt>
      <trkpt lat="48.91158" lon="2.10105">
        <ele>118</ele>
        <time>2016-05-05T09:29:37.000Z</time>
      </trkpt>
      <trkpt lat="48.91154" lon="2.1011">
        <ele>118</ele>
        <time>2016-05-05T09:29:39.000Z</time>
      </trkpt>
      <trkpt lat="48.91151" lon="2.10117">
        <ele>118</ele>
        <time>2016-05-05T09:29:43.000Z</time>
      </trkpt>
      <trkpt lat="48.91148" lon="2.10123">
        <ele>118</ele>
        <time>2016-05-05T09:29:45.000Z</time>
      </trkpt>
      <trkpt lat="48.91147" lon="2.1013">
        <ele>118</ele>
        <time>2016-05-05T09:29:51.000Z</time>
      </trkpt>
      <trkpt lat="48.91146" lon="2.10137">
        <ele>117</ele>
        <time>2016-05-05T09:29:53.000Z</time>
      </trkpt>
      <trkpt lat="48.91146" lon="2.10137">
        <ele>117</ele>
        <time>2016-05-05T09:29:55.000Z</time>
      </trkpt>
      <trkpt lat="48.91145" lon="2.10144">
        <ele>117</ele>
        <time>2016-05-05T09:29:57.000Z</time>
      </trkpt>
      <trkpt lat="48.91143" lon="2.10149">
        <ele>117</ele>
        <time>2016-05-05T09:29:59.000Z</time>
      </trkpt>
      <trkpt lat="48.91143" lon="2.10149">
        <ele>117</ele>
        <time>2016-05-05T09:30:01.000Z</time>
      </trkpt>
      <trkpt lat="48.91141" lon="2.10156">
        <ele>116</ele>
        <time>2016-05-05T09:30:03.000Z</time>
      </trkpt>
      <trkpt lat="48.91141" lon="2.10156">
        <ele>116</ele>
        <time>2016-05-05T09:30:05.000Z</time>
      </trkpt>
      <trkpt lat="48.91139" lon="2.10164">
        <ele>117</ele>
        <time>2016-05-05T09:30:07.000Z</time>
      </trkpt>
      <trkpt lat="48.91139" lon="2.10164">
        <ele>117</ele>
        <time>2016-05-05T09:30:09.000Z</time>
      </trkpt>
      <trkpt lat="48.91137" lon="2.10172">
        <ele>117</ele>
        <time>2016-05-05T09:30:11.000Z</time>
      </trkpt>
      <trkpt lat="48.91135" lon="2.10177">
        <ele>118</ele>
        <time>2016-05-05T09:30:13.000Z</time>
      </trkpt>
      <trkpt lat="48.91135" lon="2.10177">
        <ele>118</ele>
        <time>2016-05-05T09:30:19.000Z</time>
      </trkpt>
      <trkpt lat="48.91135" lon="2.10177">
        <ele>118</ele>
        <time>2016-05-05T09:30:21.000Z</time>
      </trkpt>
      <trkpt lat="48.91135" lon="2.10177">
        <ele>118</ele>
        <time>2016-05-05T09:30:23.000Z</time>
      </trkpt>
      <trkpt lat="48.91135" lon="2.10177">
        <ele>118</ele>
        <time>2016-05-05T09:30:31.000Z</time>
      </trkpt>
      <trkpt lat="48.91134" lon="2.10184">
        <ele>124</ele>
        <time>2016-05-05T09:30:33.000Z</time>
      </trkpt>
      <trkpt lat="48.91134" lon="2.10184">
        <ele>124</ele>
        <time>2016-05-05T09:30:35.000Z</time>
      </trkpt>
      <trkpt lat="48.91134" lon="2.10184">
        <ele>124</ele>
        <time>2016-05-05T09:30:37.000Z</time>
      </trkpt>
      <trkpt lat="48.91134" lon="2.10184">
        <ele>124</ele>
        <time>2016-05-05T09:30:39.000Z</time>
      </trkpt>
      <trkpt lat="48.91134" lon="2.10184">
        <ele>124</ele>
        <time>2016-05-05T09:30:41.000Z</time>
      </trkpt>
      <trkpt lat="48.91136" lon="2.10194">
        <ele>125</ele>
        <time>2016-05-05T09:30:43.000Z</time>
      </trkpt>
      <trkpt lat="48.91138" lon="2.10202">
        <ele>125</ele>
        <time>2016-05-05T09:30:49.000Z</time>
      </trkpt>
      <trkpt lat="48.91141" lon="2.10209">
        <ele>125</ele>
        <time>2016-05-05T09:30:53.000Z</time>
      </trkpt>
      <trkpt lat="48.91141" lon="2.10209">
        <ele>125</ele>
        <time>2016-05-05T09:30:57.000Z</time>
      </trkpt>
      <trkpt lat="48.91143" lon="2.10216">
        <ele>126</ele>
        <time>2016-05-05T09:30:59.000Z</time>
      </trkpt>
      <trkpt lat="48.91147" lon="2.10223">
        <ele>126</ele>
        <time>2016-05-05T09:31:05.000Z</time>
      </trkpt>
      <trkpt lat="48.91147" lon="2.10223">
        <ele>126</ele>
        <time>2016-05-05T09:31:07.000Z</time>
      </trkpt>
      <trkpt lat="48.91152" lon="2.10229">
        <ele>127</ele>
        <time>2016-05-05T09:31:09.000Z</time>
      </trkpt>
      <trkpt lat="48.91155" lon="2.10234">
        <ele>128</ele>
        <time>2016-05-05T09:31:11.000Z</time>
      </trkpt>
      <trkpt lat="48.91155" lon="2.10234">
        <ele>128</ele>
        <time>2016-05-05T09:31:13.000Z</time>
      </trkpt>
      <trkpt lat="48.91159" lon="2.10238">
        <ele>128</ele>
        <time>2016-05-05T09:31:17.000Z</time>
      </trkpt>
      <trkpt lat="48.91164" lon="2.10244">
        <ele>128</ele>
        <time>2016-05-05T09:31:21.000Z</time>
      </trkpt>
      <trkpt lat="48.91168" lon="2.10248">
        <ele>128</ele>
        <time>2016-05-05T09:31:23.000Z</time>
      </trkpt>
      <trkpt lat="48.91168" lon="2.10248">
        <ele>128</ele>
        <time>2016-05-05T09:31:25.000Z</time>
      </trkpt>
      <trkpt lat="48.91173" lon="2.1025">
        <ele>128</ele>
        <time>2016-05-05T09:31:27.000Z</time>
      </trkpt>
      <trkpt lat="48.91176" lon="2.10252">
        <ele>129</ele>
        <time>2016-05-05T09:31:29.000Z</time>
      </trkpt>
      <trkpt lat="48.9118" lon="2.10258">
        <ele>128</ele>
        <time>2016-05-05T09:31:35.000Z</time>
      </trkpt>
      <trkpt lat="48.91184" lon="2.10263">
        <ele>129</ele>
        <time>2016-05-05T09:31:41.000Z</time>
      </trkpt>
      <trkpt lat="48.91184" lon="2.10263">
        <ele>129</ele>
        <time>2016-05-05T09:31:43.000Z</time>
      </trkpt>
      <trkpt lat="48.91184" lon="2.10263">
        <ele>129</ele>
        <time>2016-05-05T09:31:45.000Z</time>
      </trkpt>
      <trkpt lat="48.91189" lon="2.10267">
        <ele>129</ele>
        <time>2016-05-05T09:31:47.000Z</time>
      </trkpt>
      <trkpt lat="48.91193" lon="2.10269">
        <ele>129</ele>
        <time>2016-05-05T09:31:49.000Z</time>
      </trkpt>
      <trkpt lat="48.91196" lon="2.10271">
        <ele>129</ele>
        <time>2016-05-05T09:31:51.000Z</time>
      </trkpt>
      <trkpt lat="48.912" lon="2.10274">
        <ele>128</ele>
        <time>2016-05-05T09:31:53.000Z</time>
      </trkpt>
      <trkpt lat="48.91204" lon="2.10276">
        <ele>128</ele>
        <time>2016-05-05T09:31:55.000Z</time>
      </trkpt>
      <trkpt lat="48.91212" lon="2.10281">
        <ele>127</ele>
        <time>2016-05-05T09:32:01.000Z</time>
      </trkpt>
      <trkpt lat="48.91212" lon="2.10281">
        <ele>127</ele>
        <time>2016-05-05T09:32:07.000Z</time>
      </trkpt>
      <trkpt lat="48.91212" lon="2.10281">
        <ele>127</ele>
        <time>2016-05-05T09:32:09.000Z</time>
      </trkpt>
      <trkpt lat="48.91212" lon="2.10281">
        <ele>127</ele>
        <time>2016-05-05T09:32:11.000Z</time>
      </trkpt>
      <trkpt lat="48.91226" lon="2.10297">
        <ele>127</ele>
        <time>2016-05-05T09:32:16.000Z</time>
      </trkpt>
      <trkpt lat="48.91236" lon="2.10305">
        <ele>127</ele>
        <time>2016-05-05T09:32:22.000Z</time>
      </trkpt>
      <trkpt lat="48.91242" lon="2.10309">
        <ele>126</ele>
        <time>2016-05-05T09:32:30.000Z</time>
      </trkpt>
      <trkpt lat="48.91242" lon="2.10309">
        <ele>126</ele>
        <time>2016-05-05T09:32:32.000Z</time>
      </trkpt>
      <trkpt lat="48.91242" lon="2.10309">
        <ele>126</ele>
        <time>2016-05-05T09:32:34.000Z</time>
      </trkpt>
      <trkpt lat="48.91242" lon="2.10309">
        <ele>126</ele>
        <time>2016-05-05T09:32:36.000Z</time>
      </trkpt>
      <trkpt lat="48.91242" lon="2.10309">
        <ele>126</ele>
        <time>2016-05-05T09:32:38.000Z</time>
      </trkpt>
      <trkpt lat="48.91249" lon="2.10315">
        <ele>125</ele>
        <time>2016-05-05T09:32:41.000Z</time>
      </trkpt>
      <trkpt lat="48.91258" lon="2.10321">
        <ele>124</ele>
        <time>2016-05-05T09:32:47.000Z</time>
      </trkpt>
      <trkpt lat="48.91264" lon="2.10331">
        <ele>124</ele>
        <time>2016-05-05T09:32:55.000Z</time>
      </trkpt>
      <trkpt lat="48.91264" lon="2.10331">
        <ele>124</ele>
        <time>2016-05-05T09:32:57.000Z</time>
      </trkpt>
      <trkpt lat="48.91264" lon="2.10331">
        <ele>124</ele>
        <time>2016-05-05T09:32:59.000Z</time>
      </trkpt>
      <trkpt lat="48.91264" lon="2.10331">
        <ele>124</ele>
        <time>2016-05-05T09:33:01.000Z</time>
      </trkpt>
      <trkpt lat="48.91264" lon="2.10331">
        <ele>124</ele>
        <time>2016-05-05T09:33:03.000Z</time>
      </trkpt>
      <trkpt lat="48.91272" lon="2.10337">
        <ele>125</ele>
        <time>2016-05-05T09:33:05.000Z</time>
      </trkpt>
      <trkpt lat="48.91283" lon="2.10341">
        <ele>126</ele>
        <time>2016-05-05T09:33:13.000Z</time>
      </trkpt>
      <trkpt lat="48.91289" lon="2.10344">
        <ele>127</ele>
        <time>2016-05-05T09:33:23.000Z</time>
      </trkpt>
      <trkpt lat="48.91289" lon="2.10344">
        <ele>127</ele>
        <time>2016-05-05T09:33:25.000Z</time>
      </trkpt>
      <trkpt lat="48.91294" lon="2.10346">
        <ele>127</ele>
        <time>2016-05-05T09:33:27.000Z</time>
      </trkpt>
      <trkpt lat="48.91294" lon="2.10346">
        <ele>127</ele>
        <time>2016-05-05T09:33:29.000Z</time>
      </trkpt>
      <trkpt lat="48.91299" lon="2.10347">
        <ele>126</ele>
        <time>2016-05-05T09:33:31.000Z</time>
      </trkpt>
      <trkpt lat="48.91299" lon="2.10347">
        <ele>126</ele>
        <time>2016-05-05T09:33:33.000Z</time>
      </trkpt>
      <trkpt lat="48.91299" lon="2.10347">
        <ele>126</ele>
        <time>2016-05-05T09:33:35.000Z</time>
      </trkpt>
      <trkpt lat="48.91303" lon="2.10351">
        <ele>126</ele>
        <time>2016-05-05T09:33:37.000Z</time>
      </trkpt>
      <trkpt lat="48.91303" lon="2.10351">
        <ele>126</ele>
        <time>2016-05-05T09:33:39.000Z</time>
      </trkpt>
      <trkpt lat="48.91303" lon="2.10351">
        <ele>126</ele>
        <time>2016-05-05T09:33:41.000Z</time>
      </trkpt>
      <trkpt lat="48.91315" lon="2.10365">
        <ele>127</ele>
        <time>2016-05-05T09:33:53.000Z</time>
      </trkpt>
      <trkpt lat="48.91322" lon="2.10372">
        <ele>127</ele>
        <time>2016-05-05T09:33:55.000Z</time>
      </trkpt>
      <trkpt lat="48.91326" lon="2.10376">
        <ele>127</ele>
        <time>2016-05-05T09:33:57.000Z</time>
      </trkpt>
      <trkpt lat="48.9133" lon="2.10378">
        <ele>127</ele>
        <time>2016-05-05T09:34:03.000Z</time>
      </trkpt>
      <trkpt lat="48.9133" lon="2.10378">
        <ele>127</ele>
        <time>2016-05-05T09:34:05.000Z</time>
      </trkpt>
      <trkpt lat="48.9133" lon="2.10378">
        <ele>127</ele>
        <time>2016-05-05T09:34:07.000Z</time>
      </trkpt>
      <trkpt lat="48.91336" lon="2.1038">
        <ele>126</ele>
        <time>2016-05-05T09:34:09.000Z</time>
      </trkpt>
      <trkpt lat="48.91336" lon="2.1038">
        <ele>126</ele>
        <time>2016-05-05T09:34:13.000Z</time>
      </trkpt>
      <trkpt lat="48.91336" lon="2.1038">
        <ele>126</ele>
        <time>2016-05-05T09:34:15.000Z</time>
      </trkpt>
      <trkpt lat="48.91336" lon="2.1038">
        <ele>126</ele>
        <time>2016-05-05T09:34:17.000Z</time>
      </trkpt>
      <trkpt lat="48.91343" lon="2.10384">
        <ele>125</ele>
        <time>2016-05-05T09:34:19.000Z</time>
      </trkpt>
      <trkpt lat="48.91348" lon="2.10387">
        <ele>125</ele>
        <time>2016-05-05T09:34:21.000Z</time>
      </trkpt>
      <trkpt lat="48.91352" lon="2.1039">
        <ele>125</ele>
        <time>2016-05-05T09:34:25.000Z</time>
      </trkpt>
      <trkpt lat="48.91357" lon="2.10393">
        <ele>124</ele>
        <time>2016-05-05T09:34:31.000Z</time>
      </trkpt>
      <trkpt lat="48.9136" lon="2.10395">
        <ele>124</ele>
        <time>2016-05-05T09:34:33.000Z</time>
      </trkpt>
      <trkpt lat="48.9136" lon="2.10395">
        <ele>124</ele>
        <time>2016-05-05T09:34:37.000Z</time>
      </trkpt>
      <trkpt lat="48.91365" lon="2.10399">
        <ele>124</ele>
        <time>2016-05-05T09:34:39.000Z</time>
      </trkpt>
      <trkpt lat="48.91365" lon="2.10399">
        <ele>124</ele>
        <time>2016-05-05T09:34:41.000Z</time>
      </trkpt>
      <trkpt lat="48.9137" lon="2.10402">
        <ele>123</ele>
        <time>2016-05-05T09:34:43.000Z</time>
      </trkpt>
      <trkpt lat="48.91373" lon="2.10405">
        <ele>123</ele>
        <time>2016-05-05T09:34:45.000Z</time>
      </trkpt>
      <trkpt lat="48.91378" lon="2.10409">
        <ele>123</ele>
        <time>2016-05-05T09:34:55.000Z</time>
      </trkpt>
      <trkpt lat="48.91378" lon="2.10409">
        <ele>123</ele>
        <time>2016-05-05T09:34:57.000Z</time>
      </trkpt>
      <trkpt lat="48.91378" lon="2.10409">
        <ele>123</ele>
        <time>2016-05-05T09:34:59.000Z</time>
      </trkpt>
      <trkpt lat="48.91381" lon="2.10414">
        <ele>122</ele>
        <time>2016-05-05T09:35:01.000Z</time>
      </trkpt>
      <trkpt lat="48.91385" lon="2.10422">
        <ele>123</ele>
        <time>2016-05-05T09:35:05.000Z</time>
      </trkpt>
      <trkpt lat="48.91388" lon="2.10427">
        <ele>123</ele>
        <time>2016-05-05T09:35:07.000Z</time>
      </trkpt>
      <trkpt lat="48.91388" lon="2.10427">
        <ele>123</ele>
        <time>2016-05-05T09:35:09.000Z</time>
      </trkpt>
      <trkpt lat="48.91388" lon="2.10427">
        <ele>123</ele>
        <time>2016-05-05T09:35:11.000Z</time>
      </trkpt>
      <trkpt lat="48.91392" lon="2.10431">
        <ele>124</ele>
        <time>2016-05-05T09:35:13.000Z</time>
      </trkpt>
      <trkpt lat="48.91392" lon="2.10431">
        <ele>124</ele>
        <time>2016-05-05T09:35:15.000Z</time>
      </trkpt>
      <trkpt lat="48.91397" lon="2.10436">
        <ele>125</ele>
        <time>2016-05-05T09:35:17.000Z</time>
      </trkpt>
      <trkpt lat="48.91397" lon="2.10436">
        <ele>125</ele>
        <time>2016-05-05T09:35:19.000Z</time>
      </trkpt>
      <trkpt lat="48.914" lon="2.10441">
        <ele>125</ele>
        <time>2016-05-05T09:35:21.000Z</time>
      </trkpt>
      <trkpt lat="48.91404" lon="2.10445">
        <ele>125</ele>
        <time>2016-05-05T09:35:25.000Z</time>
      </trkpt>
      <trkpt lat="48.91404" lon="2.10445">
        <ele>125</ele>
        <time>2016-05-05T09:35:27.000Z</time>
      </trkpt>
      <trkpt lat="48.91404" lon="2.10445">
        <ele>125</ele>
        <time>2016-05-05T09:35:29.000Z</time>
      </trkpt>
      <trkpt lat="48.91409" lon="2.10448">
        <ele>124</ele>
        <time>2016-05-05T09:35:31.000Z</time>
      </trkpt>
      <trkpt lat="48.91409" lon="2.10448">
        <ele>124</ele>
        <time>2016-05-05T09:35:35.000Z</time>
      </trkpt>
      <trkpt lat="48.91409" lon="2.10448">
        <ele>124</ele>
        <time>2016-05-05T09:35:37.000Z</time>
      </trkpt>
      <trkpt lat="48.91409" lon="2.10448">
        <ele>124</ele>
        <time>2016-05-05T09:35:39.000Z</time>
      </trkpt>
      <trkpt lat="48.91416" lon="2.1045">
        <ele>120</ele>
        <time>2016-05-05T09:35:49.000Z</time>
      </trkpt>
      <trkpt lat="48.9142" lon="2.10453">
        <ele>120</ele>
        <time>2016-05-05T09:35:51.000Z</time>
      </trkpt>
      <trkpt lat="48.9142" lon="2.10453">
        <ele>120</ele>
        <time>2016-05-05T09:35:53.000Z</time>
      </trkpt>
      <trkpt lat="48.9142" lon="2.10453">
        <ele>120</ele>
        <time>2016-05-05T09:35:55.000Z</time>
      </trkpt>
      <trkpt lat="48.91425" lon="2.10457">
        <ele>121</ele>
        <time>2016-05-05T09:35:57.000Z</time>
      </trkpt>
      <trkpt lat="48.91425" lon="2.10457">
        <ele>121</ele>
        <time>2016-05-05T09:35:59.000Z</time>
      </trkpt>
      <trkpt lat="48.91429" lon="2.10463">
        <ele>121</ele>
        <time>2016-05-05T09:36:03.000Z</time>
      </trkpt>
      <trkpt lat="48.91429" lon="2.10463">
        <ele>121</ele>
        <time>2016-05-05T09:36:05.000Z</time>
      </trkpt>
      <trkpt lat="48.91437" lon="2.10471">
        <ele>122</ele>
        <time>2016-05-05T09:36:08.000Z</time>
      </trkpt>
      <trkpt lat="48.91444" lon="2.10477">
        <ele>121</ele>
        <time>2016-05-05T09:36:10.000Z</time>
      </trkpt>
      <trkpt lat="48.91449" lon="2.1048">
        <ele>121</ele>
        <time>2016-05-05T09:36:14.000Z</time>
      </trkpt>
      <trkpt lat="48.91449" lon="2.1048">
        <ele>121</ele>
        <time>2016-05-05T09:36:18.000Z</time>
      </trkpt>
      <trkpt lat="48.91453" lon="2.10482">
        <ele>119</ele>
        <time>2016-05-05T09:36:20.000Z</time>
      </trkpt>
      <trkpt lat="48.91458" lon="2.10484">
        <ele>118</ele>
        <time>2016-05-05T09:36:24.000Z</time>
      </trkpt>
      <trkpt lat="48.91463" lon="2.10486">
        <ele>118</ele>
        <time>2016-05-05T09:36:28.000Z</time>
      </trkpt>
      <trkpt lat="48.91463" lon="2.10486">
        <ele>118</ele>
        <time>2016-05-05T09:36:30.000Z</time>
      </trkpt>
      <trkpt lat="48.91463" lon="2.10486">
        <ele>118</ele>
        <time>2016-05-05T09:36:32.000Z</time>
      </trkpt>
      <trkpt lat="48.91467" lon="2.10489">
        <ele>118</ele>
        <time>2016-05-05T09:36:34.000Z</time>
      </trkpt>
      <trkpt lat="48.9147" lon="2.10492">
        <ele>117</ele>
        <time>2016-05-05T09:36:36.000Z</time>
      </trkpt>
      <trkpt lat="48.91474" lon="2.10496">
        <ele>117</ele>
        <time>2016-05-05T09:36:46.000Z</time>
      </trkpt>
      <trkpt lat="48.91474" lon="2.10496">
        <ele>117</ele>
        <time>2016-05-05T09:36:48.000Z</time>
      </trkpt>
      <trkpt lat="48.91474" lon="2.10496">
        <ele>117</ele>
        <time>2016-05-05T09:36:50.000Z</time>
      </trkpt>
      <trkpt lat="48.91474" lon="2.10496">
        <ele>117</ele>
        <time>2016-05-05T09:36:52.000Z</time>
      </trkpt>
      <trkpt lat="48.91474" lon="2.10496">
        <ele>117</ele>
        <time>2016-05-05T09:36:54.000Z</time>
      </trkpt>
      <trkpt lat="48.91474" lon="2.10496">
        <ele>117</ele>
        <time>2016-05-05T09:36:56.000Z</time>
      </trkpt>
      <trkpt lat="48.91486" lon="2.10514">
        <ele>122</ele>
        <time>2016-05-05T09:37:16.000Z</time>
      </trkpt>
      <trkpt lat="48.91495" lon="2.10524">
        <ele>122</ele>
        <time>2016-05-05T09:37:18.000Z</time>
      </trkpt>
      <trkpt lat="48.915" lon="2.10529">
        <ele>123</ele>
        <time>2016-05-05T09:37:20.000Z</time>
      </trkpt>
      <trkpt lat="48.91504" lon="2.10532">
        <ele>123</ele>
        <time>2016-05-05T09:37:22.000Z</time>
      </trkpt>
      <trkpt lat="48.91509" lon="2.10534">
        <ele>124</ele>
        <time>2016-05-05T09:37:26.000Z</time>
      </trkpt>
      <trkpt lat="48.91514" lon="2.10536">
        <ele>124</ele>
        <time>2016-05-05T09:37:30.000Z</time>
      </trkpt>
      <trkpt lat="48.9152" lon="2.1054">
        <ele>124</ele>
        <time>2016-05-05T09:37:34.000Z</time>
      </trkpt>
      <trkpt lat="48.9152" lon="2.1054">
        <ele>124</ele>
        <time>2016-05-05T09:37:36.000Z</time>
      </trkpt>
      <trkpt lat="48.91525" lon="2.10544">
        <ele>124</ele>
        <time>2016-05-05T09:37:38.000Z</time>
      </trkpt>
      <trkpt lat="48.91525" lon="2.10544">
        <ele>124</ele>
        <time>2016-05-05T09:37:40.000Z</time>
      </trkpt>
      <trkpt lat="48.91529" lon="2.10546">
        <ele>124</ele>
        <time>2016-05-05T09:37:42.000Z</time>
      </trkpt>
      <trkpt lat="48.91529" lon="2.10546">
        <ele>124</ele>
        <time>2016-05-05T09:37:44.000Z</time>
      </trkpt>
      <trkpt lat="48.91529" lon="2.10546">
        <ele>124</ele>
        <time>2016-05-05T09:37:46.000Z</time>
      </trkpt>
      <trkpt lat="48.91535" lon="2.10548">
        <ele>125</ele>
        <time>2016-05-05T09:37:48.000Z</time>
      </trkpt>
      <trkpt lat="48.91539" lon="2.10549">
        <ele>124</ele>
        <time>2016-05-05T09:37:52.000Z</time>
      </trkpt>
      <trkpt lat="48.91544" lon="2.10554">
        <ele>125</ele>
        <time>2016-05-05T09:37:58.000Z</time>
      </trkpt>
      <trkpt lat="48.91544" lon="2.10554">
        <ele>125</ele>
        <time>2016-05-05T09:38:00.000Z</time>
      </trkpt>
      <trkpt lat="48.91547" lon="2.10559">
        <ele>125</ele>
        <time>2016-05-05T09:38:02.000Z</time>
      </trkpt>
      <trkpt lat="48.91547" lon="2.10559">
        <ele>125</ele>
        <time>2016-05-05T09:38:04.000Z</time>
      </trkpt>
      <trkpt lat="48.9155" lon="2.10564">
        <ele>126</ele>
        <time>2016-05-05T09:38:06.000Z</time>
      </trkpt>
      <trkpt lat="48.9155" lon="2.10564">
        <ele>126</ele>
        <time>2016-05-05T09:38:08.000Z</time>
      </trkpt>
      <trkpt lat="48.9155" lon="2.10564">
        <ele>126</ele>
        <time>2016-05-05T09:38:10.000Z</time>
      </trkpt>
      <trkpt lat="48.91554" lon="2.10569">
        <ele>127</ele>
        <time>2016-05-05T09:38:12.000Z</time>
      </trkpt>
      <trkpt lat="48.91558" lon="2.10575">
        <ele>127</ele>
        <time>2016-05-05T09:38:16.000Z</time>
      </trkpt>
      <trkpt lat="48.91563" lon="2.1058">
        <ele>127</ele>
        <time>2016-05-05T09:38:18.000Z</time>
      </trkpt>
      <trkpt lat="48.91566" lon="2.10584">
        <ele>127</ele>
        <time>2016-05-05T09:38:20.000Z</time>
      </trkpt>
      <trkpt lat="48.91568" lon="2.10587">
        <ele>127</ele>
        <time>2016-05-05T09:38:22.000Z</time>
      </trkpt>
      <trkpt lat="48.91572" lon="2.1059">
        <ele>127</ele>
        <time>2016-05-05T09:38:24.000Z</time>
      </trkpt>
      <trkpt lat="48.91572" lon="2.1059">
        <ele>127</ele>
        <time>2016-05-05T09:38:26.000Z</time>
      </trkpt>
      <trkpt lat="48.91572" lon="2.1059">
        <ele>127</ele>
        <time>2016-05-05T09:38:28.000Z</time>
      </trkpt>
      <trkpt lat="48.91582" lon="2.10593">
        <ele>127</ele>
        <time>2016-05-05T09:38:30.000Z</time>
      </trkpt>
      <trkpt lat="48.91582" lon="2.10593">
        <ele>127</ele>
        <time>2016-05-05T09:38:32.000Z</time>
      </trkpt>
      <trkpt lat="48.91582" lon="2.10593">
        <ele>127</ele>
        <time>2016-05-05T09:38:36.000Z</time>
      </trkpt>
      <trkpt lat="48.91595" lon="2.10598">
        <ele>126</ele>
        <time>2016-05-05T09:38:38.000Z</time>
      </trkpt>
      <trkpt lat="48.91604" lon="2.10599">
        <ele>125</ele>
        <time>2016-05-05T09:38:46.000Z</time>
      </trkpt>
      <trkpt lat="48.91604" lon="2.10599">
        <ele>125</ele>
        <time>2016-05-05T09:38:48.000Z</time>
      </trkpt>
      <trkpt lat="48.91604" lon="2.10599">
        <ele>125</ele>
        <time>2016-05-05T09:38:50.000Z</time>
      </trkpt>
      <trkpt lat="48.91604" lon="2.10599">
        <ele>125</ele>
        <time>2016-05-05T09:38:52.000Z</time>
      </trkpt>
      <trkpt lat="48.91615" lon="2.10603">
        <ele>124</ele>
        <time>2016-05-05T09:38:56.000Z</time>
      </trkpt>
      <trkpt lat="48.91615" lon="2.10603">
        <ele>124</ele>
        <time>2016-05-05T09:39:02.000Z</time>
      </trkpt>
      <trkpt lat="48.91615" lon="2.10603">
        <ele>124</ele>
        <time>2016-05-05T09:39:04.000Z</time>
      </trkpt>
      <trkpt lat="48.91624" lon="2.10607">
        <ele>125</ele>
        <time>2016-05-05T09:39:06.000Z</time>
      </trkpt>
      <trkpt lat="48.91624" lon="2.10607">
        <ele>125</ele>
        <time>2016-05-05T09:39:08.000Z</time>
      </trkpt>
      <trkpt lat="48.91634" lon="2.10611">
        <ele>125</ele>
        <time>2016-05-05T09:39:14.000Z</time>
      </trkpt>
      <trkpt lat="48.91634" lon="2.10611">
        <ele>125</ele>
        <time>2016-05-05T09:39:16.000Z</time>
      </trkpt>
      <trkpt lat="48.91634" lon="2.10611">
        <ele>125</ele>
        <time>2016-05-05T09:39:18.000Z</time>
      </trkpt>
      <trkpt lat="48.91634" lon="2.10611">
        <ele>125</ele>
        <time>2016-05-05T09:39:20.000Z</time>
      </trkpt>
      <trkpt lat="48.91642" lon="2.1062">
        <ele>124</ele>
        <time>2016-05-05T09:39:22.000Z</time>
      </trkpt>
      <trkpt lat="48.91642" lon="2.1062">
        <ele>124</ele>
        <time>2016-05-05T09:39:24.000Z</time>
      </trkpt>
      <trkpt lat="48.91642" lon="2.1062">
        <ele>124</ele>
        <time>2016-05-05T09:39:26.000Z</time>
      </trkpt>
      <trkpt lat="48.91645" lon="2.10629">
        <ele>124</ele>
        <time>2016-05-05T09:39:30.000Z</time>
      </trkpt>
      <trkpt lat="48.91645" lon="2.10629">
        <ele>124</ele>
        <time>2016-05-05T09:39:32.000Z</time>
      </trkpt>
      <trkpt lat="48.91645" lon="2.10629">
        <ele>124</ele>
        <time>2016-05-05T09:39:34.000Z</time>
      </trkpt>
      <trkpt lat="48.91645" lon="2.10629">
        <ele>124</ele>
        <time>2016-05-05T09:39:36.000Z</time>
      </trkpt>
      <trkpt lat="48.91655" lon="2.10635">
        <ele>124</ele>
        <time>2016-05-05T09:39:40.000Z</time>
      </trkpt>
      <trkpt lat="48.91659" lon="2.10638">
        <ele>123</ele>
        <time>2016-05-05T09:39:50.000Z</time>
      </trkpt>
      <trkpt lat="48.91659" lon="2.10638">
        <ele>123</ele>
        <time>2016-05-05T09:39:52.000Z</time>
      </trkpt>
      <trkpt lat="48.91659" lon="2.10638">
        <ele>123</ele>
        <time>2016-05-05T09:39:54.000Z</time>
      </trkpt>
      <trkpt lat="48.91663" lon="2.10643">
        <ele>123</ele>
        <time>2016-05-05T09:39:56.000Z</time>
      </trkpt>
      <trkpt lat="48.91666" lon="2.10647">
        <ele>123</ele>
        <time>2016-05-05T09:40:00.000Z</time>
      </trkpt>
      <trkpt lat="48.91671" lon="2.10651">
        <ele>123</ele>
        <time>2016-05-05T09:40:06.000Z</time>
      </trkpt>
      <trkpt lat="48.91676" lon="2.10654">
        <ele>122</ele>
        <time>2016-05-05T09:40:10.000Z</time>
      </trkpt>
      <trkpt lat="48.9168" lon="2.10658">
        <ele>122</ele>
        <time>2016-05-05T09:40:14.000Z</time>
      </trkpt>
      <trkpt lat="48.9168" lon="2.10658">
        <ele>122</ele>
        <time>2016-05-05T09:40:16.000Z</time>
      </trkpt>
      <trkpt lat="48.9168" lon="2.10658">
        <ele>122</ele>
        <time>2016-05-05T09:40:18.000Z</time>
      </trkpt>
      <trkpt lat="48.9168" lon="2.10658">
        <ele>122</ele>
        <time>2016-05-05T09:40:20.000Z</time>
      </trkpt>
      <trkpt lat="48.9168" lon="2.10658">
        <ele>122</ele>
        <time>2016-05-05T09:40:22.000Z</time>
      </trkpt>
      <trkpt lat="48.91684" lon="2.10662">
        <ele>122</ele>
        <time>2016-05-05T09:40:24.000Z</time>
      </trkpt>
      <trkpt lat="48.91684" lon="2.10662">
        <ele>122</ele>
        <time>2016-05-05T09:40:26.000Z</time>
      </trkpt>
      <trkpt lat="48.91684" lon="2.10662">
        <ele>122</ele>
        <time>2016-05-05T09:40:28.000Z</time>
      </trkpt>
      <trkpt lat="48.91688" lon="2.10668">
        <ele>122</ele>
        <time>2016-05-05T09:40:30.000Z</time>
      </trkpt>
      <trkpt lat="48.91692" lon="2.10673">
        <ele>122</ele>
        <time>2016-05-05T09:40:32.000Z</time>
      </trkpt>
      <trkpt lat="48.91694" lon="2.10676">
        <ele>122</ele>
        <time>2016-05-05T09:40:34.000Z</time>
      </trkpt>
      <trkpt lat="48.917" lon="2.10678">
        <ele>121</ele>
        <time>2016-05-05T09:40:40.000Z</time>
      </trkpt>
      <trkpt lat="48.91705" lon="2.1068">
        <ele>120</ele>
        <time>2016-05-05T09:40:44.000Z</time>
      </trkpt>
      <trkpt lat="48.9171" lon="2.10681">
        <ele>120</ele>
        <time>2016-05-05T09:40:48.000Z</time>
      </trkpt>
      <trkpt lat="48.91714" lon="2.10683">
        <ele>120</ele>
        <time>2016-05-05T09:40:50.000Z</time>
      </trkpt>
      <trkpt lat="48.91719" lon="2.10687">
        <ele>120</ele>
        <time>2016-05-05T09:40:56.000Z</time>
      </trkpt>
      <trkpt lat="48.91723" lon="2.10691">
        <ele>119</ele>
        <time>2016-05-05T09:40:58.000Z</time>
      </trkpt>
      <trkpt lat="48.91727" lon="2.10694">
        <ele>119</ele>
        <time>2016-05-05T09:41:00.000Z</time>
      </trkpt>
      <trkpt lat="48.91727" lon="2.10694">
        <ele>119</ele>
        <time>2016-05-05T09:41:02.000Z</time>
      </trkpt>
      <trkpt lat="48.91727" lon="2.10694">
        <ele>119</ele>
        <time>2016-05-05T09:41:04.000Z</time>
      </trkpt>
      <trkpt lat="48.91731" lon="2.10698">
        <ele>119</ele>
        <time>2016-05-05T09:41:06.000Z</time>
      </trkpt>
      <trkpt lat="48.91731" lon="2.10698">
        <ele>119</ele>
        <time>2016-05-05T09:41:08.000Z</time>
      </trkpt>
      <trkpt lat="48.91734" lon="2.107">
        <ele>119</ele>
        <time>2016-05-05T09:41:10.000Z</time>
      </trkpt>
      <trkpt lat="48.91734" lon="2.107">
        <ele>119</ele>
        <time>2016-05-05T09:41:12.000Z</time>
      </trkpt>
      <trkpt lat="48.91739" lon="2.10702">
        <ele>119</ele>
        <time>2016-05-05T09:41:16.000Z</time>
      </trkpt>
      <trkpt lat="48.91742" lon="2.10703">
        <ele>119</ele>
        <time>2016-05-05T09:41:18.000Z</time>
      </trkpt>
      <trkpt lat="48.91742" lon="2.10703">
        <ele>119</ele>
        <time>2016-05-05T09:41:20.000Z</time>
      </trkpt>
      <trkpt lat="48.91742" lon="2.10703">
        <ele>119</ele>
        <time>2016-05-05T09:41:22.000Z</time>
      </trkpt>
      <trkpt lat="48.91742" lon="2.10703">
        <ele>119</ele>
        <time>2016-05-05T09:41:24.000Z</time>
      </trkpt>
      <trkpt lat="48.91746" lon="2.10709">
        <ele>119</ele>
        <time>2016-05-05T09:41:26.000Z</time>
      </trkpt>
      <trkpt lat="48.91746" lon="2.10709">
        <ele>119</ele>
        <time>2016-05-05T09:41:28.000Z</time>
      </trkpt>
      <trkpt lat="48.91746" lon="2.10709">
        <ele>119</ele>
        <time>2016-05-05T09:41:30.000Z</time>
      </trkpt>
      <trkpt lat="48.9175" lon="2.10714">
        <ele>120</ele>
        <time>2016-05-05T09:41:32.000Z</time>
      </trkpt>
      <trkpt lat="48.91753" lon="2.10717">
        <ele>120</ele>
        <time>2016-05-05T09:41:34.000Z</time>
      </trkpt>
      <trkpt lat="48.91758" lon="2.10719">
        <ele>121</ele>
        <time>2016-05-05T09:41:40.000Z</time>
      </trkpt>
      <trkpt lat="48.91762" lon="2.10721">
        <ele>121</ele>
        <time>2016-05-05T09:41:42.000Z</time>
      </trkpt>
      <trkpt lat="48.91767" lon="2.10722">
        <ele>121</ele>
        <time>2016-05-05T09:41:48.000Z</time>
      </trkpt>
      <trkpt lat="48.91767" lon="2.10722">
        <ele>121</ele>
        <time>2016-05-05T09:41:50.000Z</time>
      </trkpt>
      <trkpt lat="48.91772" lon="2.10723">
        <ele>121</ele>
        <time>2016-05-05T09:41:52.000Z</time>
      </trkpt>
      <trkpt lat="48.91772" lon="2.10723">
        <ele>121</ele>
        <time>2016-05-05T09:41:54.000Z</time>
      </trkpt>
      <trkpt lat="48.91778" lon="2.10725">
        <ele>121</ele>
        <time>2016-05-05T09:41:56.000Z</time>
      </trkpt>
      <trkpt lat="48.91778" lon="2.10725">
        <ele>121</ele>
        <time>2016-05-05T09:41:58.000Z</time>
      </trkpt>
      <trkpt lat="48.91783" lon="2.10727">
        <ele>121</ele>
        <time>2016-05-05T09:42:00.000Z</time>
      </trkpt>
      <trkpt lat="48.91783" lon="2.10727">
        <ele>121</ele>
        <time>2016-05-05T09:42:02.000Z</time>
      </trkpt>
      <trkpt lat="48.91783" lon="2.10727">
        <ele>121</ele>
        <time>2016-05-05T09:42:04.000Z</time>
      </trkpt>
      <trkpt lat="48.91788" lon="2.1073">
        <ele>121</ele>
        <time>2016-05-05T09:42:06.000Z</time>
      </trkpt>
      <trkpt lat="48.91788" lon="2.1073">
        <ele>121</ele>
        <time>2016-05-05T09:42:08.000Z</time>
      </trkpt>
      <trkpt lat="48.91797" lon="2.10733">
        <ele>121</ele>
        <time>2016-05-05T09:42:16.000Z</time>
      </trkpt>
      <trkpt lat="48.91803" lon="2.10736">
        <ele>121</ele>
        <time>2016-05-05T09:42:18.000Z</time>
      </trkpt>
      <trkpt lat="48.91808" lon="2.10738">
        <ele>120</ele>
        <time>2016-05-05T09:42:20.000Z</time>
      </trkpt>
      <trkpt lat="48.91812" lon="2.1074">
        <ele>120</ele>
        <time>2016-05-05T09:42:22.000Z</time>
      </trkpt>
      <trkpt lat="48.91815" lon="2.10743">
        <ele>120</ele>
        <time>2016-05-05T09:42:24.000Z</time>
      </trkpt>
      <trkpt lat="48.91822" lon="2.10751">
        <ele>120</ele>
        <time>2016-05-05T09:42:26.000Z</time>
      </trkpt>
      <trkpt lat="48.91822" lon="2.10751">
        <ele>120</ele>
        <time>2016-05-05T09:42:28.000Z</time>
      </trkpt>
      <trkpt lat="48.91822" lon="2.10751">
        <ele>120</ele>
        <time>2016-05-05T09:42:30.000Z</time>
      </trkpt>
      <trkpt lat="48.91822" lon="2.10751">
        <ele>120</ele>
        <time>2016-05-05T09:42:32.000Z</time>
      </trkpt>
      <trkpt lat="48.91822" lon="2.10751">
        <ele>120</ele>
        <time>2016-05-05T09:42:34.000Z</time>
      </trkpt>
      <trkpt lat="48.91822" lon="2.10751">
        <ele>120</ele>
        <time>2016-05-05T09:42:44.000Z</time>
      </trkpt>
      <trkpt lat="48.91822" lon="2.10751">
        <ele>120</ele>
        <time>2016-05-05T09:42:46.000Z</time>
      </trkpt>
      <trkpt lat="48.91816" lon="2.1078">
        <ele>116</ele>
        <time>2016-05-05T09:43:06.000Z</time>
      </trkpt>
      <trkpt lat="48.91816" lon="2.1078">
        <ele>116</ele>
        <time>2016-05-05T09:43:08.000Z</time>
      </trkpt>
      <trkpt lat="48.91816" lon="2.1078">
        <ele>116</ele>
        <time>2016-05-05T09:43:10.000Z</time>
      </trkpt>
      <trkpt lat="48.91816" lon="2.1078">
        <ele>116</ele>
        <time>2016-05-05T09:43:12.000Z</time>
      </trkpt>
      <trkpt lat="48.91816" lon="2.1078">
        <ele>116</ele>
        <time>2016-05-05T09:43:14.000Z</time>
      </trkpt>
      <trkpt lat="48.91816" lon="2.1078">
        <ele>116</ele>
        <time>2016-05-05T09:43:16.000Z</time>
      </trkpt>
      <trkpt lat="48.91816" lon="2.1078">
        <ele>116</ele>
        <time>2016-05-05T09:43:18.000Z</time>
      </trkpt>
      <trkpt lat="48.91822" lon="2.10776">
        <ele>120</ele>
        <time>2016-05-05T09:45:26.000Z</time>
      </trkpt>
      <trkpt lat="48.91826" lon="2.10775">
        <ele>120</ele>
        <time>2016-05-05T09:45:28.000Z</time>
      </trkpt>
      <trkpt lat="48.91826" lon="2.10775">
        <ele>120</ele>
        <time>2016-05-05T09:45:30.000Z</time>
      </trkpt>
      <trkpt lat="48.91829" lon="2.10777">
        <ele>119</ele>
        <time>2016-05-05T09:45:32.000Z</time>
      </trkpt>
      <trkpt lat="48.91832" lon="2.1078">
        <ele>119</ele>
        <time>2016-05-05T09:45:34.000Z</time>
      </trkpt>
      <trkpt lat="48.91834" lon="2.10784">
        <ele>119</ele>
        <time>2016-05-05T09:45:38.000Z</time>
      </trkpt>
      <trkpt lat="48.91837" lon="2.10788">
        <ele>119</ele>
        <time>2016-05-05T09:45:40.000Z</time>
      </trkpt>
      <trkpt lat="48.91839" lon="2.10792">
        <ele>119</ele>
        <time>2016-05-05T09:45:44.000Z</time>
      </trkpt>
      <trkpt lat="48.91841" lon="2.10796">
        <ele>119</ele>
        <time>2016-05-05T09:45:46.000Z</time>
      </trkpt>
      <trkpt lat="48.91841" lon="2.10796">
        <ele>119</ele>
        <time>2016-05-05T09:45:48.000Z</time>
      </trkpt>
      <trkpt lat="48.91843" lon="2.10803">
        <ele>119</ele>
        <time>2016-05-05T09:45:50.000Z</time>
      </trkpt>
      <trkpt lat="48.91845" lon="2.10808">
        <ele>119</ele>
        <time>2016-05-05T09:45:52.000Z</time>
      </trkpt>
      <trkpt lat="48.91846" lon="2.10813">
        <ele>119</ele>
        <time>2016-05-05T09:45:54.000Z</time>
      </trkpt>
      <trkpt lat="48.91846" lon="2.10818">
        <ele>120</ele>
        <time>2016-05-05T09:45:58.000Z</time>
      </trkpt>
      <trkpt lat="48.91847" lon="2.10823">
        <ele>119</ele>
        <time>2016-05-05T09:46:00.000Z</time>
      </trkpt>
      <trkpt lat="48.91848" lon="2.10827">
        <ele>119</ele>
        <time>2016-05-05T09:46:02.000Z</time>
      </trkpt>
      <trkpt lat="48.9185" lon="2.10832">
        <ele>119</ele>
        <time>2016-05-05T09:46:06.000Z</time>
      </trkpt>
      <trkpt lat="48.91851" lon="2.10836">
        <ele>119</ele>
        <time>2016-05-05T09:46:08.000Z</time>
      </trkpt>
      <trkpt lat="48.91851" lon="2.10836">
        <ele>119</ele>
        <time>2016-05-05T09:46:10.000Z</time>
      </trkpt>
      <trkpt lat="48.91852" lon="2.10842">
        <ele>118</ele>
        <time>2016-05-05T09:46:12.000Z</time>
      </trkpt>
      <trkpt lat="48.91853" lon="2.10846">
        <ele>118</ele>
        <time>2016-05-05T09:46:14.000Z</time>
      </trkpt>
      <trkpt lat="48.91854" lon="2.10852">
        <ele>118</ele>
        <time>2016-05-05T09:46:18.000Z</time>
      </trkpt>
      <trkpt lat="48.91854" lon="2.10852">
        <ele>118</ele>
        <time>2016-05-05T09:46:20.000Z</time>
      </trkpt>
      <trkpt lat="48.91854" lon="2.10852">
        <ele>118</ele>
        <time>2016-05-05T09:46:22.000Z</time>
      </trkpt>
      <trkpt lat="48.91848" lon="2.10831">
        <ele>116</ele>
        <time>2016-05-05T09:47:09.000Z</time>
      </trkpt>
      <trkpt lat="48.91844" lon="2.10819">
        <ele>116</ele>
        <time>2016-05-05T09:47:11.000Z</time>
      </trkpt>
      <trkpt lat="48.91842" lon="2.10812">
        <ele>116</ele>
        <time>2016-05-05T09:47:13.000Z</time>
      </trkpt>
      <trkpt lat="48.91841" lon="2.10806">
        <ele>116</ele>
        <time>2016-05-05T09:47:15.000Z</time>
      </trkpt>
      <trkpt lat="48.9184" lon="2.10801">
        <ele>115</ele>
        <time>2016-05-05T09:47:17.000Z</time>
      </trkpt>
      <trkpt lat="48.91838" lon="2.10792">
        <ele>115</ele>
        <time>2016-05-05T09:47:19.000Z</time>
      </trkpt>
      <trkpt lat="48.91837" lon="2.10783">
        <ele>115</ele>
        <time>2016-05-05T09:47:25.000Z</time>
      </trkpt>
      <trkpt lat="48.91837" lon="2.10783">
        <ele>115</ele>
        <time>2016-05-05T09:47:33.000Z</time>
      </trkpt>
      <trkpt lat="48.91837" lon="2.10783">
        <ele>115</ele>
        <time>2016-05-05T09:47:35.000Z</time>
      </trkpt>
      <trkpt lat="48.91837" lon="2.10783">
        <ele>115</ele>
        <time>2016-05-05T09:47:37.000Z</time>
      </trkpt>
      <trkpt lat="48.91837" lon="2.10783">
        <ele>115</ele>
        <time>2016-05-05T09:47:39.000Z</time>
      </trkpt>
      <trkpt lat="48.9185" lon="2.10788">
        <ele>113</ele>
        <time>2016-05-05T09:47:47.000Z</time>
      </trkpt>
      <trkpt lat="48.9185" lon="2.10788">
        <ele>113</ele>
        <time>2016-05-05T09:47:49.000Z</time>
      </trkpt>
      <trkpt lat="48.9185" lon="2.10788">
        <ele>113</ele>
        <time>2016-05-05T09:47:51.000Z</time>
      </trkpt>
      <trkpt lat="48.9185" lon="2.10788">
        <ele>113</ele>
        <time>2016-05-05T09:47:53.000Z</time>
      </trkpt>
      <trkpt lat="48.9185" lon="2.10788">
        <ele>113</ele>
        <time>2016-05-05T09:47:55.000Z</time>
      </trkpt>
      <trkpt lat="48.91863" lon="2.1078">
        <ele>114</ele>
        <time>2016-05-05T09:47:59.000Z</time>
      </trkpt>
      <trkpt lat="48.9187" lon="2.10771">
        <ele>114</ele>
        <time>2016-05-05T09:48:05.000Z</time>
      </trkpt>
      <trkpt lat="48.9187" lon="2.10771">
        <ele>114</ele>
        <time>2016-05-05T09:48:09.000Z</time>
      </trkpt>
      <trkpt lat="48.9187" lon="2.10771">
        <ele>114</ele>
        <time>2016-05-05T09:48:11.000Z</time>
      </trkpt>
      <trkpt lat="48.9187" lon="2.10771">
        <ele>114</ele>
        <time>2016-05-05T09:48:13.000Z</time>
      </trkpt>
      <trkpt lat="48.9187" lon="2.10771">
        <ele>114</ele>
        <time>2016-05-05T09:48:15.000Z</time>
      </trkpt>
      <trkpt lat="48.91884" lon="2.10757">
        <ele>115</ele>
        <time>2016-05-05T09:48:29.000Z</time>
      </trkpt>
      <trkpt lat="48.91892" lon="2.10748">
        <ele>114</ele>
        <time>2016-05-05T09:48:31.000Z</time>
      </trkpt>
      <trkpt lat="48.91898" lon="2.10744">
        <ele>114</ele>
        <time>2016-05-05T09:48:33.000Z</time>
      </trkpt>
      <trkpt lat="48.91903" lon="2.10741">
        <ele>114</ele>
        <time>2016-05-05T09:48:35.000Z</time>
      </trkpt>
      <trkpt lat="48.91908" lon="2.10738">
        <ele>114</ele>
        <time>2016-05-05T09:48:39.000Z</time>
      </trkpt>
      <trkpt lat="48.91912" lon="2.10732">
        <ele>113</ele>
        <time>2016-05-05T09:48:45.000Z</time>
      </trkpt>
      <trkpt lat="48.91912" lon="2.10732">
        <ele>113</ele>
        <time>2016-05-05T09:48:47.000Z</time>
      </trkpt>
      <trkpt lat="48.91916" lon="2.10729">
        <ele>113</ele>
        <time>2016-05-05T09:48:49.000Z</time>
      </trkpt>
      <trkpt lat="48.91916" lon="2.10729">
        <ele>113</ele>
        <time>2016-05-05T09:48:51.000Z</time>
      </trkpt>
      <trkpt lat="48.91916" lon="2.10729">
        <ele>113</ele>
        <time>2016-05-05T09:48:53.000Z</time>
      </trkpt>
      <trkpt lat="48.91921" lon="2.10726">
        <ele>112</ele>
        <time>2016-05-05T09:48:57.000Z</time>
      </trkpt>
      <trkpt lat="48.91925" lon="2.10724">
        <ele>111</ele>
        <time>2016-05-05T09:48:59.000Z</time>
      </trkpt>
      <trkpt lat="48.91925" lon="2.10724">
        <ele>111</ele>
        <time>2016-05-05T09:49:03.000Z</time>
      </trkpt>
      <trkpt lat="48.9193" lon="2.10723">
        <ele>111</ele>
        <time>2016-05-05T09:49:05.000Z</time>
      </trkpt>
      <trkpt lat="48.91935" lon="2.10721">
        <ele>111</ele>
        <time>2016-05-05T09:49:07.000Z</time>
      </trkpt>
      <trkpt lat="48.91939" lon="2.10718">
        <ele>111</ele>
        <time>2016-05-05T09:49:09.000Z</time>
      </trkpt>
      <trkpt lat="48.91942" lon="2.10716">
        <ele>111</ele>
        <time>2016-05-05T09:49:11.000Z</time>
      </trkpt>
      <trkpt lat="48.91945" lon="2.10711">
        <ele>111</ele>
        <time>2016-05-05T09:49:15.000Z</time>
      </trkpt>
      <trkpt lat="48.91945" lon="2.10711">
        <ele>111</ele>
        <time>2016-05-05T09:49:17.000Z</time>
      </trkpt>
      <trkpt lat="48.91949" lon="2.10708">
        <ele>110</ele>
        <time>2016-05-05T09:49:21.000Z</time>
      </trkpt>
      <trkpt lat="48.91949" lon="2.10708">
        <ele>110</ele>
        <time>2016-05-05T09:49:25.000Z</time>
      </trkpt>
      <trkpt lat="48.91954" lon="2.10707">
        <ele>109</ele>
        <time>2016-05-05T09:49:27.000Z</time>
      </trkpt>
      <trkpt lat="48.91954" lon="2.10707">
        <ele>109</ele>
        <time>2016-05-05T09:49:29.000Z</time>
      </trkpt>
      <trkpt lat="48.91954" lon="2.10707">
        <ele>109</ele>
        <time>2016-05-05T09:49:31.000Z</time>
      </trkpt>
      <trkpt lat="48.91954" lon="2.10707">
        <ele>109</ele>
        <time>2016-05-05T09:49:33.000Z</time>
      </trkpt>
      <trkpt lat="48.91958" lon="2.10708">
        <ele>109</ele>
        <time>2016-05-05T09:49:35.000Z</time>
      </trkpt>
      <trkpt lat="48.91963" lon="2.1071">
        <ele>109</ele>
        <time>2016-05-05T09:49:41.000Z</time>
      </trkpt>
      <trkpt lat="48.91963" lon="2.1071">
        <ele>109</ele>
        <time>2016-05-05T09:49:43.000Z</time>
      </trkpt>
      <trkpt lat="48.91969" lon="2.10713">
        <ele>109</ele>
        <time>2016-05-05T09:49:45.000Z</time>
      </trkpt>
      <trkpt lat="48.91969" lon="2.10713">
        <ele>109</ele>
        <time>2016-05-05T09:49:47.000Z</time>
      </trkpt>
      <trkpt lat="48.91973" lon="2.10715">
        <ele>108</ele>
        <time>2016-05-05T09:49:49.000Z</time>
      </trkpt>
      <trkpt lat="48.91976" lon="2.1072">
        <ele>108</ele>
        <time>2016-05-05T09:49:55.000Z</time>
      </trkpt>
      <trkpt lat="48.9198" lon="2.10722">
        <ele>108</ele>
        <time>2016-05-05T09:49:59.000Z</time>
      </trkpt>
      <trkpt lat="48.9198" lon="2.10722">
        <ele>108</ele>
        <time>2016-05-05T09:50:01.000Z</time>
      </trkpt>
      <trkpt lat="48.91985" lon="2.10726">
        <ele>108</ele>
        <time>2016-05-05T09:50:03.000Z</time>
      </trkpt>
      <trkpt lat="48.91985" lon="2.10726">
        <ele>108</ele>
        <time>2016-05-05T09:50:05.000Z</time>
      </trkpt>
      <trkpt lat="48.9199" lon="2.10731">
        <ele>108</ele>
        <time>2016-05-05T09:50:07.000Z</time>
      </trkpt>
      <trkpt lat="48.9199" lon="2.10731">
        <ele>108</ele>
        <time>2016-05-05T09:50:09.000Z</time>
      </trkpt>
      <trkpt lat="48.91994" lon="2.10735">
        <ele>108</ele>
        <time>2016-05-05T09:50:11.000Z</time>
      </trkpt>
      <trkpt lat="48.91994" lon="2.10735">
        <ele>108</ele>
        <time>2016-05-05T09:50:13.000Z</time>
      </trkpt>
      <trkpt lat="48.91999" lon="2.10739">
        <ele>107</ele>
        <time>2016-05-05T09:50:15.000Z</time>
      </trkpt>
      <trkpt lat="48.91999" lon="2.10739">
        <ele>107</ele>
        <time>2016-05-05T09:50:21.000Z</time>
      </trkpt>
      <trkpt lat="48.91999" lon="2.10739">
        <ele>107</ele>
        <time>2016-05-05T09:50:23.000Z</time>
      </trkpt>
      <trkpt lat="48.92016" lon="2.10738">
        <ele>98</ele>
        <time>2016-05-05T09:51:23.000Z</time>
      </trkpt>
      <trkpt lat="48.92024" lon="2.10737">
        <ele>98</ele>
        <time>2016-05-05T09:51:25.000Z</time>
      </trkpt>
      <trkpt lat="48.92027" lon="2.10732">
        <ele>97</ele>
        <time>2016-05-05T09:51:31.000Z</time>
      </trkpt>
      <trkpt lat="48.92027" lon="2.10732">
        <ele>97</ele>
        <time>2016-05-05T09:51:33.000Z</time>
      </trkpt>
      <trkpt lat="48.92028" lon="2.10725">
        <ele>97</ele>
        <time>2016-05-05T09:51:35.000Z</time>
      </trkpt>
      <trkpt lat="48.92028" lon="2.10725">
        <ele>97</ele>
        <time>2016-05-05T09:51:37.000Z</time>
      </trkpt>
      <trkpt lat="48.92028" lon="2.10725">
        <ele>97</ele>
        <time>2016-05-05T09:51:39.000Z</time>
      </trkpt>
      <trkpt lat="48.92028" lon="2.10725">
        <ele>97</ele>
        <time>2016-05-05T09:51:41.000Z</time>
      </trkpt>
      <trkpt lat="48.92028" lon="2.10725">
        <ele>97</ele>
        <time>2016-05-05T09:51:43.000Z</time>
      </trkpt>
      <trkpt lat="48.92027" lon="2.10717">
        <ele>96</ele>
        <time>2016-05-05T09:51:45.000Z</time>
      </trkpt>
      <trkpt lat="48.92027" lon="2.10717">
        <ele>96</ele>
        <time>2016-05-05T09:51:47.000Z</time>
      </trkpt>
      <trkpt lat="48.92026" lon="2.10708">
        <ele>96</ele>
        <time>2016-05-05T09:51:49.000Z</time>
      </trkpt>
      <trkpt lat="48.92025" lon="2.10702">
        <ele>96</ele>
        <time>2016-05-05T09:51:51.000Z</time>
      </trkpt>
      <trkpt lat="48.92024" lon="2.10698">
        <ele>95</ele>
        <time>2016-05-05T09:51:53.000Z</time>
      </trkpt>
      <trkpt lat="48.92024" lon="2.10698">
        <ele>95</ele>
        <time>2016-05-05T09:51:57.000Z</time>
      </trkpt>
      <trkpt lat="48.92024" lon="2.10698">
        <ele>95</ele>
        <time>2016-05-05T09:51:59.000Z</time>
      </trkpt>
      <trkpt lat="48.92023" lon="2.10691">
        <ele>95</ele>
        <time>2016-05-05T09:52:01.000Z</time>
      </trkpt>
      <trkpt lat="48.92023" lon="2.10691">
        <ele>95</ele>
        <time>2016-05-05T09:52:07.000Z</time>
      </trkpt>
      <trkpt lat="48.92025" lon="2.10682">
        <ele>96</ele>
        <time>2016-05-05T09:52:13.000Z</time>
      </trkpt>
      <trkpt lat="48.92026" lon="2.10675">
        <ele>97</ele>
        <time>2016-05-05T09:52:18.000Z</time>
      </trkpt>
      <trkpt lat="48.92026" lon="2.10675">
        <ele>97</ele>
        <time>2016-05-05T09:52:20.000Z</time>
      </trkpt>
      <trkpt lat="48.92026" lon="2.10675">
        <ele>97</ele>
        <time>2016-05-05T09:52:22.000Z</time>
      </trkpt>
      <trkpt lat="48.92028" lon="2.10667">
        <ele>98</ele>
        <time>2016-05-05T09:52:24.000Z</time>
      </trkpt>
      <trkpt lat="48.9203" lon="2.10662">
        <ele>98</ele>
        <time>2016-05-05T09:52:26.000Z</time>
      </trkpt>
      <trkpt lat="48.92032" lon="2.10655">
        <ele>99</ele>
        <time>2016-05-05T09:52:30.000Z</time>
      </trkpt>
      <trkpt lat="48.92037" lon="2.1065">
        <ele>100</ele>
        <time>2016-05-05T09:52:39.000Z</time>
      </trkpt>
      <trkpt lat="48.92042" lon="2.10646">
        <ele>101</ele>
        <time>2016-05-05T09:52:43.000Z</time>
      </trkpt>
      <trkpt lat="48.92047" lon="2.10643">
        <ele>101</ele>
        <time>2016-05-05T09:52:47.000Z</time>
      </trkpt>
      <trkpt lat="48.92051" lon="2.10642">
        <ele>101</ele>
        <time>2016-05-05T09:52:49.000Z</time>
      </trkpt>
      <trkpt lat="48.92054" lon="2.1064">
        <ele>101</ele>
        <time>2016-05-05T09:52:51.000Z</time>
      </trkpt>
      <trkpt lat="48.92059" lon="2.10636">
        <ele>101</ele>
        <time>2016-05-05T09:52:55.000Z</time>
      </trkpt>
      <trkpt lat="48.92059" lon="2.10636">
        <ele>101</ele>
        <time>2016-05-05T09:52:57.000Z</time>
      </trkpt>
      <trkpt lat="48.92065" lon="2.1063">
        <ele>102</ele>
        <time>2016-05-05T09:52:59.000Z</time>
      </trkpt>
      <trkpt lat="48.92065" lon="2.1063">
        <ele>102</ele>
        <time>2016-05-05T09:53:01.000Z</time>
      </trkpt>
      <trkpt lat="48.9207" lon="2.10625">
        <ele>102</ele>
        <time>2016-05-05T09:53:03.000Z</time>
      </trkpt>
      <trkpt lat="48.9207" lon="2.10625">
        <ele>102</ele>
        <time>2016-05-05T09:53:05.000Z</time>
      </trkpt>
      <trkpt lat="48.9207" lon="2.10625">
        <ele>102</ele>
        <time>2016-05-05T09:53:07.000Z</time>
      </trkpt>
      <trkpt lat="48.92076" lon="2.10617">
        <ele>103</ele>
        <time>2016-05-05T09:53:09.000Z</time>
      </trkpt>
      <trkpt lat="48.92085" lon="2.10609">
        <ele>103</ele>
        <time>2016-05-05T09:53:17.000Z</time>
      </trkpt>
      <trkpt lat="48.92085" lon="2.10609">
        <ele>103</ele>
        <time>2016-05-05T09:53:19.000Z</time>
      </trkpt>
      <trkpt lat="48.92085" lon="2.10609">
        <ele>103</ele>
        <time>2016-05-05T09:53:21.000Z</time>
      </trkpt>
      <trkpt lat="48.92085" lon="2.10609">
        <ele>103</ele>
        <time>2016-05-05T09:53:23.000Z</time>
      </trkpt>
      <trkpt lat="48.92085" lon="2.10609">
        <ele>103</ele>
        <time>2016-05-05T09:53:25.000Z</time>
      </trkpt>
      <trkpt lat="48.92094" lon="2.10604">
        <ele>103</ele>
        <time>2016-05-05T09:53:41.000Z</time>
      </trkpt>
      <trkpt lat="48.92094" lon="2.10604">
        <ele>103</ele>
        <time>2016-05-05T09:53:43.000Z</time>
      </trkpt>
      <trkpt lat="48.92094" lon="2.10604">
        <ele>103</ele>
        <time>2016-05-05T09:53:45.000Z</time>
      </trkpt>
      <trkpt lat="48.92101" lon="2.10605">
        <ele>104</ele>
        <time>2016-05-05T09:53:47.000Z</time>
      </trkpt>
      <trkpt lat="48.92101" lon="2.10605">
        <ele>104</ele>
        <time>2016-05-05T09:53:55.000Z</time>
      </trkpt>
      <trkpt lat="48.92101" lon="2.10605">
        <ele>104</ele>
        <time>2016-05-05T09:53:57.000Z</time>
      </trkpt>
      <trkpt lat="48.92101" lon="2.10605">
        <ele>104</ele>
        <time>2016-05-05T09:54:23.000Z</time>
      </trkpt>
      <trkpt lat="48.92104" lon="2.106">
        <ele>108</ele>
        <time>2016-05-05T09:54:47.000Z</time>
      </trkpt>
      <trkpt lat="48.92104" lon="2.106">
        <ele>108</ele>
        <time>2016-05-05T09:54:49.000Z</time>
      </trkpt>
      <trkpt lat="48.92104" lon="2.106">
        <ele>108</ele>
        <time>2016-05-05T09:54:51.000Z</time>
      </trkpt>
      <trkpt lat="48.92107" lon="2.10595">
        <ele>108</ele>
        <time>2016-05-05T09:54:53.000Z</time>
      </trkpt>
      <trkpt lat="48.92111" lon="2.10591">
        <ele>108</ele>
        <time>2016-05-05T09:54:59.000Z</time>
      </trkpt>
      <trkpt lat="48.92115" lon="2.10589">
        <ele>108</ele>
        <time>2016-05-05T09:55:01.000Z</time>
      </trkpt>
      <trkpt lat="48.92118" lon="2.10586">
        <ele>108</ele>
        <time>2016-05-05T09:55:03.000Z</time>
      </trkpt>
      <trkpt lat="48.92118" lon="2.10586">
        <ele>108</ele>
        <time>2016-05-05T09:55:05.000Z</time>
      </trkpt>
      <trkpt lat="48.92122" lon="2.10583">
        <ele>109</ele>
        <time>2016-05-05T09:55:07.000Z</time>
      </trkpt>
      <trkpt lat="48.92122" lon="2.10583">
        <ele>109</ele>
        <time>2016-05-05T09:55:09.000Z</time>
      </trkpt>
      <trkpt lat="48.92122" lon="2.10583">
        <ele>109</ele>
        <time>2016-05-05T09:55:11.000Z</time>
      </trkpt>
      <trkpt lat="48.92126" lon="2.10579">
        <ele>109</ele>
        <time>2016-05-05T09:55:13.000Z</time>
      </trkpt>
      <trkpt lat="48.92131" lon="2.10576">
        <ele>110</ele>
        <time>2016-05-05T09:55:17.000Z</time>
      </trkpt>
      <trkpt lat="48.92136" lon="2.10576">
        <ele>110</ele>
        <time>2016-05-05T09:55:23.000Z</time>
      </trkpt>
      <trkpt lat="48.92136" lon="2.10576">
        <ele>110</ele>
        <time>2016-05-05T09:55:25.000Z</time>
      </trkpt>
      <trkpt lat="48.92136" lon="2.10576">
        <ele>110</ele>
        <time>2016-05-05T09:55:27.000Z</time>
      </trkpt>
      <trkpt lat="48.9214" lon="2.10573">
        <ele>112</ele>
        <time>2016-05-05T09:55:29.000Z</time>
      </trkpt>
      <trkpt lat="48.92145" lon="2.10571">
        <ele>112</ele>
        <time>2016-05-05T09:55:33.000Z</time>
      </trkpt>
      <trkpt lat="48.92149" lon="2.10568">
        <ele>112</ele>
        <time>2016-05-05T09:55:37.000Z</time>
      </trkpt>
      <trkpt lat="48.92149" lon="2.10568">
        <ele>112</ele>
        <time>2016-05-05T09:55:39.000Z</time>
      </trkpt>
      <trkpt lat="48.92149" lon="2.10568">
        <ele>112</ele>
        <time>2016-05-05T09:55:41.000Z</time>
      </trkpt>
      <trkpt lat="48.92152" lon="2.10562">
        <ele>112</ele>
        <time>2016-05-05T09:55:43.000Z</time>
      </trkpt>
      <trkpt lat="48.92154" lon="2.10559">
        <ele>112</ele>
        <time>2016-05-05T09:55:45.000Z</time>
      </trkpt>
      <trkpt lat="48.92154" lon="2.10559">
        <ele>112</ele>
        <time>2016-05-05T09:55:47.000Z</time>
      </trkpt>
      <trkpt lat="48.92154" lon="2.10559">
        <ele>112</ele>
        <time>2016-05-05T09:55:49.000Z</time>
      </trkpt>
      <trkpt lat="48.92154" lon="2.10559">
        <ele>112</ele>
        <time>2016-05-05T09:55:53.000Z</time>
      </trkpt>
      <trkpt lat="48.9216" lon="2.10555">
        <ele>113</ele>
        <time>2016-05-05T09:55:57.000Z</time>
      </trkpt>
      <trkpt lat="48.92163" lon="2.10553">
        <ele>113</ele>
        <time>2016-05-05T09:55:59.000Z</time>
      </trkpt>
      <trkpt lat="48.92167" lon="2.10549">
        <ele>114</ele>
        <time>2016-05-05T09:56:05.000Z</time>
      </trkpt>
      <trkpt lat="48.92172" lon="2.10544">
        <ele>114</ele>
        <time>2016-05-05T09:56:11.000Z</time>
      </trkpt>
      <trkpt lat="48.92177" lon="2.1054">
        <ele>115</ele>
        <time>2016-05-05T09:56:13.000Z</time>
      </trkpt>
      <trkpt lat="48.92181" lon="2.10537">
        <ele>115</ele>
        <time>2016-05-05T09:56:15.000Z</time>
      </trkpt>
      <trkpt lat="48.92184" lon="2.10535">
        <ele>115</ele>
        <time>2016-05-05T09:56:17.000Z</time>
      </trkpt>
      <trkpt lat="48.92184" lon="2.10535">
        <ele>115</ele>
        <time>2016-05-05T09:56:19.000Z</time>
      </trkpt>
      <trkpt lat="48.92184" lon="2.10535">
        <ele>115</ele>
        <time>2016-05-05T09:56:21.000Z</time>
      </trkpt>
      <trkpt lat="48.92189" lon="2.10531">
        <ele>115</ele>
        <time>2016-05-05T09:56:23.000Z</time>
      </trkpt>
      <trkpt lat="48.92192" lon="2.10528">
        <ele>115</ele>
        <time>2016-05-05T09:56:29.000Z</time>
      </trkpt>
      <trkpt lat="48.92192" lon="2.10528">
        <ele>115</ele>
        <time>2016-05-05T09:56:31.000Z</time>
      </trkpt>
      <trkpt lat="48.92192" lon="2.10528">
        <ele>115</ele>
        <time>2016-05-05T09:56:33.000Z</time>
      </trkpt>
      <trkpt lat="48.922" lon="2.1052">
        <ele>116</ele>
        <time>2016-05-05T09:56:45.000Z</time>
      </trkpt>
      <trkpt lat="48.92206" lon="2.10515">
        <ele>117</ele>
        <time>2016-05-05T09:56:47.000Z</time>
      </trkpt>
      <trkpt lat="48.92211" lon="2.10513">
        <ele>117</ele>
        <time>2016-05-05T09:56:49.000Z</time>
      </trkpt>
      <trkpt lat="48.92211" lon="2.10513">
        <ele>117</ele>
        <time>2016-05-05T09:56:51.000Z</time>
      </trkpt>
      <trkpt lat="48.92211" lon="2.10513">
        <ele>117</ele>
        <time>2016-05-05T09:56:53.000Z</time>
      </trkpt>
      <trkpt lat="48.92211" lon="2.10513">
        <ele>117</ele>
        <time>2016-05-05T09:56:55.000Z</time>
      </trkpt>
      <trkpt lat="48.92219" lon="2.1051">
        <ele>119</ele>
        <time>2016-05-05T09:57:01.000Z</time>
      </trkpt>
      <trkpt lat="48.92223" lon="2.10507">
        <ele>119</ele>
        <time>2016-05-05T09:57:03.000Z</time>
      </trkpt>
      <trkpt lat="48.92227" lon="2.10504">
        <ele>120</ele>
        <time>2016-05-05T09:57:05.000Z</time>
      </trkpt>
      <trkpt lat="48.92227" lon="2.10504">
        <ele>120</ele>
        <time>2016-05-05T09:57:07.000Z</time>
      </trkpt>
      <trkpt lat="48.92232" lon="2.10501">
        <ele>120</ele>
        <time>2016-05-05T09:57:09.000Z</time>
      </trkpt>
      <trkpt lat="48.92237" lon="2.10497">
        <ele>121</ele>
        <time>2016-05-05T09:57:11.000Z</time>
      </trkpt>
      <trkpt lat="48.92242" lon="2.10496">
        <ele>121</ele>
        <time>2016-05-05T09:57:15.000Z</time>
      </trkpt>
      <trkpt lat="48.92242" lon="2.10496">
        <ele>121</ele>
        <time>2016-05-05T09:57:17.000Z</time>
      </trkpt>
      <trkpt lat="48.92247" lon="2.10494">
        <ele>122</ele>
        <time>2016-05-05T09:57:19.000Z</time>
      </trkpt>
      <trkpt lat="48.92252" lon="2.10492">
        <ele>122</ele>
        <time>2016-05-05T09:57:21.000Z</time>
      </trkpt>
      <trkpt lat="48.92255" lon="2.10487">
        <ele>122</ele>
        <time>2016-05-05T09:57:25.000Z</time>
      </trkpt>
      <trkpt lat="48.92255" lon="2.10487">
        <ele>122</ele>
        <time>2016-05-05T09:57:27.000Z</time>
      </trkpt>
      <trkpt lat="48.92259" lon="2.10484">
        <ele>123</ele>
        <time>2016-05-05T09:57:29.000Z</time>
      </trkpt>
      <trkpt lat="48.92259" lon="2.10484">
        <ele>123</ele>
        <time>2016-05-05T09:57:31.000Z</time>
      </trkpt>
      <trkpt lat="48.92263" lon="2.1048">
        <ele>123</ele>
        <time>2016-05-05T09:57:33.000Z</time>
      </trkpt>
      <trkpt lat="48.92263" lon="2.1048">
        <ele>123</ele>
        <time>2016-05-05T09:57:43.000Z</time>
      </trkpt>
      <trkpt lat="48.92267" lon="2.10476">
        <ele>125</ele>
        <time>2016-05-05T09:57:45.000Z</time>
      </trkpt>
      <trkpt lat="48.92271" lon="2.10472">
        <ele>125</ele>
        <time>2016-05-05T09:57:47.000Z</time>
      </trkpt>
      <trkpt lat="48.92276" lon="2.1047">
        <ele>125</ele>
        <time>2016-05-05T09:57:49.000Z</time>
      </trkpt>
      <trkpt lat="48.92281" lon="2.10466">
        <ele>126</ele>
        <time>2016-05-05T09:57:53.000Z</time>
      </trkpt>
      <trkpt lat="48.92281" lon="2.10466">
        <ele>126</ele>
        <time>2016-05-05T09:57:55.000Z</time>
      </trkpt>
      <trkpt lat="48.92285" lon="2.10462">
        <ele>127</ele>
        <time>2016-05-05T09:57:57.000Z</time>
      </trkpt>
      <trkpt lat="48.92288" lon="2.10458">
        <ele>128</ele>
        <time>2016-05-05T09:58:09.000Z</time>
      </trkpt>
      <trkpt lat="48.92288" lon="2.10458">
        <ele>128</ele>
        <time>2016-05-05T09:58:12.000Z</time>
      </trkpt>
      <trkpt lat="48.92288" lon="2.10458">
        <ele>128</ele>
        <time>2016-05-05T09:58:14.000Z</time>
      </trkpt>
      <trkpt lat="48.92292" lon="2.10455">
        <ele>128</ele>
        <time>2016-05-05T09:58:16.000Z</time>
      </trkpt>
      <trkpt lat="48.92296" lon="2.10453">
        <ele>128</ele>
        <time>2016-05-05T09:58:18.000Z</time>
      </trkpt>
      <trkpt lat="48.923" lon="2.1045">
        <ele>128</ele>
        <time>2016-05-05T09:58:22.000Z</time>
      </trkpt>
      <trkpt lat="48.92305" lon="2.10446">
        <ele>128</ele>
        <time>2016-05-05T09:58:26.000Z</time>
      </trkpt>
      <trkpt lat="48.9231" lon="2.10442">
        <ele>127</ele>
        <time>2016-05-05T09:58:28.000Z</time>
      </trkpt>
      <trkpt lat="48.9231" lon="2.10442">
        <ele>127</ele>
        <time>2016-05-05T09:58:30.000Z</time>
      </trkpt>
      <trkpt lat="48.92315" lon="2.10438">
        <ele>127</ele>
        <time>2016-05-05T09:58:32.000Z</time>
      </trkpt>
      <trkpt lat="48.92315" lon="2.10438">
        <ele>127</ele>
        <time>2016-05-05T09:58:34.000Z</time>
      </trkpt>
      <trkpt lat="48.92319" lon="2.10432">
        <ele>126</ele>
        <time>2016-05-05T09:58:36.000Z</time>
      </trkpt>
      <trkpt lat="48.92319" lon="2.10432">
        <ele>126</ele>
        <time>2016-05-05T09:58:38.000Z</time>
      </trkpt>
      <trkpt lat="48.92319" lon="2.10432">
        <ele>126</ele>
        <time>2016-05-05T09:58:40.000Z</time>
      </trkpt>
      <trkpt lat="48.92319" lon="2.10432">
        <ele>126</ele>
        <time>2016-05-05T09:58:44.000Z</time>
      </trkpt>
      <trkpt lat="48.92319" lon="2.10432">
        <ele>126</ele>
        <time>2016-05-05T09:58:46.000Z</time>
      </trkpt>
      <trkpt lat="48.92319" lon="2.10432">
        <ele>126</ele>
        <time>2016-05-05T09:59:04.000Z</time>
      </trkpt>
      <trkpt lat="48.9234" lon="2.10406">
        <ele>125</ele>
        <time>2016-05-05T09:59:18.000Z</time>
      </trkpt>
      <trkpt lat="48.92351" lon="2.10392">
        <ele>124</ele>
        <time>2016-05-05T09:59:20.000Z</time>
      </trkpt>
      <trkpt lat="48.92357" lon="2.10384">
        <ele>124</ele>
        <time>2016-05-05T09:59:22.000Z</time>
      </trkpt>
      <trkpt lat="48.92362" lon="2.10378">
        <ele>124</ele>
        <time>2016-05-05T09:59:24.000Z</time>
      </trkpt>
      <trkpt lat="48.92367" lon="2.10373">
        <ele>124</ele>
        <time>2016-05-05T09:59:28.000Z</time>
      </trkpt>
      <trkpt lat="48.92371" lon="2.10369">
        <ele>124</ele>
        <time>2016-05-05T09:59:32.000Z</time>
      </trkpt>
      <trkpt lat="48.92371" lon="2.10369">
        <ele>124</ele>
        <time>2016-05-05T09:59:34.000Z</time>
      </trkpt>
      <trkpt lat="48.92371" lon="2.10369">
        <ele>124</ele>
        <time>2016-05-05T09:59:36.000Z</time>
      </trkpt>
      <trkpt lat="48.92373" lon="2.10363">
        <ele>123</ele>
        <time>2016-05-05T09:59:38.000Z</time>
      </trkpt>
      <trkpt lat="48.92374" lon="2.10359">
        <ele>123</ele>
        <time>2016-05-05T09:59:40.000Z</time>
      </trkpt>
      <trkpt lat="48.92374" lon="2.10359">
        <ele>123</ele>
        <time>2016-05-05T09:59:42.000Z</time>
      </trkpt>
      <trkpt lat="48.92374" lon="2.10359">
        <ele>123</ele>
        <time>2016-05-05T09:59:44.000Z</time>
      </trkpt>
      <trkpt lat="48.9237" lon="2.10353">
        <ele>116</ele>
        <time>2016-05-05T10:02:05.000Z</time>
      </trkpt>
      <trkpt lat="48.9237" lon="2.10353">
        <ele>116</ele>
        <time>2016-05-05T10:02:07.000Z</time>
      </trkpt>
      <trkpt lat="48.92375" lon="2.10348">
        <ele>117</ele>
        <time>2016-05-05T10:03:13.000Z</time>
      </trkpt>
      <trkpt lat="48.92379" lon="2.10345">
        <ele>117</ele>
        <time>2016-05-05T10:03:15.000Z</time>
      </trkpt>
      <trkpt lat="48.92381" lon="2.10344">
        <ele>117</ele>
        <time>2016-05-05T10:03:17.000Z</time>
      </trkpt>
      <trkpt lat="48.92385" lon="2.10342">
        <ele>116</ele>
        <time>2016-05-05T10:03:21.000Z</time>
      </trkpt>
      <trkpt lat="48.92387" lon="2.10341">
        <ele>116</ele>
        <time>2016-05-05T10:03:23.000Z</time>
      </trkpt>
      <trkpt lat="48.92391" lon="2.10338">
        <ele>116</ele>
        <time>2016-05-05T10:03:27.000Z</time>
      </trkpt>
      <trkpt lat="48.92395" lon="2.10336">
        <ele>115</ele>
        <time>2016-05-05T10:03:29.000Z</time>
      </trkpt>
      <trkpt lat="48.92397" lon="2.10334">
        <ele>114</ele>
        <time>2016-05-05T10:03:33.000Z</time>
      </trkpt>
      <trkpt lat="48.92397" lon="2.10334">
        <ele>114</ele>
        <time>2016-05-05T10:03:35.000Z</time>
      </trkpt>
      <trkpt lat="48.924" lon="2.10331">
        <ele>114</ele>
        <time>2016-05-05T10:03:37.000Z</time>
      </trkpt>
      <trkpt lat="48.92403" lon="2.10329">
        <ele>114</ele>
        <time>2016-05-05T10:03:41.000Z</time>
      </trkpt>
      <trkpt lat="48.92403" lon="2.10329">
        <ele>114</ele>
        <time>2016-05-05T10:03:45.000Z</time>
      </trkpt>
      <trkpt lat="48.92406" lon="2.10326">
        <ele>113</ele>
        <time>2016-05-05T10:03:47.000Z</time>
      </trkpt>
      <trkpt lat="48.92406" lon="2.10326">
        <ele>113</ele>
        <time>2016-05-05T10:03:49.000Z</time>
      </trkpt>
      <trkpt lat="48.92406" lon="2.10326">
        <ele>113</ele>
        <time>2016-05-05T10:03:51.000Z</time>
      </trkpt>
      <trkpt lat="48.9241" lon="2.10324">
        <ele>112</ele>
        <time>2016-05-05T10:03:55.000Z</time>
      </trkpt>
      <trkpt lat="48.9241" lon="2.10324">
        <ele>112</ele>
        <time>2016-05-05T10:03:57.000Z</time>
      </trkpt>
      <trkpt lat="48.92413" lon="2.1032">
        <ele>113</ele>
        <time>2016-05-05T10:03:59.000Z</time>
      </trkpt>
      <trkpt lat="48.92413" lon="2.1032">
        <ele>113</ele>
        <time>2016-05-05T10:04:01.000Z</time>
      </trkpt>
      <trkpt lat="48.92415" lon="2.10317">
        <ele>113</ele>
        <time>2016-05-05T10:04:03.000Z</time>
      </trkpt>
      <trkpt lat="48.92418" lon="2.10313">
        <ele>113</ele>
        <time>2016-05-05T10:04:09.000Z</time>
      </trkpt>
      <trkpt lat="48.9242" lon="2.10309">
        <ele>113</ele>
        <time>2016-05-05T10:04:11.000Z</time>
      </trkpt>
      <trkpt lat="48.92422" lon="2.10306">
        <ele>113</ele>
        <time>2016-05-05T10:04:13.000Z</time>
      </trkpt>
      <trkpt lat="48.92426" lon="2.10302">
        <ele>113</ele>
        <time>2016-05-05T10:04:19.000Z</time>
      </trkpt>
      <trkpt lat="48.92429" lon="2.10299">
        <ele>113</ele>
        <time>2016-05-05T10:04:21.000Z</time>
      </trkpt>
      <trkpt lat="48.92429" lon="2.10299">
        <ele>113</ele>
        <time>2016-05-05T10:04:23.000Z</time>
      </trkpt>
      <trkpt lat="48.92431" lon="2.10296">
        <ele>113</ele>
        <time>2016-05-05T10:04:25.000Z</time>
      </trkpt>
      <trkpt lat="48.92431" lon="2.10296">
        <ele>113</ele>
        <time>2016-05-05T10:04:27.000Z</time>
      </trkpt>
      <trkpt lat="48.92434" lon="2.10289">
        <ele>112</ele>
        <time>2016-05-05T10:04:31.000Z</time>
      </trkpt>
      <trkpt lat="48.92438" lon="2.10283">
        <ele>112</ele>
        <time>2016-05-05T10:04:35.000Z</time>
      </trkpt>
      <trkpt lat="48.92442" lon="2.10277">
        <ele>113</ele>
        <time>2016-05-05T10:04:39.000Z</time>
      </trkpt>
      <trkpt lat="48.92442" lon="2.10277">
        <ele>113</ele>
        <time>2016-05-05T10:04:41.000Z</time>
      </trkpt>
      <trkpt lat="48.92445" lon="2.10271">
        <ele>113</ele>
        <time>2016-05-05T10:04:43.000Z</time>
      </trkpt>
      <trkpt lat="48.92448" lon="2.10267">
        <ele>113</ele>
        <time>2016-05-05T10:04:45.000Z</time>
      </trkpt>
      <trkpt lat="48.9245" lon="2.10264">
        <ele>113</ele>
        <time>2016-05-05T10:04:47.000Z</time>
      </trkpt>
      <trkpt lat="48.9245" lon="2.10264">
        <ele>113</ele>
        <time>2016-05-05T10:04:49.000Z</time>
      </trkpt>
      <trkpt lat="48.9245" lon="2.10264">
        <ele>113</ele>
        <time>2016-05-05T10:04:51.000Z</time>
      </trkpt>
      <trkpt lat="48.92454" lon="2.1026">
        <ele>113</ele>
        <time>2016-05-05T10:04:53.000Z</time>
      </trkpt>
      <trkpt lat="48.92454" lon="2.1026">
        <ele>113</ele>
        <time>2016-05-05T10:04:55.000Z</time>
      </trkpt>
      <trkpt lat="48.92458" lon="2.10257">
        <ele>113</ele>
        <time>2016-05-05T10:04:57.000Z</time>
      </trkpt>
      <trkpt lat="48.92458" lon="2.10257">
        <ele>113</ele>
        <time>2016-05-05T10:04:59.000Z</time>
      </trkpt>
      <trkpt lat="48.92458" lon="2.10257">
        <ele>113</ele>
        <time>2016-05-05T10:05:01.000Z</time>
      </trkpt>
      <trkpt lat="48.92461" lon="2.10252">
        <ele>112</ele>
        <time>2016-05-05T10:05:03.000Z</time>
      </trkpt>
      <trkpt lat="48.92464" lon="2.10249">
        <ele>111</ele>
        <time>2016-05-05T10:05:05.000Z</time>
      </trkpt>
      <trkpt lat="48.92467" lon="2.10246">
        <ele>110</ele>
        <time>2016-05-05T10:05:11.000Z</time>
      </trkpt>
      <trkpt lat="48.9247" lon="2.10244">
        <ele>110</ele>
        <time>2016-05-05T10:05:13.000Z</time>
      </trkpt>
      <trkpt lat="48.92473" lon="2.1024">
        <ele>110</ele>
        <time>2016-05-05T10:05:15.000Z</time>
      </trkpt>
      <trkpt lat="48.92473" lon="2.1024">
        <ele>110</ele>
        <time>2016-05-05T10:05:17.000Z</time>
      </trkpt>
      <trkpt lat="48.92476" lon="2.10237">
        <ele>110</ele>
        <time>2016-05-05T10:05:19.000Z</time>
      </trkpt>
      <trkpt lat="48.9248" lon="2.10234">
        <ele>109</ele>
        <time>2016-05-05T10:05:25.000Z</time>
      </trkpt>
      <trkpt lat="48.92484" lon="2.1023">
        <ele>109</ele>
        <time>2016-05-05T10:05:31.000Z</time>
      </trkpt>
      <trkpt lat="48.92486" lon="2.10227">
        <ele>109</ele>
        <time>2016-05-05T10:05:33.000Z</time>
      </trkpt>
      <trkpt lat="48.92486" lon="2.10227">
        <ele>109</ele>
        <time>2016-05-05T10:05:35.000Z</time>
      </trkpt>
      <trkpt lat="48.92489" lon="2.10225">
        <ele>109</ele>
        <time>2016-05-05T10:05:37.000Z</time>
      </trkpt>
      <trkpt lat="48.92494" lon="2.10223">
        <ele>109</ele>
        <time>2016-05-05T10:05:41.000Z</time>
      </trkpt>
      <trkpt lat="48.92498" lon="2.10221">
        <ele>109</ele>
        <time>2016-05-05T10:05:43.000Z</time>
      </trkpt>
      <trkpt lat="48.92503" lon="2.10218">
        <ele>109</ele>
        <time>2016-05-05T10:05:49.000Z</time>
      </trkpt>
      <trkpt lat="48.92506" lon="2.10216">
        <ele>109</ele>
        <time>2016-05-05T10:05:51.000Z</time>
      </trkpt>
      <trkpt lat="48.92511" lon="2.10213">
        <ele>109</ele>
        <time>2016-05-05T10:05:57.000Z</time>
      </trkpt>
      <trkpt lat="48.92516" lon="2.10212">
        <ele>109</ele>
        <time>2016-05-05T10:06:01.000Z</time>
      </trkpt>
      <trkpt lat="48.9252" lon="2.1021">
        <ele>109</ele>
        <time>2016-05-05T10:06:03.000Z</time>
      </trkpt>
      <trkpt lat="48.92525" lon="2.10208">
        <ele>109</ele>
        <time>2016-05-05T10:06:07.000Z</time>
      </trkpt>
      <trkpt lat="48.92525" lon="2.10208">
        <ele>109</ele>
        <time>2016-05-05T10:06:09.000Z</time>
      </trkpt>
      <trkpt lat="48.92529" lon="2.10204">
        <ele>109</ele>
        <time>2016-05-05T10:06:11.000Z</time>
      </trkpt>
      <trkpt lat="48.92533" lon="2.10199">
        <ele>110</ele>
        <time>2016-05-05T10:06:15.000Z</time>
      </trkpt>
      <trkpt lat="48.92535" lon="2.10196">
        <ele>110</ele>
        <time>2016-05-05T10:06:17.000Z</time>
      </trkpt>
      <trkpt lat="48.92535" lon="2.10196">
        <ele>110</ele>
        <time>2016-05-05T10:06:19.000Z</time>
      </trkpt>
      <trkpt lat="48.92535" lon="2.10196">
        <ele>110</ele>
        <time>2016-05-05T10:06:21.000Z</time>
      </trkpt>
      <trkpt lat="48.92538" lon="2.10193">
        <ele>111</ele>
        <time>2016-05-05T10:06:23.000Z</time>
      </trkpt>
      <trkpt lat="48.92538" lon="2.10193">
        <ele>111</ele>
        <time>2016-05-05T10:06:25.000Z</time>
      </trkpt>
      <trkpt lat="48.92542" lon="2.10189">
        <ele>110</ele>
        <time>2016-05-05T10:06:27.000Z</time>
      </trkpt>
      <trkpt lat="48.92544" lon="2.10186">
        <ele>110</ele>
        <time>2016-05-05T10:06:29.000Z</time>
      </trkpt>
      <trkpt lat="48.92544" lon="2.10186">
        <ele>110</ele>
        <time>2016-05-05T10:06:31.000Z</time>
      </trkpt>
      <trkpt lat="48.92546" lon="2.1018">
        <ele>110</ele>
        <time>2016-05-05T10:06:35.000Z</time>
      </trkpt>
      <trkpt lat="48.92546" lon="2.1018">
        <ele>110</ele>
        <time>2016-05-05T10:06:39.000Z</time>
      </trkpt>
      <trkpt lat="48.92549" lon="2.10174">
        <ele>110</ele>
        <time>2016-05-05T10:06:41.000Z</time>
      </trkpt>
      <trkpt lat="48.92549" lon="2.10174">
        <ele>110</ele>
        <time>2016-05-05T10:06:43.000Z</time>
      </trkpt>
      <trkpt lat="48.92552" lon="2.10168">
        <ele>110</ele>
        <time>2016-05-05T10:06:45.000Z</time>
      </trkpt>
      <trkpt lat="48.92556" lon="2.10163">
        <ele>109</ele>
        <time>2016-05-05T10:06:49.000Z</time>
      </trkpt>
      <trkpt lat="48.92559" lon="2.10159">
        <ele>108</ele>
        <time>2016-05-05T10:06:53.000Z</time>
      </trkpt>
      <trkpt lat="48.92564" lon="2.10155">
        <ele>108</ele>
        <time>2016-05-05T10:06:57.000Z</time>
      </trkpt>
      <trkpt lat="48.92568" lon="2.10152">
        <ele>108</ele>
        <time>2016-05-05T10:07:01.000Z</time>
      </trkpt>
      <trkpt lat="48.92571" lon="2.1015">
        <ele>108</ele>
        <time>2016-05-05T10:07:03.000Z</time>
      </trkpt>
      <trkpt lat="48.92576" lon="2.10146">
        <ele>108</ele>
        <time>2016-05-05T10:07:09.000Z</time>
      </trkpt>
      <trkpt lat="48.92576" lon="2.10146">
        <ele>108</ele>
        <time>2016-05-05T10:07:15.000Z</time>
      </trkpt>
      <trkpt lat="48.92581" lon="2.10143">
        <ele>107</ele>
        <time>2016-05-05T10:07:17.000Z</time>
      </trkpt>
      <trkpt lat="48.92581" lon="2.10143">
        <ele>107</ele>
        <time>2016-05-05T10:07:19.000Z</time>
      </trkpt>
      <trkpt lat="48.92581" lon="2.10143">
        <ele>107</ele>
        <time>2016-05-05T10:07:21.000Z</time>
      </trkpt>
      <trkpt lat="48.92581" lon="2.10143">
        <ele>107</ele>
        <time>2016-05-05T10:07:23.000Z</time>
      </trkpt>
      <trkpt lat="48.92581" lon="2.10143">
        <ele>107</ele>
        <time>2016-05-05T10:07:25.000Z</time>
      </trkpt>
      <trkpt lat="48.92591" lon="2.10134">
        <ele>108</ele>
        <time>2016-05-05T10:07:39.000Z</time>
      </trkpt>
      <trkpt lat="48.92598" lon="2.10129">
        <ele>108</ele>
        <time>2016-05-05T10:07:41.000Z</time>
      </trkpt>
      <trkpt lat="48.92602" lon="2.10125">
        <ele>108</ele>
        <time>2016-05-05T10:07:43.000Z</time>
      </trkpt>
      <trkpt lat="48.92606" lon="2.10123">
        <ele>109</ele>
        <time>2016-05-05T10:07:45.000Z</time>
      </trkpt>
      <trkpt lat="48.92609" lon="2.1012">
        <ele>109</ele>
        <time>2016-05-05T10:07:47.000Z</time>
      </trkpt>
      <trkpt lat="48.92615" lon="2.10115">
        <ele>110</ele>
        <time>2016-05-05T10:07:51.000Z</time>
      </trkpt>
      <trkpt lat="48.92622" lon="2.10109">
        <ele>111</ele>
        <time>2016-05-05T10:07:57.000Z</time>
      </trkpt>
      <trkpt lat="48.92628" lon="2.10106">
        <ele>112</ele>
        <time>2016-05-05T10:08:03.000Z</time>
      </trkpt>
      <trkpt lat="48.92633" lon="2.10099">
        <ele>112</ele>
        <time>2016-05-05T10:08:09.000Z</time>
      </trkpt>
      <trkpt lat="48.92636" lon="2.10092">
        <ele>113</ele>
        <time>2016-05-05T10:08:15.000Z</time>
      </trkpt>
      <trkpt lat="48.92636" lon="2.10092">
        <ele>113</ele>
        <time>2016-05-05T10:08:17.000Z</time>
      </trkpt>
      <trkpt lat="48.92636" lon="2.10092">
        <ele>113</ele>
        <time>2016-05-05T10:08:19.000Z</time>
      </trkpt>
      <trkpt lat="48.92636" lon="2.10092">
        <ele>113</ele>
        <time>2016-05-05T10:08:21.000Z</time>
      </trkpt>
      <trkpt lat="48.92636" lon="2.10092">
        <ele>113</ele>
        <time>2016-05-05T10:08:27.000Z</time>
      </trkpt>
      <trkpt lat="48.92645" lon="2.1007">
        <ele>110</ele>
        <time>2016-05-05T10:08:41.000Z</time>
      </trkpt>
      <trkpt lat="48.92651" lon="2.10064">
        <ele>108</ele>
        <time>2016-05-05T10:08:51.000Z</time>
      </trkpt>
      <trkpt lat="48.92651" lon="2.10064">
        <ele>108</ele>
        <time>2016-05-05T10:08:53.000Z</time>
      </trkpt>
      <trkpt lat="48.92651" lon="2.10064">
        <ele>108</ele>
        <time>2016-05-05T10:08:55.000Z</time>
      </trkpt>
      <trkpt lat="48.92651" lon="2.10064">
        <ele>108</ele>
        <time>2016-05-05T10:08:59.000Z</time>
      </trkpt>
      <trkpt lat="48.92659" lon="2.10058">
        <ele>108</ele>
        <time>2016-05-05T10:09:01.000Z</time>
      </trkpt>
      <trkpt lat="48.92661" lon="2.10056">
        <ele>108</ele>
        <time>2016-05-05T10:09:07.000Z</time>
      </trkpt>
      <trkpt lat="48.92664" lon="2.10053">
        <ele>107</ele>
        <time>2016-05-05T10:09:11.000Z</time>
      </trkpt>
      <trkpt lat="48.92669" lon="2.10048">
        <ele>108</ele>
        <time>2016-05-05T10:09:17.000Z</time>
      </trkpt>
      <trkpt lat="48.92672" lon="2.10045">
        <ele>108</ele>
        <time>2016-05-05T10:09:19.000Z</time>
      </trkpt>
      <trkpt lat="48.92674" lon="2.10042">
        <ele>108</ele>
        <time>2016-05-05T10:09:21.000Z</time>
      </trkpt>
      <trkpt lat="48.92677" lon="2.10038">
        <ele>108</ele>
        <time>2016-05-05T10:09:25.000Z</time>
      </trkpt>
      <trkpt lat="48.92679" lon="2.10036">
        <ele>108</ele>
        <time>2016-05-05T10:09:27.000Z</time>
      </trkpt>
      <trkpt lat="48.92682" lon="2.10032">
        <ele>107</ele>
        <time>2016-05-05T10:09:31.000Z</time>
      </trkpt>
      <trkpt lat="48.92685" lon="2.1003">
        <ele>107</ele>
        <time>2016-05-05T10:09:33.000Z</time>
      </trkpt>
      <trkpt lat="48.92685" lon="2.1003">
        <ele>107</ele>
        <time>2016-05-05T10:09:35.000Z</time>
      </trkpt>
      <trkpt lat="48.92688" lon="2.10027">
        <ele>107</ele>
        <time>2016-05-05T10:09:37.000Z</time>
      </trkpt>
      <trkpt lat="48.92691" lon="2.10024">
        <ele>107</ele>
        <time>2016-05-05T10:09:39.000Z</time>
      </trkpt>
      <trkpt lat="48.92691" lon="2.10024">
        <ele>107</ele>
        <time>2016-05-05T10:09:41.000Z</time>
      </trkpt>
      <trkpt lat="48.92693" lon="2.10021">
        <ele>107</ele>
        <time>2016-05-05T10:09:43.000Z</time>
      </trkpt>
      <trkpt lat="48.92693" lon="2.10021">
        <ele>107</ele>
        <time>2016-05-05T10:09:45.000Z</time>
      </trkpt>
      <trkpt lat="48.92693" lon="2.10021">
        <ele>107</ele>
        <time>2016-05-05T10:09:47.000Z</time>
      </trkpt>
      <trkpt lat="48.92693" lon="2.10021">
        <ele>107</ele>
        <time>2016-05-05T10:09:49.000Z</time>
      </trkpt>
      <trkpt lat="48.92693" lon="2.10021">
        <ele>107</ele>
        <time>2016-05-05T10:09:51.000Z</time>
      </trkpt>
      <trkpt lat="48.92693" lon="2.10021">
        <ele>107</ele>
        <time>2016-05-05T10:09:53.000Z</time>
      </trkpt>
      <trkpt lat="48.92693" lon="2.10021">
        <ele>107</ele>
        <time>2016-05-05T10:09:57.000Z</time>
      </trkpt>
      <trkpt lat="48.92701" lon="2.10029">
        <ele>108</ele>
        <time>2016-05-05T10:10:31.000Z</time>
      </trkpt>
      <trkpt lat="48.92706" lon="2.10033">
        <ele>108</ele>
        <time>2016-05-05T10:10:33.000Z</time>
      </trkpt>
      <trkpt lat="48.92706" lon="2.10033">
        <ele>108</ele>
        <time>2016-05-05T10:10:35.000Z</time>
      </trkpt>
      <trkpt lat="48.92708" lon="2.10038">
        <ele>108</ele>
        <time>2016-05-05T10:10:37.000Z</time>
      </trkpt>
      <trkpt lat="48.92708" lon="2.10038">
        <ele>108</ele>
        <time>2016-05-05T10:10:39.000Z</time>
      </trkpt>
      <trkpt lat="48.92712" lon="2.10044">
        <ele>108</ele>
        <time>2016-05-05T10:10:41.000Z</time>
      </trkpt>
      <trkpt lat="48.92713" lon="2.10051">
        <ele>109</ele>
        <time>2016-05-05T10:10:45.000Z</time>
      </trkpt>
      <trkpt lat="48.92714" lon="2.10056">
        <ele>109</ele>
        <time>2016-05-05T10:10:51.000Z</time>
      </trkpt>
      <trkpt lat="48.92714" lon="2.10056">
        <ele>109</ele>
        <time>2016-05-05T10:10:53.000Z</time>
      </trkpt>
      <trkpt lat="48.92714" lon="2.10056">
        <ele>109</ele>
        <time>2016-05-05T10:10:55.000Z</time>
      </trkpt>
      <trkpt lat="48.92717" lon="2.10059">
        <ele>109</ele>
        <time>2016-05-05T10:10:57.000Z</time>
      </trkpt>
      <trkpt lat="48.92717" lon="2.10059">
        <ele>109</ele>
        <time>2016-05-05T10:10:59.000Z</time>
      </trkpt>
      <trkpt lat="48.92717" lon="2.10059">
        <ele>109</ele>
        <time>2016-05-05T10:11:01.000Z</time>
      </trkpt>
      <trkpt lat="48.9272" lon="2.10065">
        <ele>109</ele>
        <time>2016-05-05T10:11:03.000Z</time>
      </trkpt>
      <trkpt lat="48.92723" lon="2.10071">
        <ele>109</ele>
        <time>2016-05-05T10:11:07.000Z</time>
      </trkpt>
      <trkpt lat="48.92725" lon="2.10074">
        <ele>109</ele>
        <time>2016-05-05T10:11:09.000Z</time>
      </trkpt>
      <trkpt lat="48.92725" lon="2.10074">
        <ele>109</ele>
        <time>2016-05-05T10:11:11.000Z</time>
      </trkpt>
      <trkpt lat="48.92725" lon="2.10074">
        <ele>109</ele>
        <time>2016-05-05T10:11:13.000Z</time>
      </trkpt>
      <trkpt lat="48.92728" lon="2.1008">
        <ele>110</ele>
        <time>2016-05-05T10:11:15.000Z</time>
      </trkpt>
      <trkpt lat="48.92728" lon="2.1008">
        <ele>110</ele>
        <time>2016-05-05T10:11:17.000Z</time>
      </trkpt>
      <trkpt lat="48.92728" lon="2.1008">
        <ele>110</ele>
        <time>2016-05-05T10:11:19.000Z</time>
      </trkpt>
      <trkpt lat="48.92728" lon="2.1008">
        <ele>110</ele>
        <time>2016-05-05T10:11:45.000Z</time>
      </trkpt>
      <trkpt lat="48.92739" lon="2.10104">
        <ele>110</ele>
        <time>2016-05-05T10:11:53.000Z</time>
      </trkpt>
      <trkpt lat="48.92744" lon="2.10118">
        <ele>110</ele>
        <time>2016-05-05T10:11:55.000Z</time>
      </trkpt>
      <trkpt lat="48.92748" lon="2.10128">
        <ele>110</ele>
        <time>2016-05-05T10:11:57.000Z</time>
      </trkpt>
      <trkpt lat="48.92751" lon="2.10134">
        <ele>110</ele>
        <time>2016-05-05T10:11:59.000Z</time>
      </trkpt>
      <trkpt lat="48.92752" lon="2.10138">
        <ele>109</ele>
        <time>2016-05-05T10:12:01.000Z</time>
      </trkpt>
      <trkpt lat="48.92757" lon="2.10145">
        <ele>109</ele>
        <time>2016-05-05T10:12:05.000Z</time>
      </trkpt>
      <trkpt lat="48.92762" lon="2.10157">
        <ele>108</ele>
        <time>2016-05-05T10:12:13.000Z</time>
      </trkpt>
      <trkpt lat="48.92765" lon="2.10172">
        <ele>107</ele>
        <time>2016-05-05T10:12:23.000Z</time>
      </trkpt>
      <trkpt lat="48.92765" lon="2.10172">
        <ele>107</ele>
        <time>2016-05-05T10:12:25.000Z</time>
      </trkpt>
      <trkpt lat="48.92765" lon="2.10172">
        <ele>107</ele>
        <time>2016-05-05T10:12:27.000Z</time>
      </trkpt>
      <trkpt lat="48.92765" lon="2.10172">
        <ele>107</ele>
        <time>2016-05-05T10:12:29.000Z</time>
      </trkpt>
      <trkpt lat="48.92765" lon="2.10172">
        <ele>107</ele>
        <time>2016-05-05T10:12:31.000Z</time>
      </trkpt>
      <trkpt lat="48.92772" lon="2.10183">
        <ele>107</ele>
        <time>2016-05-05T10:12:33.000Z</time>
      </trkpt>
      <trkpt lat="48.92778" lon="2.10198">
        <ele>107</ele>
        <time>2016-05-05T10:12:43.000Z</time>
      </trkpt>
      <trkpt lat="48.92785" lon="2.10213">
        <ele>107</ele>
        <time>2016-05-05T10:12:51.000Z</time>
      </trkpt>
      <trkpt lat="48.92785" lon="2.10213">
        <ele>107</ele>
        <time>2016-05-05T10:12:53.000Z</time>
      </trkpt>
      <trkpt lat="48.92785" lon="2.10213">
        <ele>107</ele>
        <time>2016-05-05T10:12:55.000Z</time>
      </trkpt>
      <trkpt lat="48.92788" lon="2.10226">
        <ele>108</ele>
        <time>2016-05-05T10:12:57.000Z</time>
      </trkpt>
      <trkpt lat="48.92788" lon="2.10226">
        <ele>108</ele>
        <time>2016-05-05T10:12:59.000Z</time>
      </trkpt>
      <trkpt lat="48.92788" lon="2.10226">
        <ele>108</ele>
        <time>2016-05-05T10:13:01.000Z</time>
      </trkpt>
      <trkpt lat="48.92791" lon="2.10242">
        <ele>109</ele>
        <time>2016-05-05T10:13:09.000Z</time>
      </trkpt>
      <trkpt lat="48.92796" lon="2.1025">
        <ele>110</ele>
        <time>2016-05-05T10:13:15.000Z</time>
      </trkpt>
      <trkpt lat="48.92796" lon="2.1025">
        <ele>110</ele>
        <time>2016-05-05T10:13:17.000Z</time>
      </trkpt>
      <trkpt lat="48.92796" lon="2.1025">
        <ele>110</ele>
        <time>2016-05-05T10:13:19.000Z</time>
      </trkpt>
      <trkpt lat="48.92796" lon="2.1025">
        <ele>110</ele>
        <time>2016-05-05T10:13:21.000Z</time>
      </trkpt>
      <trkpt lat="48.92796" lon="2.1025">
        <ele>110</ele>
        <time>2016-05-05T10:13:23.000Z</time>
      </trkpt>
      <trkpt lat="48.92799" lon="2.10256">
        <ele>111</ele>
        <time>2016-05-05T10:13:25.000Z</time>
      </trkpt>
      <trkpt lat="48.92799" lon="2.10256">
        <ele>111</ele>
        <time>2016-05-05T10:13:27.000Z</time>
      </trkpt>
      <trkpt lat="48.92802" lon="2.10262">
        <ele>112</ele>
        <time>2016-05-05T10:13:29.000Z</time>
      </trkpt>
      <trkpt lat="48.92804" lon="2.10265">
        <ele>112</ele>
        <time>2016-05-05T10:13:31.000Z</time>
      </trkpt>
      <trkpt lat="48.92804" lon="2.10265">
        <ele>112</ele>
        <time>2016-05-05T10:13:33.000Z</time>
      </trkpt>
      <trkpt lat="48.92804" lon="2.10265">
        <ele>112</ele>
        <time>2016-05-05T10:13:35.000Z</time>
      </trkpt>
      <trkpt lat="48.92804" lon="2.10265">
        <ele>112</ele>
        <time>2016-05-05T10:13:37.000Z</time>
      </trkpt>
      <trkpt lat="48.92809" lon="2.10276">
        <ele>112</ele>
        <time>2016-05-05T10:13:41.000Z</time>
      </trkpt>
      <trkpt lat="48.92812" lon="2.10283">
        <ele>112</ele>
        <time>2016-05-05T10:13:43.000Z</time>
      </trkpt>
      <trkpt lat="48.92812" lon="2.10283">
        <ele>112</ele>
        <time>2016-05-05T10:13:45.000Z</time>
      </trkpt>
      <trkpt lat="48.92812" lon="2.10283">
        <ele>112</ele>
        <time>2016-05-05T10:13:47.000Z</time>
      </trkpt>
      <trkpt lat="48.92819" lon="2.10299">
        <ele>113</ele>
        <time>2016-05-05T10:14:01.000Z</time>
      </trkpt>
      <trkpt lat="48.92823" lon="2.10308">
        <ele>113</ele>
        <time>2016-05-05T10:14:03.000Z</time>
      </trkpt>
      <trkpt lat="48.92825" lon="2.10313">
        <ele>114</ele>
        <time>2016-05-05T10:14:05.000Z</time>
      </trkpt>
      <trkpt lat="48.92825" lon="2.10313">
        <ele>114</ele>
        <time>2016-05-05T10:14:07.000Z</time>
      </trkpt>
      <trkpt lat="48.92825" lon="2.10313">
        <ele>114</ele>
        <time>2016-05-05T10:14:09.000Z</time>
      </trkpt>
      <trkpt lat="48.9283" lon="2.10321">
        <ele>115</ele>
        <time>2016-05-05T10:14:13.000Z</time>
      </trkpt>
      <trkpt lat="48.9283" lon="2.10321">
        <ele>115</ele>
        <time>2016-05-05T10:14:15.000Z</time>
      </trkpt>
      <trkpt lat="48.9283" lon="2.10321">
        <ele>115</ele>
        <time>2016-05-05T10:14:17.000Z</time>
      </trkpt>
      <trkpt lat="48.92842" lon="2.1035">
        <ele>118</ele>
        <time>2016-05-05T10:14:51.000Z</time>
      </trkpt>
      <trkpt lat="48.92851" lon="2.10366">
        <ele>118</ele>
        <time>2016-05-05T10:14:53.000Z</time>
      </trkpt>
      <trkpt lat="48.92856" lon="2.10376">
        <ele>118</ele>
        <time>2016-05-05T10:14:55.000Z</time>
      </trkpt>
      <trkpt lat="48.92859" lon="2.10383">
        <ele>118</ele>
        <time>2016-05-05T10:14:57.000Z</time>
      </trkpt>
      <trkpt lat="48.92861" lon="2.10388">
        <ele>118</ele>
        <time>2016-05-05T10:14:59.000Z</time>
      </trkpt>
      <trkpt lat="48.92865" lon="2.10397">
        <ele>118</ele>
        <time>2016-05-05T10:15:01.000Z</time>
      </trkpt>
      <trkpt lat="48.92872" lon="2.10408">
        <ele>118</ele>
        <time>2016-05-05T10:15:09.000Z</time>
      </trkpt>
      <trkpt lat="48.92872" lon="2.10408">
        <ele>118</ele>
        <time>2016-05-05T10:15:11.000Z</time>
      </trkpt>
      <trkpt lat="48.92872" lon="2.10408">
        <ele>118</ele>
        <time>2016-05-05T10:15:13.000Z</time>
      </trkpt>
      <trkpt lat="48.92875" lon="2.10417">
        <ele>118</ele>
        <time>2016-05-05T10:15:15.000Z</time>
      </trkpt>
      <trkpt lat="48.92875" lon="2.10417">
        <ele>118</ele>
        <time>2016-05-05T10:15:17.000Z</time>
      </trkpt>
      <trkpt lat="48.92877" lon="2.10428">
        <ele>118</ele>
        <time>2016-05-05T10:15:21.000Z</time>
      </trkpt>
      <trkpt lat="48.92877" lon="2.10428">
        <ele>118</ele>
        <time>2016-05-05T10:15:23.000Z</time>
      </trkpt>
      <trkpt lat="48.92877" lon="2.10428">
        <ele>118</ele>
        <time>2016-05-05T10:15:25.000Z</time>
      </trkpt>
      <trkpt lat="48.92877" lon="2.10428">
        <ele>118</ele>
        <time>2016-05-05T10:15:27.000Z</time>
      </trkpt>
      <trkpt lat="48.92877" lon="2.10428">
        <ele>118</ele>
        <time>2016-05-05T10:15:29.000Z</time>
      </trkpt>
      <trkpt lat="48.92888" lon="2.10455">
        <ele>120</ele>
        <time>2016-05-05T10:15:39.000Z</time>
      </trkpt>
      <trkpt lat="48.92891" lon="2.10466">
        <ele>120</ele>
        <time>2016-05-05T10:15:47.000Z</time>
      </trkpt>
      <trkpt lat="48.92891" lon="2.10466">
        <ele>120</ele>
        <time>2016-05-05T10:15:49.000Z</time>
      </trkpt>
      <trkpt lat="48.92891" lon="2.10466">
        <ele>120</ele>
        <time>2016-05-05T10:15:51.000Z</time>
      </trkpt>
      <trkpt lat="48.92896" lon="2.10483">
        <ele>120</ele>
        <time>2016-05-05T10:16:05.000Z</time>
      </trkpt>
      <trkpt lat="48.92896" lon="2.10483">
        <ele>120</ele>
        <time>2016-05-05T10:16:07.000Z</time>
      </trkpt>
      <trkpt lat="48.92896" lon="2.10483">
        <ele>120</ele>
        <time>2016-05-05T10:16:09.000Z</time>
      </trkpt>
      <trkpt lat="48.92899" lon="2.10492">
        <ele>117</ele>
        <time>2016-05-05T10:16:19.000Z</time>
      </trkpt>
      <trkpt lat="48.929" lon="2.10498">
        <ele>117</ele>
        <time>2016-05-05T10:16:21.000Z</time>
      </trkpt>
      <trkpt lat="48.929" lon="2.10498">
        <ele>117</ele>
        <time>2016-05-05T10:16:23.000Z</time>
      </trkpt>
      <trkpt lat="48.929" lon="2.10498">
        <ele>117</ele>
        <time>2016-05-05T10:16:25.000Z</time>
      </trkpt>
      <trkpt lat="48.92903" lon="2.1051">
        <ele>116</ele>
        <time>2016-05-05T10:16:27.000Z</time>
      </trkpt>
      <trkpt lat="48.92904" lon="2.10519">
        <ele>115</ele>
        <time>2016-05-05T10:16:29.000Z</time>
      </trkpt>
      <trkpt lat="48.92904" lon="2.10525">
        <ele>115</ele>
        <time>2016-05-05T10:16:31.000Z</time>
      </trkpt>
      <trkpt lat="48.92905" lon="2.10531">
        <ele>115</ele>
        <time>2016-05-05T10:16:35.000Z</time>
      </trkpt>
      <trkpt lat="48.92906" lon="2.10539">
        <ele>112</ele>
        <time>2016-05-05T10:16:43.000Z</time>
      </trkpt>
      <trkpt lat="48.92906" lon="2.10539">
        <ele>112</ele>
        <time>2016-05-05T10:16:45.000Z</time>
      </trkpt>
      <trkpt lat="48.92908" lon="2.10546">
        <ele>111</ele>
        <time>2016-05-05T10:16:47.000Z</time>
      </trkpt>
      <trkpt lat="48.92908" lon="2.10546">
        <ele>111</ele>
        <time>2016-05-05T10:16:49.000Z</time>
      </trkpt>
      <trkpt lat="48.92908" lon="2.10546">
        <ele>111</ele>
        <time>2016-05-05T10:16:51.000Z</time>
      </trkpt>
      <trkpt lat="48.92908" lon="2.10546">
        <ele>111</ele>
        <time>2016-05-05T10:16:53.000Z</time>
      </trkpt>
      <trkpt lat="48.92908" lon="2.10546">
        <ele>111</ele>
        <time>2016-05-05T10:16:59.000Z</time>
      </trkpt>
      <trkpt lat="48.92936" lon="2.10561">
        <ele>107</ele>
        <time>2016-05-05T10:18:03.000Z</time>
      </trkpt>
      <trkpt lat="48.92936" lon="2.10561">
        <ele>107</ele>
        <time>2016-05-05T10:18:05.000Z</time>
      </trkpt>
      <trkpt lat="48.92936" lon="2.10561">
        <ele>107</ele>
        <time>2016-05-05T10:18:07.000Z</time>
      </trkpt>
      <trkpt lat="48.92936" lon="2.10561">
        <ele>107</ele>
        <time>2016-05-05T10:18:09.000Z</time>
      </trkpt>
      <trkpt lat="48.92936" lon="2.10561">
        <ele>107</ele>
        <time>2016-05-05T10:18:11.000Z</time>
      </trkpt>
      <trkpt lat="48.92961" lon="2.1057">
        <ele>105</ele>
        <time>2016-05-05T10:18:42.000Z</time>
      </trkpt>
      <trkpt lat="48.92961" lon="2.1057">
        <ele>105</ele>
        <time>2016-05-05T10:18:44.000Z</time>
      </trkpt>
      <trkpt lat="48.92961" lon="2.1057">
        <ele>105</ele>
        <time>2016-05-05T10:19:07.000Z</time>
      </trkpt>
      <trkpt lat="48.92992" lon="2.10585">
        <ele>105</ele>
        <time>2016-05-05T10:19:19.000Z</time>
      </trkpt>
      <trkpt lat="48.93008" lon="2.10592">
        <ele>105</ele>
        <time>2016-05-05T10:19:21.000Z</time>
      </trkpt>
      <trkpt lat="48.93008" lon="2.10592">
        <ele>105</ele>
        <time>2016-05-05T10:19:23.000Z</time>
      </trkpt>
      <trkpt lat="48.93055" lon="2.10606">
        <ele>105</ele>
        <time>2016-05-05T10:21:20.000Z</time>
      </trkpt>
      <trkpt lat="48.9308" lon="2.10613">
        <ele>105</ele>
        <time>2016-05-05T10:21:22.000Z</time>
      </trkpt>
      <trkpt lat="48.9308" lon="2.10613">
        <ele>105</ele>
        <time>2016-05-05T10:21:24.000Z</time>
      </trkpt>
      <trkpt lat="48.93094" lon="2.10617">
        <ele>112</ele>
        <time>2016-05-05T10:24:24.000Z</time>
      </trkpt>
      <trkpt lat="48.931" lon="2.10618">
        <ele>113</ele>
        <time>2016-05-05T10:24:26.000Z</time>
      </trkpt>
      <trkpt lat="48.931" lon="2.10618">
        <ele>113</ele>
        <time>2016-05-05T10:24:28.000Z</time>
      </trkpt>
      <trkpt lat="48.931" lon="2.10618">
        <ele>113</ele>
        <time>2016-05-05T10:24:31.000Z</time>
      </trkpt>
      <trkpt lat="48.93097" lon="2.10612">
        <ele>115</ele>
        <time>2016-05-05T10:24:35.000Z</time>
      </trkpt>
      <trkpt lat="48.93092" lon="2.10608">
        <ele>115</ele>
        <time>2016-05-05T10:24:37.000Z</time>
      </trkpt>
      <trkpt lat="48.93088" lon="2.10604">
        <ele>116</ele>
        <time>2016-05-05T10:24:41.000Z</time>
      </trkpt>
      <trkpt lat="48.93084" lon="2.106">
        <ele>116</ele>
        <time>2016-05-05T10:24:43.000Z</time>
      </trkpt>
      <trkpt lat="48.93084" lon="2.106">
        <ele>116</ele>
        <time>2016-05-05T10:24:45.000Z</time>
      </trkpt>
      <trkpt lat="48.93079" lon="2.10599">
        <ele>116</ele>
        <time>2016-05-05T10:24:47.000Z</time>
      </trkpt>
      <trkpt lat="48.93079" lon="2.10599">
        <ele>116</ele>
        <time>2016-05-05T10:24:49.000Z</time>
      </trkpt>
      <trkpt lat="48.93074" lon="2.10598">
        <ele>116</ele>
        <time>2016-05-05T10:24:51.000Z</time>
      </trkpt>
      <trkpt lat="48.93074" lon="2.10598">
        <ele>116</ele>
        <time>2016-05-05T10:24:53.000Z</time>
      </trkpt>
      <trkpt lat="48.93066" lon="2.10598">
        <ele>116</ele>
        <time>2016-05-05T10:25:05.000Z</time>
      </trkpt>
      <trkpt lat="48.9306" lon="2.10597">
        <ele>116</ele>
        <time>2016-05-05T10:25:07.000Z</time>
      </trkpt>
      <trkpt lat="48.93054" lon="2.10594">
        <ele>116</ele>
        <time>2016-05-05T10:25:09.000Z</time>
      </trkpt>
      <trkpt lat="48.93049" lon="2.10591">
        <ele>116</ele>
        <time>2016-05-05T10:25:11.000Z</time>
      </trkpt>
      <trkpt lat="48.93044" lon="2.10589">
        <ele>116</ele>
        <time>2016-05-05T10:25:15.000Z</time>
      </trkpt>
      <trkpt lat="48.93039" lon="2.10586">
        <ele>115</ele>
        <time>2016-05-05T10:25:17.000Z</time>
      </trkpt>
      <trkpt lat="48.93039" lon="2.10586">
        <ele>115</ele>
        <time>2016-05-05T10:25:19.000Z</time>
      </trkpt>
      <trkpt lat="48.93039" lon="2.10586">
        <ele>115</ele>
        <time>2016-05-05T10:25:21.000Z</time>
      </trkpt>
      <trkpt lat="48.93032" lon="2.10585">
        <ele>114</ele>
        <time>2016-05-05T10:25:23.000Z</time>
      </trkpt>
      <trkpt lat="48.93026" lon="2.10586">
        <ele>114</ele>
        <time>2016-05-05T10:25:25.000Z</time>
      </trkpt>
      <trkpt lat="48.93021" lon="2.10586">
        <ele>113</ele>
        <time>2016-05-05T10:25:27.000Z</time>
      </trkpt>
      <trkpt lat="48.93021" lon="2.10586">
        <ele>113</ele>
        <time>2016-05-05T10:25:29.000Z</time>
      </trkpt>
      <trkpt lat="48.93016" lon="2.10587">
        <ele>113</ele>
        <time>2016-05-05T10:25:31.000Z</time>
      </trkpt>
      <trkpt lat="48.93011" lon="2.10586">
        <ele>113</ele>
        <time>2016-05-05T10:25:39.000Z</time>
      </trkpt>
      <trkpt lat="48.93011" lon="2.10586">
        <ele>113</ele>
        <time>2016-05-05T10:25:41.000Z</time>
      </trkpt>
      <trkpt lat="48.93011" lon="2.10586">
        <ele>113</ele>
        <time>2016-05-05T10:25:45.000Z</time>
      </trkpt>
      <trkpt lat="48.93005" lon="2.10584">
        <ele>112</ele>
        <time>2016-05-05T10:25:47.000Z</time>
      </trkpt>
      <trkpt lat="48.93" lon="2.10582">
        <ele>111</ele>
        <time>2016-05-05T10:25:50.000Z</time>
      </trkpt>
      <trkpt lat="48.93" lon="2.10582">
        <ele>111</ele>
        <time>2016-05-05T10:25:54.000Z</time>
      </trkpt>
      <trkpt lat="48.93025" lon="2.10597">
        <ele>115</ele>
        <time>2016-05-05T10:26:42.000Z</time>
      </trkpt>
      <trkpt lat="48.93039" lon="2.10605">
        <ele>115</ele>
        <time>2016-05-05T10:26:44.000Z</time>
      </trkpt>
      <trkpt lat="48.93047" lon="2.10609">
        <ele>114</ele>
        <time>2016-05-05T10:26:46.000Z</time>
      </trkpt>
      <trkpt lat="48.93053" lon="2.10611">
        <ele>114</ele>
        <time>2016-05-05T10:26:48.000Z</time>
      </trkpt>
      <trkpt lat="48.93056" lon="2.10613">
        <ele>113</ele>
        <time>2016-05-05T10:26:50.000Z</time>
      </trkpt>
      <trkpt lat="48.93056" lon="2.10613">
        <ele>113</ele>
        <time>2016-05-05T10:26:52.000Z</time>
      </trkpt>
      <trkpt lat="48.93066" lon="2.10612">
        <ele>112</ele>
        <time>2016-05-05T10:26:54.000Z</time>
      </trkpt>
      <trkpt lat="48.93066" lon="2.10612">
        <ele>112</ele>
        <time>2016-05-05T10:27:00.000Z</time>
      </trkpt>
      <trkpt lat="48.93066" lon="2.10612">
        <ele>112</ele>
        <time>2016-05-05T10:27:02.000Z</time>
      </trkpt>
      <trkpt lat="48.93066" lon="2.10612">
        <ele>112</ele>
        <time>2016-05-05T10:27:04.000Z</time>
      </trkpt>
      <trkpt lat="48.9311" lon="2.10621">
        <ele>108</ele>
        <time>2016-05-05T10:27:42.000Z</time>
      </trkpt>
      <trkpt lat="48.9311" lon="2.10621">
        <ele>108</ele>
        <time>2016-05-05T10:27:45.000Z</time>
      </trkpt>
      <trkpt lat="48.93121" lon="2.10625">
        <ele>108</ele>
        <time>2016-05-05T10:27:52.000Z</time>
      </trkpt>
      <trkpt lat="48.93121" lon="2.10625">
        <ele>108</ele>
        <time>2016-05-05T10:27:54.000Z</time>
      </trkpt>
      <trkpt lat="48.93121" lon="2.10625">
        <ele>108</ele>
        <time>2016-05-05T10:27:56.000Z</time>
      </trkpt>
      <trkpt lat="48.93121" lon="2.10625">
        <ele>108</ele>
        <time>2016-05-05T10:28:04.000Z</time>
      </trkpt>
      <trkpt lat="48.93178" lon="2.10631">
        <ele>117</ele>
        <time>2016-05-05T10:32:08.000Z</time>
      </trkpt>
      <trkpt lat="48.93208" lon="2.10634">
        <ele>117</ele>
        <time>2016-05-05T10:32:10.000Z</time>
      </trkpt>
      <trkpt lat="48.93224" lon="2.10635">
        <ele>117</ele>
        <time>2016-05-05T10:32:12.000Z</time>
      </trkpt>
      <trkpt lat="48.93233" lon="2.10634">
        <ele>117</ele>
        <time>2016-05-05T10:32:14.000Z</time>
      </trkpt>
      <trkpt lat="48.93238" lon="2.10633">
        <ele>117</ele>
        <time>2016-05-05T10:32:16.000Z</time>
      </trkpt>
      <trkpt lat="48.93245" lon="2.10629">
        <ele>117</ele>
        <time>2016-05-05T10:32:18.000Z</time>
      </trkpt>
      <trkpt lat="48.93245" lon="2.10629">
        <ele>117</ele>
        <time>2016-05-05T10:32:20.000Z</time>
      </trkpt>
      <trkpt lat="48.93245" lon="2.10629">
        <ele>117</ele>
        <time>2016-05-05T10:32:22.000Z</time>
      </trkpt>
      <trkpt lat="48.93245" lon="2.10629">
        <ele>117</ele>
        <time>2016-05-05T10:32:24.000Z</time>
      </trkpt>
      <trkpt lat="48.93245" lon="2.10629">
        <ele>117</ele>
        <time>2016-05-05T10:32:26.000Z</time>
      </trkpt>
      <trkpt lat="48.9325" lon="2.1061">
        <ele>117</ele>
        <time>2016-05-05T10:32:28.000Z</time>
      </trkpt>
      <trkpt lat="48.9325" lon="2.1061">
        <ele>117</ele>
        <time>2016-05-05T10:32:30.000Z</time>
      </trkpt>
      <trkpt lat="48.9325" lon="2.1061">
        <ele>117</ele>
        <time>2016-05-05T10:32:32.000Z</time>
      </trkpt>
      <trkpt lat="48.93251" lon="2.106">
        <ele>117</ele>
        <time>2016-05-05T10:32:34.000Z</time>
      </trkpt>
      <trkpt lat="48.93252" lon="2.1059">
        <ele>116</ele>
        <time>2016-05-05T10:32:40.000Z</time>
      </trkpt>
      <trkpt lat="48.93252" lon="2.1059">
        <ele>116</ele>
        <time>2016-05-05T10:32:44.000Z</time>
      </trkpt>
      <trkpt lat="48.93252" lon="2.1059">
        <ele>116</ele>
        <time>2016-05-05T10:32:46.000Z</time>
      </trkpt>
      <trkpt lat="48.93252" lon="2.1059">
        <ele>116</ele>
        <time>2016-05-05T10:32:48.000Z</time>
      </trkpt>
      <trkpt lat="48.93252" lon="2.1059">
        <ele>116</ele>
        <time>2016-05-05T10:32:50.000Z</time>
      </trkpt>
      <trkpt lat="48.93252" lon="2.10558">
        <ele>116</ele>
        <time>2016-05-05T10:33:02.000Z</time>
      </trkpt>
      <trkpt lat="48.93252" lon="2.10558">
        <ele>116</ele>
        <time>2016-05-05T10:33:10.000Z</time>
      </trkpt>
      <trkpt lat="48.93252" lon="2.10558">
        <ele>116</ele>
        <time>2016-05-05T10:33:12.000Z</time>
      </trkpt>
      <trkpt lat="48.93252" lon="2.10558">
        <ele>116</ele>
        <time>2016-05-05T10:33:14.000Z</time>
      </trkpt>
      <trkpt lat="48.93252" lon="2.10558">
        <ele>116</ele>
        <time>2016-05-05T10:33:16.000Z</time>
      </trkpt>
      <trkpt lat="48.9325" lon="2.10536">
        <ele>120</ele>
        <time>2016-05-05T10:33:20.000Z</time>
      </trkpt>
      <trkpt lat="48.9325" lon="2.10521">
        <ele>119</ele>
        <time>2016-05-05T10:33:28.000Z</time>
      </trkpt>
      <trkpt lat="48.9325" lon="2.10521">
        <ele>119</ele>
        <time>2016-05-05T10:33:30.000Z</time>
      </trkpt>
      <trkpt lat="48.9325" lon="2.10521">
        <ele>119</ele>
        <time>2016-05-05T10:33:32.000Z</time>
      </trkpt>
      <trkpt lat="48.9325" lon="2.10521">
        <ele>119</ele>
        <time>2016-05-05T10:33:34.000Z</time>
      </trkpt>
      <trkpt lat="48.93251" lon="2.10514">
        <ele>119</ele>
        <time>2016-05-05T10:33:38.000Z</time>
      </trkpt>
      <trkpt lat="48.93251" lon="2.10506">
        <ele>120</ele>
        <time>2016-05-05T10:33:42.000Z</time>
      </trkpt>
      <trkpt lat="48.93252" lon="2.105">
        <ele>120</ele>
        <time>2016-05-05T10:33:44.000Z</time>
      </trkpt>
      <trkpt lat="48.93251" lon="2.10495">
        <ele>119</ele>
        <time>2016-05-05T10:33:48.000Z</time>
      </trkpt>
      <trkpt lat="48.93251" lon="2.10488">
        <ele>119</ele>
        <time>2016-05-05T10:33:52.000Z</time>
      </trkpt>
      <trkpt lat="48.93251" lon="2.10483">
        <ele>119</ele>
        <time>2016-05-05T10:33:54.000Z</time>
      </trkpt>
      <trkpt lat="48.93251" lon="2.10483">
        <ele>119</ele>
        <time>2016-05-05T10:33:56.000Z</time>
      </trkpt>
      <trkpt lat="48.93252" lon="2.10477">
        <ele>119</ele>
        <time>2016-05-05T10:33:58.000Z</time>
      </trkpt>
      <trkpt lat="48.93252" lon="2.10477">
        <ele>119</ele>
        <time>2016-05-05T10:34:00.000Z</time>
      </trkpt>
      <trkpt lat="48.93252" lon="2.10471">
        <ele>119</ele>
        <time>2016-05-05T10:34:02.000Z</time>
      </trkpt>
      <trkpt lat="48.93252" lon="2.10471">
        <ele>119</ele>
        <time>2016-05-05T10:34:04.000Z</time>
      </trkpt>
      <trkpt lat="48.93252" lon="2.10466">
        <ele>118</ele>
        <time>2016-05-05T10:34:06.000Z</time>
      </trkpt>
      <trkpt lat="48.93251" lon="2.1046">
        <ele>119</ele>
        <time>2016-05-05T10:34:08.000Z</time>
      </trkpt>
      <trkpt lat="48.93251" lon="2.1046">
        <ele>119</ele>
        <time>2016-05-05T10:34:10.000Z</time>
      </trkpt>
      <trkpt lat="48.93251" lon="2.1046">
        <ele>119</ele>
        <time>2016-05-05T10:34:12.000Z</time>
      </trkpt>
      <trkpt lat="48.93251" lon="2.10454">
        <ele>119</ele>
        <time>2016-05-05T10:34:14.000Z</time>
      </trkpt>
      <trkpt lat="48.93252" lon="2.10448">
        <ele>119</ele>
        <time>2016-05-05T10:34:16.000Z</time>
      </trkpt>
      <trkpt lat="48.93252" lon="2.10448">
        <ele>119</ele>
        <time>2016-05-05T10:34:18.000Z</time>
      </trkpt>
      <trkpt lat="48.93253" lon="2.10442">
        <ele>118</ele>
        <time>2016-05-05T10:34:22.000Z</time>
      </trkpt>
      <trkpt lat="48.93254" lon="2.10437">
        <ele>118</ele>
        <time>2016-05-05T10:34:24.000Z</time>
      </trkpt>
      <trkpt lat="48.93254" lon="2.10437">
        <ele>118</ele>
        <time>2016-05-05T10:34:26.000Z</time>
      </trkpt>
      <trkpt lat="48.93256" lon="2.10431">
        <ele>117</ele>
        <time>2016-05-05T10:34:28.000Z</time>
      </trkpt>
      <trkpt lat="48.93256" lon="2.10431">
        <ele>117</ele>
        <time>2016-05-05T10:34:30.000Z</time>
      </trkpt>
      <trkpt lat="48.93256" lon="2.10431">
        <ele>117</ele>
        <time>2016-05-05T10:34:32.000Z</time>
      </trkpt>
      <trkpt lat="48.93262" lon="2.1041">
        <ele>117</ele>
        <time>2016-05-05T10:34:46.000Z</time>
      </trkpt>
      <trkpt lat="48.93266" lon="2.10399">
        <ele>117</ele>
        <time>2016-05-05T10:34:48.000Z</time>
      </trkpt>
      <trkpt lat="48.93268" lon="2.10392">
        <ele>118</ele>
        <time>2016-05-05T10:34:50.000Z</time>
      </trkpt>
      <trkpt lat="48.93269" lon="2.10388">
        <ele>118</ele>
        <time>2016-05-05T10:34:52.000Z</time>
      </trkpt>
      <trkpt lat="48.93269" lon="2.10388">
        <ele>118</ele>
        <time>2016-05-05T10:34:54.000Z</time>
      </trkpt>
      <trkpt lat="48.93269" lon="2.10388">
        <ele>118</ele>
        <time>2016-05-05T10:34:56.000Z</time>
      </trkpt>
      <trkpt lat="48.93271" lon="2.1038">
        <ele>119</ele>
        <time>2016-05-05T10:34:58.000Z</time>
      </trkpt>
      <trkpt lat="48.93271" lon="2.1038">
        <ele>119</ele>
        <time>2016-05-05T10:35:00.000Z</time>
      </trkpt>
      <trkpt lat="48.93271" lon="2.1038">
        <ele>119</ele>
        <time>2016-05-05T10:35:02.000Z</time>
      </trkpt>
      <trkpt lat="48.93271" lon="2.1038">
        <ele>119</ele>
        <time>2016-05-05T10:35:04.000Z</time>
      </trkpt>
      <trkpt lat="48.93271" lon="2.1038">
        <ele>119</ele>
        <time>2016-05-05T10:35:06.000Z</time>
      </trkpt>
      <trkpt lat="48.93275" lon="2.10345">
        <ele>117</ele>
        <time>2016-05-05T10:35:40.000Z</time>
      </trkpt>
      <trkpt lat="48.93277" lon="2.10325">
        <ele>117</ele>
        <time>2016-05-05T10:35:42.000Z</time>
      </trkpt>
      <trkpt lat="48.93279" lon="2.10313">
        <ele>117</ele>
        <time>2016-05-05T10:35:44.000Z</time>
      </trkpt>
      <trkpt lat="48.93279" lon="2.10306">
        <ele>117</ele>
        <time>2016-05-05T10:35:46.000Z</time>
      </trkpt>
      <trkpt lat="48.9328" lon="2.10301">
        <ele>118</ele>
        <time>2016-05-05T10:35:48.000Z</time>
      </trkpt>
      <trkpt lat="48.93281" lon="2.10292">
        <ele>118</ele>
        <time>2016-05-05T10:35:50.000Z</time>
      </trkpt>
      <trkpt lat="48.93281" lon="2.10292">
        <ele>118</ele>
        <time>2016-05-05T10:35:54.000Z</time>
      </trkpt>
      <trkpt lat="48.93281" lon="2.10292">
        <ele>118</ele>
        <time>2016-05-05T10:35:56.000Z</time>
      </trkpt>
      <trkpt lat="48.93281" lon="2.10281">
        <ele>117</ele>
        <time>2016-05-05T10:35:58.000Z</time>
      </trkpt>
      <trkpt lat="48.93284" lon="2.10264">
        <ele>117</ele>
        <time>2016-05-05T10:36:08.000Z</time>
      </trkpt>
      <trkpt lat="48.93284" lon="2.10264">
        <ele>117</ele>
        <time>2016-05-05T10:36:10.000Z</time>
      </trkpt>
      <trkpt lat="48.93283" lon="2.10252">
        <ele>116</ele>
        <time>2016-05-05T10:36:20.000Z</time>
      </trkpt>
      <trkpt lat="48.93283" lon="2.10252">
        <ele>116</ele>
        <time>2016-05-05T10:36:22.000Z</time>
      </trkpt>
      <trkpt lat="48.93288" lon="2.10242">
        <ele>115</ele>
        <time>2016-05-05T10:36:24.000Z</time>
      </trkpt>
      <trkpt lat="48.93288" lon="2.10242">
        <ele>115</ele>
        <time>2016-05-05T10:36:26.000Z</time>
      </trkpt>
      <trkpt lat="48.93288" lon="2.10233">
        <ele>116</ele>
        <time>2016-05-05T10:36:28.000Z</time>
      </trkpt>
      <trkpt lat="48.93288" lon="2.10233">
        <ele>116</ele>
        <time>2016-05-05T10:36:30.000Z</time>
      </trkpt>
      <trkpt lat="48.93288" lon="2.10233">
        <ele>116</ele>
        <time>2016-05-05T10:36:32.000Z</time>
      </trkpt>
      <trkpt lat="48.93288" lon="2.10233">
        <ele>116</ele>
        <time>2016-05-05T10:36:34.000Z</time>
      </trkpt>
      <trkpt lat="48.93288" lon="2.10222">
        <ele>116</ele>
        <time>2016-05-05T10:36:36.000Z</time>
      </trkpt>
      <trkpt lat="48.93288" lon="2.10222">
        <ele>116</ele>
        <time>2016-05-05T10:36:38.000Z</time>
      </trkpt>
      <trkpt lat="48.93288" lon="2.10222">
        <ele>116</ele>
        <time>2016-05-05T10:36:40.000Z</time>
      </trkpt>
      <trkpt lat="48.93288" lon="2.10222">
        <ele>116</ele>
        <time>2016-05-05T10:36:42.000Z</time>
      </trkpt>
      <trkpt lat="48.93288" lon="2.10222">
        <ele>116</ele>
        <time>2016-05-05T10:36:44.000Z</time>
      </trkpt>
      <trkpt lat="48.93288" lon="2.10222">
        <ele>116</ele>
        <time>2016-05-05T10:36:46.000Z</time>
      </trkpt>
      <trkpt lat="48.93288" lon="2.10222">
        <ele>116</ele>
        <time>2016-05-05T10:36:48.000Z</time>
      </trkpt>
      <trkpt lat="48.93288" lon="2.10222">
        <ele>116</ele>
        <time>2016-05-05T10:36:50.000Z</time>
      </trkpt>
      <trkpt lat="48.93288" lon="2.10222">
        <ele>116</ele>
        <time>2016-05-05T10:36:52.000Z</time>
      </trkpt>
      <trkpt lat="48.93288" lon="2.10222">
        <ele>116</ele>
        <time>2016-05-05T10:36:54.000Z</time>
      </trkpt>
      <trkpt lat="48.93288" lon="2.10222">
        <ele>116</ele>
        <time>2016-05-05T10:37:00.000Z</time>
      </trkpt>
      <trkpt lat="48.93289" lon="2.10194">
        <ele>115</ele>
        <time>2016-05-05T10:37:14.000Z</time>
      </trkpt>
      <trkpt lat="48.93289" lon="2.1018">
        <ele>115</ele>
        <time>2016-05-05T10:37:16.000Z</time>
      </trkpt>
      <trkpt lat="48.93289" lon="2.1018">
        <ele>115</ele>
        <time>2016-05-05T10:37:18.000Z</time>
      </trkpt>
      <trkpt lat="48.93289" lon="2.1018">
        <ele>115</ele>
        <time>2016-05-05T10:37:20.000Z</time>
      </trkpt>
      <trkpt lat="48.93289" lon="2.10162">
        <ele>114</ele>
        <time>2016-05-05T10:37:32.000Z</time>
      </trkpt>
      <trkpt lat="48.9329" lon="2.1015">
        <ele>114</ele>
        <time>2016-05-05T10:37:34.000Z</time>
      </trkpt>
      <trkpt lat="48.9329" lon="2.10144">
        <ele>114</ele>
        <time>2016-05-05T10:37:36.000Z</time>
      </trkpt>
      <trkpt lat="48.9329" lon="2.10138">
        <ele>114</ele>
        <time>2016-05-05T10:37:38.000Z</time>
      </trkpt>
      <trkpt lat="48.9329" lon="2.10138">
        <ele>114</ele>
        <time>2016-05-05T10:37:40.000Z</time>
      </trkpt>
      <trkpt lat="48.9329" lon="2.10132">
        <ele>114</ele>
        <time>2016-05-05T10:37:42.000Z</time>
      </trkpt>
      <trkpt lat="48.9329" lon="2.10132">
        <ele>114</ele>
        <time>2016-05-05T10:37:44.000Z</time>
      </trkpt>
      <trkpt lat="48.9329" lon="2.10126">
        <ele>114</ele>
        <time>2016-05-05T10:37:46.000Z</time>
      </trkpt>
      <trkpt lat="48.9329" lon="2.10126">
        <ele>114</ele>
        <time>2016-05-05T10:37:48.000Z</time>
      </trkpt>
      <trkpt lat="48.9329" lon="2.10126">
        <ele>114</ele>
        <time>2016-05-05T10:37:50.000Z</time>
      </trkpt>
      <trkpt lat="48.9329" lon="2.10126">
        <ele>114</ele>
        <time>2016-05-05T10:37:52.000Z</time>
      </trkpt>
      <trkpt lat="48.9329" lon="2.10114">
        <ele>114</ele>
        <time>2016-05-05T10:37:54.000Z</time>
      </trkpt>
      <trkpt lat="48.9329" lon="2.10106">
        <ele>114</ele>
        <time>2016-05-05T10:37:56.000Z</time>
      </trkpt>
      <trkpt lat="48.9329" lon="2.10101">
        <ele>114</ele>
        <time>2016-05-05T10:37:58.000Z</time>
      </trkpt>
      <trkpt lat="48.9329" lon="2.10095">
        <ele>113</ele>
        <time>2016-05-05T10:38:04.000Z</time>
      </trkpt>
      <trkpt lat="48.9329" lon="2.10095">
        <ele>113</ele>
        <time>2016-05-05T10:38:06.000Z</time>
      </trkpt>
      <trkpt lat="48.9329" lon="2.1009">
        <ele>114</ele>
        <time>2016-05-05T10:38:08.000Z</time>
      </trkpt>
      <trkpt lat="48.93291" lon="2.10085">
        <ele>114</ele>
        <time>2016-05-05T10:38:10.000Z</time>
      </trkpt>
      <trkpt lat="48.93291" lon="2.10085">
        <ele>114</ele>
        <time>2016-05-05T10:38:12.000Z</time>
      </trkpt>
      <trkpt lat="48.93291" lon="2.10079">
        <ele>114</ele>
        <time>2016-05-05T10:38:14.000Z</time>
      </trkpt>
      <trkpt lat="48.9329" lon="2.10073">
        <ele>114</ele>
        <time>2016-05-05T10:38:16.000Z</time>
      </trkpt>
      <trkpt lat="48.93289" lon="2.10069">
        <ele>115</ele>
        <time>2016-05-05T10:38:18.000Z</time>
      </trkpt>
      <trkpt lat="48.93289" lon="2.10062">
        <ele>115</ele>
        <time>2016-05-05T10:38:22.000Z</time>
      </trkpt>
      <trkpt lat="48.93289" lon="2.10062">
        <ele>115</ele>
        <time>2016-05-05T10:38:24.000Z</time>
      </trkpt>
      <trkpt lat="48.93289" lon="2.10062">
        <ele>115</ele>
        <time>2016-05-05T10:38:26.000Z</time>
      </trkpt>
      <trkpt lat="48.93289" lon="2.10062">
        <ele>115</ele>
        <time>2016-05-05T10:38:28.000Z</time>
      </trkpt>
      <trkpt lat="48.93289" lon="2.10062">
        <ele>115</ele>
        <time>2016-05-05T10:38:36.000Z</time>
      </trkpt>
      <trkpt lat="48.93289" lon="2.10062">
        <ele>115</ele>
        <time>2016-05-05T10:38:38.000Z</time>
      </trkpt>
      <trkpt lat="48.93282" lon="2.10057">
        <ele>109</ele>
        <time>2016-05-05T10:39:08.000Z</time>
      </trkpt>
      <trkpt lat="48.93277" lon="2.10053">
        <ele>109</ele>
        <time>2016-05-05T10:39:10.000Z</time>
      </trkpt>
      <trkpt lat="48.93274" lon="2.10051">
        <ele>109</ele>
        <time>2016-05-05T10:39:12.000Z</time>
      </trkpt>
      <trkpt lat="48.93272" lon="2.10049">
        <ele>110</ele>
        <time>2016-05-05T10:39:14.000Z</time>
      </trkpt>
      <trkpt lat="48.93272" lon="2.10049">
        <ele>110</ele>
        <time>2016-05-05T10:39:16.000Z</time>
      </trkpt>
      <trkpt lat="48.93268" lon="2.10046">
        <ele>110</ele>
        <time>2016-05-05T10:39:18.000Z</time>
      </trkpt>
      <trkpt lat="48.93265" lon="2.10043">
        <ele>112</ele>
        <time>2016-05-05T10:39:22.000Z</time>
      </trkpt>
      <trkpt lat="48.93261" lon="2.10037">
        <ele>113</ele>
        <time>2016-05-05T10:39:26.000Z</time>
      </trkpt>
      <trkpt lat="48.93259" lon="2.10034">
        <ele>114</ele>
        <time>2016-05-05T10:39:28.000Z</time>
      </trkpt>
      <trkpt lat="48.93256" lon="2.10032">
        <ele>114</ele>
        <time>2016-05-05T10:39:32.000Z</time>
      </trkpt>
      <trkpt lat="48.93256" lon="2.10032">
        <ele>114</ele>
        <time>2016-05-05T10:39:34.000Z</time>
      </trkpt>
      <trkpt lat="48.93256" lon="2.10032">
        <ele>114</ele>
        <time>2016-05-05T10:39:36.000Z</time>
      </trkpt>
      <trkpt lat="48.9325" lon="2.10029">
        <ele>115</ele>
        <time>2016-05-05T10:39:38.000Z</time>
      </trkpt>
      <trkpt lat="48.93245" lon="2.10027">
        <ele>115</ele>
        <time>2016-05-05T10:39:40.000Z</time>
      </trkpt>
      <trkpt lat="48.93245" lon="2.10027">
        <ele>115</ele>
        <time>2016-05-05T10:39:42.000Z</time>
      </trkpt>
      <trkpt lat="48.9324" lon="2.10022">
        <ele>116</ele>
        <time>2016-05-05T10:39:44.000Z</time>
      </trkpt>
      <trkpt lat="48.9324" lon="2.10022">
        <ele>116</ele>
        <time>2016-05-05T10:39:46.000Z</time>
      </trkpt>
      <trkpt lat="48.93235" lon="2.10018">
        <ele>116</ele>
        <time>2016-05-05T10:39:48.000Z</time>
      </trkpt>
      <trkpt lat="48.9323" lon="2.10015">
        <ele>116</ele>
        <time>2016-05-05T10:39:50.000Z</time>
      </trkpt>
      <trkpt lat="48.93226" lon="2.10013">
        <ele>117</ele>
        <time>2016-05-05T10:39:52.000Z</time>
      </trkpt>
      <trkpt lat="48.93226" lon="2.10013">
        <ele>117</ele>
        <time>2016-05-05T10:39:54.000Z</time>
      </trkpt>
      <trkpt lat="48.93221" lon="2.1001">
        <ele>118</ele>
        <time>2016-05-05T10:39:56.000Z</time>
      </trkpt>
      <trkpt lat="48.93217" lon="2.10008">
        <ele>119</ele>
        <time>2016-05-05T10:39:58.000Z</time>
      </trkpt>
      <trkpt lat="48.93217" lon="2.10008">
        <ele>119</ele>
        <time>2016-05-05T10:40:00.000Z</time>
      </trkpt>
      <trkpt lat="48.93213" lon="2.10005">
        <ele>119</ele>
        <time>2016-05-05T10:40:02.000Z</time>
      </trkpt>
      <trkpt lat="48.93213" lon="2.10005">
        <ele>119</ele>
        <time>2016-05-05T10:40:04.000Z</time>
      </trkpt>
      <trkpt lat="48.93209" lon="2.10003">
        <ele>120</ele>
        <time>2016-05-05T10:40:06.000Z</time>
      </trkpt>
      <trkpt lat="48.93206" lon="2.10001">
        <ele>120</ele>
        <time>2016-05-05T10:40:08.000Z</time>
      </trkpt>
      <trkpt lat="48.93202" lon="2.09997">
        <ele>120</ele>
        <time>2016-05-05T10:40:12.000Z</time>
      </trkpt>
      <trkpt lat="48.93199" lon="2.09995">
        <ele>120</ele>
        <time>2016-05-05T10:40:16.000Z</time>
      </trkpt>
      <trkpt lat="48.93199" lon="2.09995">
        <ele>120</ele>
        <time>2016-05-05T10:40:18.000Z</time>
      </trkpt>
      <trkpt lat="48.93196" lon="2.09994">
        <ele>120</ele>
        <time>2016-05-05T10:40:20.000Z</time>
      </trkpt>
      <trkpt lat="48.93193" lon="2.09992">
        <ele>119</ele>
        <time>2016-05-05T10:40:22.000Z</time>
      </trkpt>
      <trkpt lat="48.93193" lon="2.09992">
        <ele>119</ele>
        <time>2016-05-05T10:40:24.000Z</time>
      </trkpt>
      <trkpt lat="48.93189" lon="2.09992">
        <ele>119</ele>
        <time>2016-05-05T10:40:26.000Z</time>
      </trkpt>
      <trkpt lat="48.93189" lon="2.09992">
        <ele>119</ele>
        <time>2016-05-05T10:40:28.000Z</time>
      </trkpt>
      <trkpt lat="48.93189" lon="2.09992">
        <ele>119</ele>
        <time>2016-05-05T10:40:30.000Z</time>
      </trkpt>
      <trkpt lat="48.93186" lon="2.09993">
        <ele>119</ele>
        <time>2016-05-05T10:40:32.000Z</time>
      </trkpt>
      <trkpt lat="48.93182" lon="2.09993">
        <ele>119</ele>
        <time>2016-05-05T10:40:36.000Z</time>
      </trkpt>
      <trkpt lat="48.93182" lon="2.09993">
        <ele>119</ele>
        <time>2016-05-05T10:40:38.000Z</time>
      </trkpt>
      <trkpt lat="48.93182" lon="2.09993">
        <ele>119</ele>
        <time>2016-05-05T10:40:40.000Z</time>
      </trkpt>
      <trkpt lat="48.93178" lon="2.09993">
        <ele>119</ele>
        <time>2016-05-05T10:40:42.000Z</time>
      </trkpt>
      <trkpt lat="48.93178" lon="2.09993">
        <ele>119</ele>
        <time>2016-05-05T10:40:44.000Z</time>
      </trkpt>
      <trkpt lat="48.93178" lon="2.09993">
        <ele>119</ele>
        <time>2016-05-05T10:40:46.000Z</time>
      </trkpt>
      <trkpt lat="48.93175" lon="2.09992">
        <ele>118</ele>
        <time>2016-05-05T10:40:48.000Z</time>
      </trkpt>
      <trkpt lat="48.9317" lon="2.0999">
        <ele>118</ele>
        <time>2016-05-05T10:40:52.000Z</time>
      </trkpt>
      <trkpt lat="48.93167" lon="2.09988">
        <ele>118</ele>
        <time>2016-05-05T10:40:54.000Z</time>
      </trkpt>
      <trkpt lat="48.93162" lon="2.09986">
        <ele>118</ele>
        <time>2016-05-05T10:41:00.000Z</time>
      </trkpt>
      <trkpt lat="48.93162" lon="2.09986">
        <ele>118</ele>
        <time>2016-05-05T10:41:02.000Z</time>
      </trkpt>
      <trkpt lat="48.93157" lon="2.09983">
        <ele>118</ele>
        <time>2016-05-05T10:41:04.000Z</time>
      </trkpt>
      <trkpt lat="48.93151" lon="2.0998">
        <ele>118</ele>
        <time>2016-05-05T10:41:06.000Z</time>
      </trkpt>
      <trkpt lat="48.93147" lon="2.09976">
        <ele>118</ele>
        <time>2016-05-05T10:41:08.000Z</time>
      </trkpt>
      <trkpt lat="48.93144" lon="2.09973">
        <ele>118</ele>
        <time>2016-05-05T10:41:10.000Z</time>
      </trkpt>
      <trkpt lat="48.93144" lon="2.09973">
        <ele>118</ele>
        <time>2016-05-05T10:41:12.000Z</time>
      </trkpt>
      <trkpt lat="48.9314" lon="2.09967">
        <ele>119</ele>
        <time>2016-05-05T10:41:14.000Z</time>
      </trkpt>
      <trkpt lat="48.93135" lon="2.09965">
        <ele>119</ele>
        <time>2016-05-05T10:41:16.000Z</time>
      </trkpt>
      <trkpt lat="48.9313" lon="2.09964">
        <ele>119</ele>
        <time>2016-05-05T10:41:18.000Z</time>
      </trkpt>
      <trkpt lat="48.9313" lon="2.09964">
        <ele>119</ele>
        <time>2016-05-05T10:41:20.000Z</time>
      </trkpt>
      <trkpt lat="48.9313" lon="2.09964">
        <ele>119</ele>
        <time>2016-05-05T10:41:22.000Z</time>
      </trkpt>
      <trkpt lat="48.9313" lon="2.09964">
        <ele>119</ele>
        <time>2016-05-05T10:41:24.000Z</time>
      </trkpt>
      <trkpt lat="48.93125" lon="2.09962">
        <ele>119</ele>
        <time>2016-05-05T10:41:26.000Z</time>
      </trkpt>
      <trkpt lat="48.93121" lon="2.0996">
        <ele>119</ele>
        <time>2016-05-05T10:41:30.000Z</time>
      </trkpt>
      <trkpt lat="48.93116" lon="2.09958">
        <ele>119</ele>
        <time>2016-05-05T10:41:34.000Z</time>
      </trkpt>
      <trkpt lat="48.93112" lon="2.09955">
        <ele>119</ele>
        <time>2016-05-05T10:41:38.000Z</time>
      </trkpt>
      <trkpt lat="48.9311" lon="2.09953">
        <ele>119</ele>
        <time>2016-05-05T10:41:40.000Z</time>
      </trkpt>
      <trkpt lat="48.9311" lon="2.09953">
        <ele>119</ele>
        <time>2016-05-05T10:41:42.000Z</time>
      </trkpt>
      <trkpt lat="48.9311" lon="2.09953">
        <ele>119</ele>
        <time>2016-05-05T10:41:44.000Z</time>
      </trkpt>
      <trkpt lat="48.9311" lon="2.09953">
        <ele>119</ele>
        <time>2016-05-05T10:41:46.000Z</time>
      </trkpt>
      <trkpt lat="48.93106" lon="2.09957">
        <ele>118</ele>
        <time>2016-05-05T10:41:48.000Z</time>
      </trkpt>
      <trkpt lat="48.93104" lon="2.09964">
        <ele>117</ele>
        <time>2016-05-05T10:41:52.000Z</time>
      </trkpt>
      <trkpt lat="48.93104" lon="2.09964">
        <ele>117</ele>
        <time>2016-05-05T10:41:54.000Z</time>
      </trkpt>
      <trkpt lat="48.93104" lon="2.09964">
        <ele>117</ele>
        <time>2016-05-05T10:41:56.000Z</time>
      </trkpt>
      <trkpt lat="48.93103" lon="2.09971">
        <ele>116</ele>
        <time>2016-05-05T10:41:58.000Z</time>
      </trkpt>
      <trkpt lat="48.93103" lon="2.09971">
        <ele>116</ele>
        <time>2016-05-05T10:42:00.000Z</time>
      </trkpt>
      <trkpt lat="48.93102" lon="2.09979">
        <ele>114</ele>
        <time>2016-05-05T10:42:02.000Z</time>
      </trkpt>
      <trkpt lat="48.93102" lon="2.09984">
        <ele>114</ele>
        <time>2016-05-05T10:42:04.000Z</time>
      </trkpt>
      <trkpt lat="48.93102" lon="2.09984">
        <ele>114</ele>
        <time>2016-05-05T10:42:06.000Z</time>
      </trkpt>
      <trkpt lat="48.93102" lon="2.09984">
        <ele>114</ele>
        <time>2016-05-05T10:42:08.000Z</time>
      </trkpt>
      <trkpt lat="48.93103" lon="2.09991">
        <ele>113</ele>
        <time>2016-05-05T10:42:10.000Z</time>
      </trkpt>
      <trkpt lat="48.93103" lon="2.09991">
        <ele>113</ele>
        <time>2016-05-05T10:42:14.000Z</time>
      </trkpt>
      <trkpt lat="48.93103" lon="2.09991">
        <ele>113</ele>
        <time>2016-05-05T10:42:16.000Z</time>
      </trkpt>
      <trkpt lat="48.93106" lon="2.10003">
        <ele>111</ele>
        <time>2016-05-05T10:42:24.000Z</time>
      </trkpt>
      <trkpt lat="48.93108" lon="2.1001">
        <ele>111</ele>
        <time>2016-05-05T10:42:26.000Z</time>
      </trkpt>
      <trkpt lat="48.93107" lon="2.1002">
        <ele>111</ele>
        <time>2016-05-05T10:42:32.000Z</time>
      </trkpt>
      <trkpt lat="48.93107" lon="2.1002">
        <ele>111</ele>
        <time>2016-05-05T10:42:34.000Z</time>
      </trkpt>
      <trkpt lat="48.93105" lon="2.10027">
        <ele>112</ele>
        <time>2016-05-05T10:42:36.000Z</time>
      </trkpt>
      <trkpt lat="48.93103" lon="2.1003">
        <ele>112</ele>
        <time>2016-05-05T10:42:38.000Z</time>
      </trkpt>
      <trkpt lat="48.93103" lon="2.1003">
        <ele>112</ele>
        <time>2016-05-05T10:42:40.000Z</time>
      </trkpt>
      <trkpt lat="48.93105" lon="2.10028">
        <ele>113</ele>
        <time>2016-05-05T11:43:27.000Z</time>
      </trkpt>
      <trkpt lat="48.931" lon="2.10015">
        <ele>114</ele>
        <time>2016-05-05T11:45:47.000Z</time>
      </trkpt>
      <trkpt lat="48.93098" lon="2.10008">
        <ele>113</ele>
        <time>2016-05-05T11:45:49.000Z</time>
      </trkpt>
      <trkpt lat="48.93098" lon="2.10008">
        <ele>113</ele>
        <time>2016-05-05T11:45:51.000Z</time>
      </trkpt>
      <trkpt lat="48.93098" lon="2.10008">
        <ele>113</ele>
        <time>2016-05-05T11:45:53.000Z</time>
      </trkpt>
      <trkpt lat="48.93101" lon="2.09986">
        <ele>109</ele>
        <time>2016-05-05T11:46:12.000Z</time>
      </trkpt>
      <trkpt lat="48.93102" lon="2.09973">
        <ele>109</ele>
        <time>2016-05-05T11:46:14.000Z</time>
      </trkpt>
      <trkpt lat="48.93103" lon="2.09966">
        <ele>108</ele>
        <time>2016-05-05T11:46:16.000Z</time>
      </trkpt>
      <trkpt lat="48.93103" lon="2.09966">
        <ele>108</ele>
        <time>2016-05-05T11:46:18.000Z</time>
      </trkpt>
      <trkpt lat="48.93103" lon="2.09966">
        <ele>108</ele>
        <time>2016-05-05T11:46:22.000Z</time>
      </trkpt>
      <trkpt lat="48.93088" lon="2.09955">
        <ele>104</ele>
        <time>2016-05-05T11:48:12.000Z</time>
      </trkpt>
      <trkpt lat="48.93079" lon="2.09949">
        <ele>104</ele>
        <time>2016-05-05T11:48:14.000Z</time>
      </trkpt>
      <trkpt lat="48.93074" lon="2.09943">
        <ele>104</ele>
        <time>2016-05-05T11:48:16.000Z</time>
      </trkpt>
      <trkpt lat="48.93074" lon="2.09943">
        <ele>104</ele>
        <time>2016-05-05T11:48:18.000Z</time>
      </trkpt>
      <trkpt lat="48.93069" lon="2.09938">
        <ele>104</ele>
        <time>2016-05-05T11:48:20.000Z</time>
      </trkpt>
      <trkpt lat="48.93069" lon="2.09938">
        <ele>104</ele>
        <time>2016-05-05T11:48:22.000Z</time>
      </trkpt>
      <trkpt lat="48.93061" lon="2.09929">
        <ele>107</ele>
        <time>2016-05-05T11:48:36.000Z</time>
      </trkpt>
      <trkpt lat="48.93057" lon="2.09922">
        <ele>107</ele>
        <time>2016-05-05T11:48:38.000Z</time>
      </trkpt>
      <trkpt lat="48.93053" lon="2.09917">
        <ele>108</ele>
        <time>2016-05-05T11:48:42.000Z</time>
      </trkpt>
      <trkpt lat="48.93053" lon="2.09917">
        <ele>108</ele>
        <time>2016-05-05T11:48:46.000Z</time>
      </trkpt>
      <trkpt lat="48.93053" lon="2.09917">
        <ele>108</ele>
        <time>2016-05-05T11:48:48.000Z</time>
      </trkpt>
      <trkpt lat="48.93048" lon="2.09913">
        <ele>110</ele>
        <time>2016-05-05T11:48:50.000Z</time>
      </trkpt>
      <trkpt lat="48.93044" lon="2.0991">
        <ele>112</ele>
        <time>2016-05-05T11:48:54.000Z</time>
      </trkpt>
      <trkpt lat="48.93039" lon="2.09907">
        <ele>113</ele>
        <time>2016-05-05T11:48:58.000Z</time>
      </trkpt>
      <trkpt lat="48.93034" lon="2.09905">
        <ele>114</ele>
        <time>2016-05-05T11:49:02.000Z</time>
      </trkpt>
      <trkpt lat="48.93034" lon="2.09905">
        <ele>114</ele>
        <time>2016-05-05T11:49:04.000Z</time>
      </trkpt>
      <trkpt lat="48.93034" lon="2.09905">
        <ele>114</ele>
        <time>2016-05-05T11:49:06.000Z</time>
      </trkpt>
      <trkpt lat="48.93034" lon="2.09905">
        <ele>114</ele>
        <time>2016-05-05T11:49:08.000Z</time>
      </trkpt>
      <trkpt lat="48.9303" lon="2.09904">
        <ele>115</ele>
        <time>2016-05-05T11:49:10.000Z</time>
      </trkpt>
      <trkpt lat="48.93027" lon="2.09903">
        <ele>115</ele>
        <time>2016-05-05T11:49:12.000Z</time>
      </trkpt>
      <trkpt lat="48.93027" lon="2.09903">
        <ele>115</ele>
        <time>2016-05-05T11:49:14.000Z</time>
      </trkpt>
      <trkpt lat="48.93024" lon="2.09901">
        <ele>116</ele>
        <time>2016-05-05T11:49:18.000Z</time>
      </trkpt>
      <trkpt lat="48.93019" lon="2.09899">
        <ele>117</ele>
        <time>2016-05-05T11:49:24.000Z</time>
      </trkpt>
      <trkpt lat="48.93019" lon="2.09899">
        <ele>117</ele>
        <time>2016-05-05T11:49:26.000Z</time>
      </trkpt>
      <trkpt lat="48.93019" lon="2.09899">
        <ele>117</ele>
        <time>2016-05-05T11:49:28.000Z</time>
      </trkpt>
      <trkpt lat="48.93013" lon="2.09896">
        <ele>119</ele>
        <time>2016-05-05T11:49:30.000Z</time>
      </trkpt>
      <trkpt lat="48.93009" lon="2.09894">
        <ele>119</ele>
        <time>2016-05-05T11:49:34.000Z</time>
      </trkpt>
      <trkpt lat="48.93009" lon="2.09894">
        <ele>119</ele>
        <time>2016-05-05T11:49:36.000Z</time>
      </trkpt>
      <trkpt lat="48.93009" lon="2.09894">
        <ele>119</ele>
        <time>2016-05-05T11:49:38.000Z</time>
      </trkpt>
      <trkpt lat="48.93004" lon="2.09893">
        <ele>119</ele>
        <time>2016-05-05T11:49:40.000Z</time>
      </trkpt>
      <trkpt lat="48.92998" lon="2.09893">
        <ele>119</ele>
        <time>2016-05-05T11:49:44.000Z</time>
      </trkpt>
      <trkpt lat="48.92992" lon="2.09893">
        <ele>119</ele>
        <time>2016-05-05T11:49:48.000Z</time>
      </trkpt>
      <trkpt lat="48.92992" lon="2.09893">
        <ele>119</ele>
        <time>2016-05-05T11:49:50.000Z</time>
      </trkpt>
      <trkpt lat="48.92987" lon="2.09892">
        <ele>118</ele>
        <time>2016-05-05T11:49:52.000Z</time>
      </trkpt>
      <trkpt lat="48.92983" lon="2.0989">
        <ele>118</ele>
        <time>2016-05-05T11:49:58.000Z</time>
      </trkpt>
      <trkpt lat="48.9298" lon="2.09889">
        <ele>118</ele>
        <time>2016-05-05T11:50:00.000Z</time>
      </trkpt>
      <trkpt lat="48.9298" lon="2.09889">
        <ele>118</ele>
        <time>2016-05-05T11:50:02.000Z</time>
      </trkpt>
      <trkpt lat="48.92977" lon="2.09888">
        <ele>118</ele>
        <time>2016-05-05T11:50:04.000Z</time>
      </trkpt>
      <trkpt lat="48.92973" lon="2.09887">
        <ele>118</ele>
        <time>2016-05-05T11:50:08.000Z</time>
      </trkpt>
      <trkpt lat="48.92969" lon="2.09887">
        <ele>118</ele>
        <time>2016-05-05T11:50:10.000Z</time>
      </trkpt>
      <trkpt lat="48.92966" lon="2.09886">
        <ele>117</ele>
        <time>2016-05-05T11:50:12.000Z</time>
      </trkpt>
      <trkpt lat="48.92963" lon="2.09885">
        <ele>117</ele>
        <time>2016-05-05T11:50:16.000Z</time>
      </trkpt>
      <trkpt lat="48.9296" lon="2.09884">
        <ele>117</ele>
        <time>2016-05-05T11:50:22.000Z</time>
      </trkpt>
      <trkpt lat="48.9296" lon="2.09884">
        <ele>117</ele>
        <time>2016-05-05T11:50:24.000Z</time>
      </trkpt>
      <trkpt lat="48.92957" lon="2.09882">
        <ele>116</ele>
        <time>2016-05-05T11:50:26.000Z</time>
      </trkpt>
      <trkpt lat="48.92954" lon="2.09881">
        <ele>116</ele>
        <time>2016-05-05T11:50:30.000Z</time>
      </trkpt>
      <trkpt lat="48.92954" lon="2.09881">
        <ele>116</ele>
        <time>2016-05-05T11:50:34.000Z</time>
      </trkpt>
      <trkpt lat="48.9295" lon="2.09878">
        <ele>116</ele>
        <time>2016-05-05T11:50:36.000Z</time>
      </trkpt>
      <trkpt lat="48.92947" lon="2.09876">
        <ele>116</ele>
        <time>2016-05-05T11:50:40.000Z</time>
      </trkpt>
      <trkpt lat="48.92942" lon="2.09872">
        <ele>117</ele>
        <time>2016-05-05T11:50:44.000Z</time>
      </trkpt>
      <trkpt lat="48.92938" lon="2.09868">
        <ele>117</ele>
        <time>2016-05-05T11:50:46.000Z</time>
      </trkpt>
      <trkpt lat="48.92934" lon="2.09867">
        <ele>117</ele>
        <time>2016-05-05T11:50:50.000Z</time>
      </trkpt>
      <trkpt lat="48.92931" lon="2.09865">
        <ele>117</ele>
        <time>2016-05-05T11:50:52.000Z</time>
      </trkpt>
      <trkpt lat="48.92927" lon="2.09863">
        <ele>117</ele>
        <time>2016-05-05T11:50:56.000Z</time>
      </trkpt>
      <trkpt lat="48.92923" lon="2.09861">
        <ele>117</ele>
        <time>2016-05-05T11:51:00.000Z</time>
      </trkpt>
      <trkpt lat="48.9292" lon="2.09859">
        <ele>117</ele>
        <time>2016-05-05T11:51:02.000Z</time>
      </trkpt>
      <trkpt lat="48.9292" lon="2.09859">
        <ele>117</ele>
        <time>2016-05-05T11:51:04.000Z</time>
      </trkpt>
      <trkpt lat="48.9292" lon="2.09859">
        <ele>117</ele>
        <time>2016-05-05T11:51:06.000Z</time>
      </trkpt>
      <trkpt lat="48.92915" lon="2.09857">
        <ele>118</ele>
        <time>2016-05-05T11:51:08.000Z</time>
      </trkpt>
      <trkpt lat="48.92912" lon="2.09856">
        <ele>118</ele>
        <time>2016-05-05T11:51:10.000Z</time>
      </trkpt>
      <trkpt lat="48.92912" lon="2.09856">
        <ele>118</ele>
        <time>2016-05-05T11:51:12.000Z</time>
      </trkpt>
      <trkpt lat="48.92912" lon="2.09856">
        <ele>118</ele>
        <time>2016-05-05T11:51:14.000Z</time>
      </trkpt>
      <trkpt lat="48.92907" lon="2.09855">
        <ele>118</ele>
        <time>2016-05-05T11:51:16.000Z</time>
      </trkpt>
      <trkpt lat="48.92902" lon="2.09855">
        <ele>118</ele>
        <time>2016-05-05T11:51:18.000Z</time>
      </trkpt>
      <trkpt lat="48.92899" lon="2.09855">
        <ele>118</ele>
        <time>2016-05-05T11:51:20.000Z</time>
      </trkpt>
      <trkpt lat="48.92896" lon="2.09855">
        <ele>118</ele>
        <time>2016-05-05T11:51:22.000Z</time>
      </trkpt>
      <trkpt lat="48.92893" lon="2.09855">
        <ele>118</ele>
        <time>2016-05-05T11:51:26.000Z</time>
      </trkpt>
      <trkpt lat="48.92893" lon="2.09855">
        <ele>118</ele>
        <time>2016-05-05T11:51:28.000Z</time>
      </trkpt>
      <trkpt lat="48.92889" lon="2.09855">
        <ele>118</ele>
        <time>2016-05-05T11:51:30.000Z</time>
      </trkpt>
      <trkpt lat="48.92886" lon="2.09854">
        <ele>118</ele>
        <time>2016-05-05T11:51:34.000Z</time>
      </trkpt>
      <trkpt lat="48.92883" lon="2.09852">
        <ele>118</ele>
        <time>2016-05-05T11:51:38.000Z</time>
      </trkpt>
      <trkpt lat="48.92883" lon="2.09852">
        <ele>118</ele>
        <time>2016-05-05T11:51:40.000Z</time>
      </trkpt>
      <trkpt lat="48.92879" lon="2.0985">
        <ele>118</ele>
        <time>2016-05-05T11:51:42.000Z</time>
      </trkpt>
      <trkpt lat="48.92879" lon="2.0985">
        <ele>118</ele>
        <time>2016-05-05T11:51:44.000Z</time>
      </trkpt>
      <trkpt lat="48.92877" lon="2.09847">
        <ele>117</ele>
        <time>2016-05-05T11:51:48.000Z</time>
      </trkpt>
      <trkpt lat="48.92875" lon="2.09845">
        <ele>117</ele>
        <time>2016-05-05T11:51:50.000Z</time>
      </trkpt>
      <trkpt lat="48.92875" lon="2.09845">
        <ele>117</ele>
        <time>2016-05-05T11:51:52.000Z</time>
      </trkpt>
      <trkpt lat="48.92875" lon="2.09845">
        <ele>117</ele>
        <time>2016-05-05T11:51:54.000Z</time>
      </trkpt>
      <trkpt lat="48.92871" lon="2.0984">
        <ele>118</ele>
        <time>2016-05-05T11:52:00.000Z</time>
      </trkpt>
      <trkpt lat="48.92871" lon="2.0984">
        <ele>118</ele>
        <time>2016-05-05T11:52:04.000Z</time>
      </trkpt>
      <trkpt lat="48.92871" lon="2.0984">
        <ele>118</ele>
        <time>2016-05-05T11:52:06.000Z</time>
      </trkpt>
      <trkpt lat="48.92871" lon="2.0984">
        <ele>118</ele>
        <time>2016-05-05T11:52:08.000Z</time>
      </trkpt>
      <trkpt lat="48.9286" lon="2.09834">
        <ele>118</ele>
        <time>2016-05-05T11:52:52.000Z</time>
      </trkpt>
      <trkpt lat="48.92854" lon="2.09829">
        <ele>118</ele>
        <time>2016-05-05T11:52:54.000Z</time>
      </trkpt>
      <trkpt lat="48.92849" lon="2.09826">
        <ele>118</ele>
        <time>2016-05-05T11:52:56.000Z</time>
      </trkpt>
      <trkpt lat="48.92844" lon="2.09823">
        <ele>117</ele>
        <time>2016-05-05T11:53:00.000Z</time>
      </trkpt>
      <trkpt lat="48.9284" lon="2.09821">
        <ele>117</ele>
        <time>2016-05-05T11:53:02.000Z</time>
      </trkpt>
      <trkpt lat="48.92836" lon="2.09821">
        <ele>117</ele>
        <time>2016-05-05T11:53:04.000Z</time>
      </trkpt>
      <trkpt lat="48.92831" lon="2.09816">
        <ele>117</ele>
        <time>2016-05-05T11:53:10.000Z</time>
      </trkpt>
      <trkpt lat="48.92826" lon="2.09814">
        <ele>117</ele>
        <time>2016-05-05T11:53:18.000Z</time>
      </trkpt>
      <trkpt lat="48.92826" lon="2.09814">
        <ele>117</ele>
        <time>2016-05-05T11:53:20.000Z</time>
      </trkpt>
      <trkpt lat="48.92826" lon="2.09814">
        <ele>117</ele>
        <time>2016-05-05T11:53:22.000Z</time>
      </trkpt>
      <trkpt lat="48.92823" lon="2.09811">
        <ele>116</ele>
        <time>2016-05-05T11:53:24.000Z</time>
      </trkpt>
      <trkpt lat="48.92823" lon="2.09811">
        <ele>116</ele>
        <time>2016-05-05T11:53:26.000Z</time>
      </trkpt>
      <trkpt lat="48.9282" lon="2.09808">
        <ele>116</ele>
        <time>2016-05-05T11:53:28.000Z</time>
      </trkpt>
      <trkpt lat="48.9282" lon="2.09808">
        <ele>116</ele>
        <time>2016-05-05T11:53:30.000Z</time>
      </trkpt>
      <trkpt lat="48.9282" lon="2.09808">
        <ele>116</ele>
        <time>2016-05-05T11:53:32.000Z</time>
      </trkpt>
      <trkpt lat="48.9282" lon="2.09808">
        <ele>116</ele>
        <time>2016-05-05T11:53:34.000Z</time>
      </trkpt>
      <trkpt lat="48.92812" lon="2.09802">
        <ele>116</ele>
        <time>2016-05-05T11:53:46.000Z</time>
      </trkpt>
      <trkpt lat="48.92808" lon="2.09798">
        <ele>116</ele>
        <time>2016-05-05T11:53:48.000Z</time>
      </trkpt>
      <trkpt lat="48.92804" lon="2.09794">
        <ele>117</ele>
        <time>2016-05-05T11:53:52.000Z</time>
      </trkpt>
      <trkpt lat="48.92804" lon="2.09794">
        <ele>117</ele>
        <time>2016-05-05T11:53:58.000Z</time>
      </trkpt>
      <trkpt lat="48.92804" lon="2.09794">
        <ele>117</ele>
        <time>2016-05-05T11:54:00.000Z</time>
      </trkpt>
      <trkpt lat="48.9279" lon="2.09787">
        <ele>115</ele>
        <time>2016-05-05T11:54:43.000Z</time>
      </trkpt>
      <trkpt lat="48.92782" lon="2.09784">
        <ele>115</ele>
        <time>2016-05-05T11:54:45.000Z</time>
      </trkpt>
      <trkpt lat="48.92778" lon="2.09782">
        <ele>115</ele>
        <time>2016-05-05T11:54:47.000Z</time>
      </trkpt>
      <trkpt lat="48.92778" lon="2.09782">
        <ele>115</ele>
        <time>2016-05-05T11:54:49.000Z</time>
      </trkpt>
      <trkpt lat="48.92773" lon="2.0978">
        <ele>116</ele>
        <time>2016-05-05T11:54:53.000Z</time>
      </trkpt>
      <trkpt lat="48.92768" lon="2.09777">
        <ele>116</ele>
        <time>2016-05-05T11:54:59.000Z</time>
      </trkpt>
      <trkpt lat="48.92768" lon="2.09777">
        <ele>116</ele>
        <time>2016-05-05T11:55:01.000Z</time>
      </trkpt>
      <trkpt lat="48.92764" lon="2.09771">
        <ele>116</ele>
        <time>2016-05-05T11:55:03.000Z</time>
      </trkpt>
      <trkpt lat="48.92764" lon="2.09771">
        <ele>116</ele>
        <time>2016-05-05T11:55:05.000Z</time>
      </trkpt>
      <trkpt lat="48.9276" lon="2.09766">
        <ele>116</ele>
        <time>2016-05-05T11:55:07.000Z</time>
      </trkpt>
      <trkpt lat="48.92757" lon="2.09762">
        <ele>116</ele>
        <time>2016-05-05T11:55:09.000Z</time>
      </trkpt>
      <trkpt lat="48.92755" lon="2.09759">
        <ele>116</ele>
        <time>2016-05-05T11:55:11.000Z</time>
      </trkpt>
      <trkpt lat="48.92751" lon="2.09755">
        <ele>116</ele>
        <time>2016-05-05T11:55:19.000Z</time>
      </trkpt>
      <trkpt lat="48.92748" lon="2.09752">
        <ele>116</ele>
        <time>2016-05-05T11:55:21.000Z</time>
      </trkpt>
      <trkpt lat="48.92743" lon="2.09749">
        <ele>117</ele>
        <time>2016-05-05T11:55:27.000Z</time>
      </trkpt>
      <trkpt lat="48.92743" lon="2.09749">
        <ele>117</ele>
        <time>2016-05-05T11:55:29.000Z</time>
      </trkpt>
      <trkpt lat="48.92738" lon="2.09747">
        <ele>117</ele>
        <time>2016-05-05T11:55:31.000Z</time>
      </trkpt>
      <trkpt lat="48.92734" lon="2.09745">
        <ele>118</ele>
        <time>2016-05-05T11:55:35.000Z</time>
      </trkpt>
      <trkpt lat="48.92734" lon="2.09745">
        <ele>118</ele>
        <time>2016-05-05T11:55:37.000Z</time>
      </trkpt>
      <trkpt lat="48.92734" lon="2.09745">
        <ele>118</ele>
        <time>2016-05-05T11:55:39.000Z</time>
      </trkpt>
      <trkpt lat="48.92734" lon="2.09745">
        <ele>118</ele>
        <time>2016-05-05T11:55:41.000Z</time>
      </trkpt>
      <trkpt lat="48.92729" lon="2.09742">
        <ele>118</ele>
        <time>2016-05-05T11:55:43.000Z</time>
      </trkpt>
      <trkpt lat="48.92725" lon="2.09738">
        <ele>117</ele>
        <time>2016-05-05T11:55:47.000Z</time>
      </trkpt>
      <trkpt lat="48.9272" lon="2.09734">
        <ele>116</ele>
        <time>2016-05-05T11:55:51.000Z</time>
      </trkpt>
      <trkpt lat="48.9272" lon="2.09734">
        <ele>116</ele>
        <time>2016-05-05T11:55:53.000Z</time>
      </trkpt>
      <trkpt lat="48.92717" lon="2.09729">
        <ele>116</ele>
        <time>2016-05-05T11:55:55.000Z</time>
      </trkpt>
      <trkpt lat="48.92717" lon="2.09729">
        <ele>116</ele>
        <time>2016-05-05T11:55:57.000Z</time>
      </trkpt>
      <trkpt lat="48.92714" lon="2.09723">
        <ele>115</ele>
        <time>2016-05-05T11:55:59.000Z</time>
      </trkpt>
      <trkpt lat="48.92711" lon="2.0972">
        <ele>115</ele>
        <time>2016-05-05T11:56:01.000Z</time>
      </trkpt>
      <trkpt lat="48.92711" lon="2.0972">
        <ele>115</ele>
        <time>2016-05-05T11:56:03.000Z</time>
      </trkpt>
      <trkpt lat="48.92711" lon="2.0972">
        <ele>115</ele>
        <time>2016-05-05T11:56:05.000Z</time>
      </trkpt>
      <trkpt lat="48.92706" lon="2.09716">
        <ele>114</ele>
        <time>2016-05-05T11:56:07.000Z</time>
      </trkpt>
      <trkpt lat="48.92706" lon="2.09716">
        <ele>114</ele>
        <time>2016-05-05T11:56:09.000Z</time>
      </trkpt>
      <trkpt lat="48.92701" lon="2.09714">
        <ele>115</ele>
        <time>2016-05-05T11:56:11.000Z</time>
      </trkpt>
      <trkpt lat="48.92696" lon="2.09713">
        <ele>115</ele>
        <time>2016-05-05T11:56:15.000Z</time>
      </trkpt>
      <trkpt lat="48.92696" lon="2.09713">
        <ele>115</ele>
        <time>2016-05-05T11:56:17.000Z</time>
      </trkpt>
      <trkpt lat="48.92696" lon="2.09713">
        <ele>115</ele>
        <time>2016-05-05T11:56:19.000Z</time>
      </trkpt>
      <trkpt lat="48.92691" lon="2.09711">
        <ele>115</ele>
        <time>2016-05-05T11:56:21.000Z</time>
      </trkpt>
      <trkpt lat="48.92688" lon="2.09708">
        <ele>115</ele>
        <time>2016-05-05T11:56:23.000Z</time>
      </trkpt>
      <trkpt lat="48.92688" lon="2.09708">
        <ele>115</ele>
        <time>2016-05-05T11:56:25.000Z</time>
      </trkpt>
      <trkpt lat="48.92688" lon="2.09708">
        <ele>115</ele>
        <time>2016-05-05T11:56:27.000Z</time>
      </trkpt>
      <trkpt lat="48.92685" lon="2.09703">
        <ele>116</ele>
        <time>2016-05-05T11:56:29.000Z</time>
      </trkpt>
      <trkpt lat="48.92681" lon="2.097">
        <ele>116</ele>
        <time>2016-05-05T11:56:35.000Z</time>
      </trkpt>
      <trkpt lat="48.92681" lon="2.097">
        <ele>116</ele>
        <time>2016-05-05T11:56:37.000Z</time>
      </trkpt>
      <trkpt lat="48.92681" lon="2.097">
        <ele>116</ele>
        <time>2016-05-05T11:56:39.000Z</time>
      </trkpt>
      <trkpt lat="48.92681" lon="2.097">
        <ele>116</ele>
        <time>2016-05-05T11:56:41.000Z</time>
      </trkpt>
      <trkpt lat="48.92678" lon="2.09695">
        <ele>115</ele>
        <time>2016-05-05T11:56:43.000Z</time>
      </trkpt>
      <trkpt lat="48.92678" lon="2.09695">
        <ele>115</ele>
        <time>2016-05-05T11:56:45.000Z</time>
      </trkpt>
      <trkpt lat="48.92678" lon="2.09695">
        <ele>115</ele>
        <time>2016-05-05T11:56:47.000Z</time>
      </trkpt>
      <trkpt lat="48.92678" lon="2.09695">
        <ele>115</ele>
        <time>2016-05-05T11:56:49.000Z</time>
      </trkpt>
      <trkpt lat="48.92678" lon="2.09695">
        <ele>115</ele>
        <time>2016-05-05T11:56:51.000Z</time>
      </trkpt>
      <trkpt lat="48.92678" lon="2.09695">
        <ele>115</ele>
        <time>2016-05-05T11:56:59.000Z</time>
      </trkpt>
      <trkpt lat="48.92678" lon="2.09695">
        <ele>115</ele>
        <time>2016-05-05T11:57:01.000Z</time>
      </trkpt>
      <trkpt lat="48.92671" lon="2.09689">
        <ele>114</ele>
        <time>2016-05-05T11:57:07.000Z</time>
      </trkpt>
      <trkpt lat="48.92671" lon="2.09689">
        <ele>114</ele>
        <time>2016-05-05T11:57:09.000Z</time>
      </trkpt>
      <trkpt lat="48.92671" lon="2.09689">
        <ele>114</ele>
        <time>2016-05-05T11:57:11.000Z</time>
      </trkpt>
      <trkpt lat="48.92671" lon="2.09689">
        <ele>114</ele>
        <time>2016-05-05T11:57:13.000Z</time>
      </trkpt>
      <trkpt lat="48.92666" lon="2.09687">
        <ele>114</ele>
        <time>2016-05-05T11:57:15.000Z</time>
      </trkpt>
      <trkpt lat="48.92661" lon="2.09684">
        <ele>113</ele>
        <time>2016-05-05T11:57:19.000Z</time>
      </trkpt>
      <trkpt lat="48.92656" lon="2.09683">
        <ele>113</ele>
        <time>2016-05-05T11:57:23.000Z</time>
      </trkpt>
      <trkpt lat="48.92651" lon="2.0968">
        <ele>113</ele>
        <time>2016-05-05T11:57:25.000Z</time>
      </trkpt>
      <trkpt lat="48.92651" lon="2.0968">
        <ele>113</ele>
        <time>2016-05-05T11:57:27.000Z</time>
      </trkpt>
      <trkpt lat="48.92647" lon="2.09678">
        <ele>114</ele>
        <time>2016-05-05T11:57:29.000Z</time>
      </trkpt>
      <trkpt lat="48.92647" lon="2.09678">
        <ele>114</ele>
        <time>2016-05-05T11:57:31.000Z</time>
      </trkpt>
      <trkpt lat="48.92642" lon="2.09677">
        <ele>114</ele>
        <time>2016-05-05T11:57:33.000Z</time>
      </trkpt>
      <trkpt lat="48.92636" lon="2.09675">
        <ele>115</ele>
        <time>2016-05-05T11:57:37.000Z</time>
      </trkpt>
      <trkpt lat="48.92631" lon="2.09674">
        <ele>115</ele>
        <time>2016-05-05T11:57:39.000Z</time>
      </trkpt>
      <trkpt lat="48.92626" lon="2.09672">
        <ele>116</ele>
        <time>2016-05-05T11:57:43.000Z</time>
      </trkpt>
      <trkpt lat="48.92622" lon="2.0967">
        <ele>116</ele>
        <time>2016-05-05T11:57:49.000Z</time>
      </trkpt>
      <trkpt lat="48.92622" lon="2.0967">
        <ele>116</ele>
        <time>2016-05-05T11:57:51.000Z</time>
      </trkpt>
      <trkpt lat="48.92622" lon="2.0967">
        <ele>116</ele>
        <time>2016-05-05T11:57:53.000Z</time>
      </trkpt>
      <trkpt lat="48.92617" lon="2.09667">
        <ele>117</ele>
        <time>2016-05-05T11:57:55.000Z</time>
      </trkpt>
      <trkpt lat="48.92617" lon="2.09667">
        <ele>117</ele>
        <time>2016-05-05T11:57:57.000Z</time>
      </trkpt>
      <trkpt lat="48.92612" lon="2.09663">
        <ele>116</ele>
        <time>2016-05-05T11:57:59.000Z</time>
      </trkpt>
      <trkpt lat="48.92612" lon="2.09663">
        <ele>116</ele>
        <time>2016-05-05T11:58:01.000Z</time>
      </trkpt>
      <trkpt lat="48.92608" lon="2.09659">
        <ele>116</ele>
        <time>2016-05-05T11:58:03.000Z</time>
      </trkpt>
      <trkpt lat="48.92608" lon="2.09659">
        <ele>116</ele>
        <time>2016-05-05T11:58:05.000Z</time>
      </trkpt>
      <trkpt lat="48.92604" lon="2.09654">
        <ele>115</ele>
        <time>2016-05-05T11:58:07.000Z</time>
      </trkpt>
      <trkpt lat="48.926" lon="2.09649">
        <ele>115</ele>
        <time>2016-05-05T11:58:11.000Z</time>
      </trkpt>
      <trkpt lat="48.92596" lon="2.09645">
        <ele>115</ele>
        <time>2016-05-05T11:58:15.000Z</time>
      </trkpt>
      <trkpt lat="48.92596" lon="2.09645">
        <ele>115</ele>
        <time>2016-05-05T11:58:17.000Z</time>
      </trkpt>
      <trkpt lat="48.92596" lon="2.09645">
        <ele>115</ele>
        <time>2016-05-05T11:58:19.000Z</time>
      </trkpt>
      <trkpt lat="48.9259" lon="2.09641">
        <ele>115</ele>
        <time>2016-05-05T11:58:25.000Z</time>
      </trkpt>
      <trkpt lat="48.92585" lon="2.09637">
        <ele>115</ele>
        <time>2016-05-05T11:58:29.000Z</time>
      </trkpt>
      <trkpt lat="48.92585" lon="2.09637">
        <ele>115</ele>
        <time>2016-05-05T11:58:31.000Z</time>
      </trkpt>
      <trkpt lat="48.92585" lon="2.09637">
        <ele>115</ele>
        <time>2016-05-05T11:58:33.000Z</time>
      </trkpt>
      <trkpt lat="48.92585" lon="2.09637">
        <ele>115</ele>
        <time>2016-05-05T11:58:41.000Z</time>
      </trkpt>
      <trkpt lat="48.92585" lon="2.09637">
        <ele>115</ele>
        <time>2016-05-05T11:58:43.000Z</time>
      </trkpt>
      <trkpt lat="48.92574" lon="2.09629">
        <ele>127</ele>
        <time>2016-05-05T11:59:51.000Z</time>
      </trkpt>
      <trkpt lat="48.92567" lon="2.09624">
        <ele>126</ele>
        <time>2016-05-05T11:59:53.000Z</time>
      </trkpt>
      <trkpt lat="48.92563" lon="2.0962">
        <ele>126</ele>
        <time>2016-05-05T11:59:55.000Z</time>
      </trkpt>
      <trkpt lat="48.92563" lon="2.0962">
        <ele>126</ele>
        <time>2016-05-05T11:59:57.000Z</time>
      </trkpt>
      <trkpt lat="48.92563" lon="2.0962">
        <ele>126</ele>
        <time>2016-05-05T11:59:59.000Z</time>
      </trkpt>
      <trkpt lat="48.92563" lon="2.0962">
        <ele>126</ele>
        <time>2016-05-05T12:00:01.000Z</time>
      </trkpt>
      <trkpt lat="48.92559" lon="2.09616">
        <ele>124</ele>
        <time>2016-05-05T12:00:03.000Z</time>
      </trkpt>
      <trkpt lat="48.92555" lon="2.09613">
        <ele>123</ele>
        <time>2016-05-05T12:00:05.000Z</time>
      </trkpt>
      <trkpt lat="48.92552" lon="2.0961">
        <ele>123</ele>
        <time>2016-05-05T12:00:07.000Z</time>
      </trkpt>
      <trkpt lat="48.92552" lon="2.0961">
        <ele>123</ele>
        <time>2016-05-05T12:00:09.000Z</time>
      </trkpt>
      <trkpt lat="48.92552" lon="2.0961">
        <ele>123</ele>
        <time>2016-05-05T12:00:11.000Z</time>
      </trkpt>
      <trkpt lat="48.92552" lon="2.0961">
        <ele>123</ele>
        <time>2016-05-05T12:00:13.000Z</time>
      </trkpt>
      <trkpt lat="48.92552" lon="2.0961">
        <ele>123</ele>
        <time>2016-05-05T12:00:31.000Z</time>
      </trkpt>
      <trkpt lat="48.92541" lon="2.0961">
        <ele>117</ele>
        <time>2016-05-05T12:00:37.000Z</time>
      </trkpt>
      <trkpt lat="48.92533" lon="2.09611">
        <ele>117</ele>
        <time>2016-05-05T12:00:39.000Z</time>
      </trkpt>
      <trkpt lat="48.9253" lon="2.09611">
        <ele>117</ele>
        <time>2016-05-05T12:00:41.000Z</time>
      </trkpt>
      <trkpt lat="48.9253" lon="2.09611">
        <ele>117</ele>
        <time>2016-05-05T12:00:43.000Z</time>
      </trkpt>
      <trkpt lat="48.9253" lon="2.09611">
        <ele>117</ele>
        <time>2016-05-05T12:00:45.000Z</time>
      </trkpt>
      <trkpt lat="48.9253" lon="2.09611">
        <ele>117</ele>
        <time>2016-05-05T12:00:47.000Z</time>
      </trkpt>
      <trkpt lat="48.9253" lon="2.09611">
        <ele>117</ele>
        <time>2016-05-05T12:00:49.000Z</time>
      </trkpt>
      <trkpt lat="48.9253" lon="2.09611">
        <ele>117</ele>
        <time>2016-05-05T12:00:51.000Z</time>
      </trkpt>
      <trkpt lat="48.92522" lon="2.09615">
        <ele>117</ele>
        <time>2016-05-05T12:02:31.000Z</time>
      </trkpt>
      <trkpt lat="48.92516" lon="2.09616">
        <ele>117</ele>
        <time>2016-05-05T12:02:33.000Z</time>
      </trkpt>
      <trkpt lat="48.92516" lon="2.09616">
        <ele>117</ele>
        <time>2016-05-05T12:02:35.000Z</time>
      </trkpt>
      <trkpt lat="48.92511" lon="2.09618">
        <ele>117</ele>
        <time>2016-05-05T12:02:37.000Z</time>
      </trkpt>
      <trkpt lat="48.92506" lon="2.09621">
        <ele>116</ele>
        <time>2016-05-05T12:02:43.000Z</time>
      </trkpt>
      <trkpt lat="48.92506" lon="2.09621">
        <ele>116</ele>
        <time>2016-05-05T12:02:45.000Z</time>
      </trkpt>
      <trkpt lat="48.92501" lon="2.09624">
        <ele>116</ele>
        <time>2016-05-05T12:02:47.000Z</time>
      </trkpt>
      <trkpt lat="48.92501" lon="2.09624">
        <ele>116</ele>
        <time>2016-05-05T12:02:49.000Z</time>
      </trkpt>
      <trkpt lat="48.92496" lon="2.09625">
        <ele>115</ele>
        <time>2016-05-05T12:02:51.000Z</time>
      </trkpt>
      <trkpt lat="48.92492" lon="2.09626">
        <ele>115</ele>
        <time>2016-05-05T12:02:53.000Z</time>
      </trkpt>
      <trkpt lat="48.92492" lon="2.09626">
        <ele>115</ele>
        <time>2016-05-05T12:02:55.000Z</time>
      </trkpt>
      <trkpt lat="48.92487" lon="2.09627">
        <ele>115</ele>
        <time>2016-05-05T12:02:57.000Z</time>
      </trkpt>
      <trkpt lat="48.92487" lon="2.09627">
        <ele>115</ele>
        <time>2016-05-05T12:03:01.000Z</time>
      </trkpt>
      <trkpt lat="48.92487" lon="2.09627">
        <ele>115</ele>
        <time>2016-05-05T12:03:03.000Z</time>
      </trkpt>
      <trkpt lat="48.92487" lon="2.09627">
        <ele>115</ele>
        <time>2016-05-05T12:03:05.000Z</time>
      </trkpt>
      <trkpt lat="48.92487" lon="2.09627">
        <ele>115</ele>
        <time>2016-05-05T12:03:07.000Z</time>
      </trkpt>
      <trkpt lat="48.92487" lon="2.09627">
        <ele>115</ele>
        <time>2016-05-05T12:03:09.000Z</time>
      </trkpt>
      <trkpt lat="48.92477" lon="2.09621">
        <ele>116</ele>
        <time>2016-05-05T12:03:24.000Z</time>
      </trkpt>
      <trkpt lat="48.92472" lon="2.09618">
        <ele>116</ele>
        <time>2016-05-05T12:03:26.000Z</time>
      </trkpt>
      <trkpt lat="48.92466" lon="2.09615">
        <ele>115</ele>
        <time>2016-05-05T12:03:30.000Z</time>
      </trkpt>
      <trkpt lat="48.92466" lon="2.09615">
        <ele>115</ele>
        <time>2016-05-05T12:03:34.000Z</time>
      </trkpt>
      <trkpt lat="48.92466" lon="2.09615">
        <ele>115</ele>
        <time>2016-05-05T12:03:36.000Z</time>
      </trkpt>
      <trkpt lat="48.92466" lon="2.09615">
        <ele>115</ele>
        <time>2016-05-05T12:03:38.000Z</time>
      </trkpt>
      <trkpt lat="48.92466" lon="2.09615">
        <ele>115</ele>
        <time>2016-05-05T12:03:40.000Z</time>
      </trkpt>
      <trkpt lat="48.92455" lon="2.09614">
        <ele>114</ele>
        <time>2016-05-05T12:03:44.000Z</time>
      </trkpt>
      <trkpt lat="48.92455" lon="2.09614">
        <ele>114</ele>
        <time>2016-05-05T12:03:46.000Z</time>
      </trkpt>
      <trkpt lat="48.92455" lon="2.09614">
        <ele>114</ele>
        <time>2016-05-05T12:03:48.000Z</time>
      </trkpt>
      <trkpt lat="48.92441" lon="2.09616">
        <ele>115</ele>
        <time>2016-05-05T12:03:58.000Z</time>
      </trkpt>
      <trkpt lat="48.92432" lon="2.09617">
        <ele>115</ele>
        <time>2016-05-05T12:04:00.000Z</time>
      </trkpt>
      <trkpt lat="48.92428" lon="2.09617">
        <ele>115</ele>
        <time>2016-05-05T12:04:02.000Z</time>
      </trkpt>
      <trkpt lat="48.92428" lon="2.09617">
        <ele>115</ele>
        <time>2016-05-05T12:04:04.000Z</time>
      </trkpt>
      <trkpt lat="48.92428" lon="2.09617">
        <ele>115</ele>
        <time>2016-05-05T12:04:06.000Z</time>
      </trkpt>
      <trkpt lat="48.92422" lon="2.09617">
        <ele>116</ele>
        <time>2016-05-05T12:04:08.000Z</time>
      </trkpt>
      <trkpt lat="48.92422" lon="2.09617">
        <ele>116</ele>
        <time>2016-05-05T12:04:12.000Z</time>
      </trkpt>
      <trkpt lat="48.92417" lon="2.09616">
        <ele>117</ele>
        <time>2016-05-05T12:04:14.000Z</time>
      </trkpt>
      <trkpt lat="48.92417" lon="2.09616">
        <ele>117</ele>
        <time>2016-05-05T12:04:16.000Z</time>
      </trkpt>
      <trkpt lat="48.92417" lon="2.09616">
        <ele>117</ele>
        <time>2016-05-05T12:04:18.000Z</time>
      </trkpt>
      <trkpt lat="48.92417" lon="2.09616">
        <ele>117</ele>
        <time>2016-05-05T12:04:20.000Z</time>
      </trkpt>
      <trkpt lat="48.92417" lon="2.09616">
        <ele>117</ele>
        <time>2016-05-05T12:04:22.000Z</time>
      </trkpt>
      <trkpt lat="48.9241" lon="2.09616">
        <ele>116</ele>
        <time>2016-05-05T12:04:24.000Z</time>
      </trkpt>
      <trkpt lat="48.92405" lon="2.09616">
        <ele>116</ele>
        <time>2016-05-05T12:04:26.000Z</time>
      </trkpt>
      <trkpt lat="48.92405" lon="2.09616">
        <ele>116</ele>
        <time>2016-05-05T12:04:28.000Z</time>
      </trkpt>
      <trkpt lat="48.92405" lon="2.09616">
        <ele>116</ele>
        <time>2016-05-05T12:04:30.000Z</time>
      </trkpt>
      <trkpt lat="48.92405" lon="2.09616">
        <ele>116</ele>
        <time>2016-05-05T12:04:32.000Z</time>
      </trkpt>
      <trkpt lat="48.92398" lon="2.09616">
        <ele>116</ele>
        <time>2016-05-05T12:04:34.000Z</time>
      </trkpt>
      <trkpt lat="48.92398" lon="2.09616">
        <ele>116</ele>
        <time>2016-05-05T12:04:36.000Z</time>
      </trkpt>
      <trkpt lat="48.92393" lon="2.09615">
        <ele>115</ele>
        <time>2016-05-05T12:04:38.000Z</time>
      </trkpt>
      <trkpt lat="48.92393" lon="2.09615">
        <ele>115</ele>
        <time>2016-05-05T12:04:40.000Z</time>
      </trkpt>
      <trkpt lat="48.92393" lon="2.09615">
        <ele>115</ele>
        <time>2016-05-05T12:04:42.000Z</time>
      </trkpt>
      <trkpt lat="48.92389" lon="2.09615">
        <ele>115</ele>
        <time>2016-05-05T12:04:44.000Z</time>
      </trkpt>
      <trkpt lat="48.92383" lon="2.09616">
        <ele>115</ele>
        <time>2016-05-05T12:04:48.000Z</time>
      </trkpt>
      <trkpt lat="48.92383" lon="2.09616">
        <ele>115</ele>
        <time>2016-05-05T12:04:50.000Z</time>
      </trkpt>
      <trkpt lat="48.92379" lon="2.09617">
        <ele>115</ele>
        <time>2016-05-05T12:04:52.000Z</time>
      </trkpt>
      <trkpt lat="48.92373" lon="2.09618">
        <ele>115</ele>
        <time>2016-05-05T12:04:58.000Z</time>
      </trkpt>
      <trkpt lat="48.92373" lon="2.09618">
        <ele>115</ele>
        <time>2016-05-05T12:05:04.000Z</time>
      </trkpt>
      <trkpt lat="48.92361" lon="2.09615">
        <ele>115</ele>
        <time>2016-05-05T12:05:16.000Z</time>
      </trkpt>
      <trkpt lat="48.92355" lon="2.09614">
        <ele>116</ele>
        <time>2016-05-05T12:05:18.000Z</time>
      </trkpt>
      <trkpt lat="48.92355" lon="2.09614">
        <ele>116</ele>
        <time>2016-05-05T12:05:20.000Z</time>
      </trkpt>
      <trkpt lat="48.9235" lon="2.09613">
        <ele>116</ele>
        <time>2016-05-05T12:05:22.000Z</time>
      </trkpt>
      <trkpt lat="48.92345" lon="2.09612">
        <ele>117</ele>
        <time>2016-05-05T12:05:28.000Z</time>
      </trkpt>
      <trkpt lat="48.92345" lon="2.09612">
        <ele>117</ele>
        <time>2016-05-05T12:05:30.000Z</time>
      </trkpt>
      <trkpt lat="48.92345" lon="2.09612">
        <ele>117</ele>
        <time>2016-05-05T12:05:32.000Z</time>
      </trkpt>
      <trkpt lat="48.92339" lon="2.09612">
        <ele>117</ele>
        <time>2016-05-05T12:05:34.000Z</time>
      </trkpt>
      <trkpt lat="48.92335" lon="2.09613">
        <ele>117</ele>
        <time>2016-05-05T12:05:36.000Z</time>
      </trkpt>
      <trkpt lat="48.92331" lon="2.09615">
        <ele>117</ele>
        <time>2016-05-05T12:05:38.000Z</time>
      </trkpt>
      <trkpt lat="48.92327" lon="2.09618">
        <ele>117</ele>
        <time>2016-05-05T12:05:40.000Z</time>
      </trkpt>
      <trkpt lat="48.92322" lon="2.0962">
        <ele>116</ele>
        <time>2016-05-05T12:05:44.000Z</time>
      </trkpt>
      <trkpt lat="48.92317" lon="2.09621">
        <ele>116</ele>
        <time>2016-05-05T12:05:46.000Z</time>
      </trkpt>
      <trkpt lat="48.92313" lon="2.09622">
        <ele>116</ele>
        <time>2016-05-05T12:05:50.000Z</time>
      </trkpt>
      <trkpt lat="48.92313" lon="2.09622">
        <ele>116</ele>
        <time>2016-05-05T12:05:52.000Z</time>
      </trkpt>
      <trkpt lat="48.92313" lon="2.09622">
        <ele>116</ele>
        <time>2016-05-05T12:05:54.000Z</time>
      </trkpt>
      <trkpt lat="48.92313" lon="2.09622">
        <ele>116</ele>
        <time>2016-05-05T12:06:12.000Z</time>
      </trkpt>
      <trkpt lat="48.92313" lon="2.09622">
        <ele>116</ele>
        <time>2016-05-05T12:06:14.000Z</time>
      </trkpt>
      <trkpt lat="48.92279" lon="2.09622">
        <ele>117</ele>
        <time>2016-05-05T12:06:54.000Z</time>
      </trkpt>
      <trkpt lat="48.92262" lon="2.09623">
        <ele>117</ele>
        <time>2016-05-05T12:06:56.000Z</time>
      </trkpt>
      <trkpt lat="48.92252" lon="2.09623">
        <ele>117</ele>
        <time>2016-05-05T12:06:58.000Z</time>
      </trkpt>
      <trkpt lat="48.92252" lon="2.09623">
        <ele>117</ele>
        <time>2016-05-05T12:07:00.000Z</time>
      </trkpt>
      <trkpt lat="48.92252" lon="2.09623">
        <ele>117</ele>
        <time>2016-05-05T12:07:02.000Z</time>
      </trkpt>
      <trkpt lat="48.92252" lon="2.09623">
        <ele>117</ele>
        <time>2016-05-05T12:07:04.000Z</time>
      </trkpt>
      <trkpt lat="48.92252" lon="2.09623">
        <ele>117</ele>
        <time>2016-05-05T12:07:06.000Z</time>
      </trkpt>
      <trkpt lat="48.92244" lon="2.09626">
        <ele>116</ele>
        <time>2016-05-05T12:07:08.000Z</time>
      </trkpt>
      <trkpt lat="48.92239" lon="2.09628">
        <ele>116</ele>
        <time>2016-05-05T12:07:10.000Z</time>
      </trkpt>
      <trkpt lat="48.92239" lon="2.09628">
        <ele>116</ele>
        <time>2016-05-05T12:07:12.000Z</time>
      </trkpt>
      <trkpt lat="48.92235" lon="2.09629">
        <ele>116</ele>
        <time>2016-05-05T12:07:14.000Z</time>
      </trkpt>
      <trkpt lat="48.92235" lon="2.09629">
        <ele>116</ele>
        <time>2016-05-05T12:07:16.000Z</time>
      </trkpt>
      <trkpt lat="48.92235" lon="2.09629">
        <ele>116</ele>
        <time>2016-05-05T12:07:18.000Z</time>
      </trkpt>
      <trkpt lat="48.92235" lon="2.09629">
        <ele>116</ele>
        <time>2016-05-05T12:07:20.000Z</time>
      </trkpt>
      <trkpt lat="48.92235" lon="2.09629">
        <ele>116</ele>
        <time>2016-05-05T12:07:22.000Z</time>
      </trkpt>
      <trkpt lat="48.92226" lon="2.09628">
        <ele>118</ele>
        <time>2016-05-05T12:07:26.000Z</time>
      </trkpt>
      <trkpt lat="48.92221" lon="2.09627">
        <ele>118</ele>
        <time>2016-05-05T12:07:28.000Z</time>
      </trkpt>
      <trkpt lat="48.92221" lon="2.09627">
        <ele>118</ele>
        <time>2016-05-05T12:07:30.000Z</time>
      </trkpt>
      <trkpt lat="48.92221" lon="2.09627">
        <ele>118</ele>
        <time>2016-05-05T12:07:32.000Z</time>
      </trkpt>
      <trkpt lat="48.92221" lon="2.09627">
        <ele>118</ele>
        <time>2016-05-05T12:07:36.000Z</time>
      </trkpt>
      <trkpt lat="48.92221" lon="2.09627">
        <ele>118</ele>
        <time>2016-05-05T12:07:38.000Z</time>
      </trkpt>
      <trkpt lat="48.92221" lon="2.09627">
        <ele>118</ele>
        <time>2016-05-05T12:07:45.000Z</time>
      </trkpt>
      <trkpt lat="48.92221" lon="2.09627">
        <ele>118</ele>
        <time>2016-05-05T12:07:47.000Z</time>
      </trkpt>
      <trkpt lat="48.92197" lon="2.09624">
        <ele>117</ele>
        <time>2016-05-05T12:08:17.000Z</time>
      </trkpt>
      <trkpt lat="48.92184" lon="2.09622">
        <ele>117</ele>
        <time>2016-05-05T12:08:19.000Z</time>
      </trkpt>
      <trkpt lat="48.92176" lon="2.09621">
        <ele>117</ele>
        <time>2016-05-05T12:08:21.000Z</time>
      </trkpt>
      <trkpt lat="48.92171" lon="2.0962">
        <ele>117</ele>
        <time>2016-05-05T12:08:23.000Z</time>
      </trkpt>
      <trkpt lat="48.92171" lon="2.0962">
        <ele>117</ele>
        <time>2016-05-05T12:08:25.000Z</time>
      </trkpt>
      <trkpt lat="48.92167" lon="2.0962">
        <ele>117</ele>
        <time>2016-05-05T12:08:27.000Z</time>
      </trkpt>
      <trkpt lat="48.92161" lon="2.09619">
        <ele>117</ele>
        <time>2016-05-05T12:08:35.000Z</time>
      </trkpt>
      <trkpt lat="48.92156" lon="2.09618">
        <ele>117</ele>
        <time>2016-05-05T12:08:39.000Z</time>
      </trkpt>
      <trkpt lat="48.92152" lon="2.09616">
        <ele>117</ele>
        <time>2016-05-05T12:08:41.000Z</time>
      </trkpt>
      <trkpt lat="48.9215" lon="2.09616">
        <ele>117</ele>
        <time>2016-05-05T12:08:43.000Z</time>
      </trkpt>
      <trkpt lat="48.92145" lon="2.09614">
        <ele>117</ele>
        <time>2016-05-05T12:08:49.000Z</time>
      </trkpt>
      <trkpt lat="48.92145" lon="2.09614">
        <ele>117</ele>
        <time>2016-05-05T12:08:51.000Z</time>
      </trkpt>
      <trkpt lat="48.9214" lon="2.09614">
        <ele>118</ele>
        <time>2016-05-05T12:08:55.000Z</time>
      </trkpt>
      <trkpt lat="48.92134" lon="2.09615">
        <ele>117</ele>
        <time>2016-05-05T12:09:01.000Z</time>
      </trkpt>
      <trkpt lat="48.9213" lon="2.09616">
        <ele>117</ele>
        <time>2016-05-05T12:09:03.000Z</time>
      </trkpt>
      <trkpt lat="48.92126" lon="2.09616">
        <ele>117</ele>
        <time>2016-05-05T12:09:05.000Z</time>
      </trkpt>
      <trkpt lat="48.92126" lon="2.09616">
        <ele>117</ele>
        <time>2016-05-05T12:09:07.000Z</time>
      </trkpt>
      <trkpt lat="48.92126" lon="2.09616">
        <ele>117</ele>
        <time>2016-05-05T12:09:09.000Z</time>
      </trkpt>
      <trkpt lat="48.92122" lon="2.09616">
        <ele>117</ele>
        <time>2016-05-05T12:09:13.000Z</time>
      </trkpt>
      <trkpt lat="48.92116" lon="2.09617">
        <ele>117</ele>
        <time>2016-05-05T12:09:19.000Z</time>
      </trkpt>
      <trkpt lat="48.92111" lon="2.09616">
        <ele>116</ele>
        <time>2016-05-05T12:09:23.000Z</time>
      </trkpt>
      <trkpt lat="48.92111" lon="2.09616">
        <ele>116</ele>
        <time>2016-05-05T12:09:25.000Z</time>
      </trkpt>
      <trkpt lat="48.92106" lon="2.09616">
        <ele>115</ele>
        <time>2016-05-05T12:09:27.000Z</time>
      </trkpt>
      <trkpt lat="48.92106" lon="2.09616">
        <ele>115</ele>
        <time>2016-05-05T12:09:29.000Z</time>
      </trkpt>
      <trkpt lat="48.92101" lon="2.09616">
        <ele>115</ele>
        <time>2016-05-05T12:09:31.000Z</time>
      </trkpt>
      <trkpt lat="48.92101" lon="2.09616">
        <ele>115</ele>
        <time>2016-05-05T12:09:33.000Z</time>
      </trkpt>
      <trkpt lat="48.92095" lon="2.09616">
        <ele>115</ele>
        <time>2016-05-05T12:09:35.000Z</time>
      </trkpt>
      <trkpt lat="48.9209" lon="2.09615">
        <ele>115</ele>
        <time>2016-05-05T12:09:39.000Z</time>
      </trkpt>
      <trkpt lat="48.92086" lon="2.09615">
        <ele>115</ele>
        <time>2016-05-05T12:09:43.000Z</time>
      </trkpt>
      <trkpt lat="48.92086" lon="2.09615">
        <ele>115</ele>
        <time>2016-05-05T12:09:45.000Z</time>
      </trkpt>
      <trkpt lat="48.92083" lon="2.09615">
        <ele>114</ele>
        <time>2016-05-05T12:09:47.000Z</time>
      </trkpt>
      <trkpt lat="48.9208" lon="2.09615">
        <ele>114</ele>
        <time>2016-05-05T12:09:49.000Z</time>
      </trkpt>
      <trkpt lat="48.92076" lon="2.09617">
        <ele>114</ele>
        <time>2016-05-05T12:09:53.000Z</time>
      </trkpt>
      <trkpt lat="48.92076" lon="2.09617">
        <ele>114</ele>
        <time>2016-05-05T12:09:55.000Z</time>
      </trkpt>
      <trkpt lat="48.92073" lon="2.09618">
        <ele>113</ele>
        <time>2016-05-05T12:09:57.000Z</time>
      </trkpt>
      <trkpt lat="48.92073" lon="2.09618">
        <ele>113</ele>
        <time>2016-05-05T12:09:59.000Z</time>
      </trkpt>
      <trkpt lat="48.92073" lon="2.09618">
        <ele>113</ele>
        <time>2016-05-05T12:10:01.000Z</time>
      </trkpt>
      <trkpt lat="48.92069" lon="2.09618">
        <ele>112</ele>
        <time>2016-05-05T12:10:03.000Z</time>
      </trkpt>
      <trkpt lat="48.92069" lon="2.09618">
        <ele>112</ele>
        <time>2016-05-05T12:10:05.000Z</time>
      </trkpt>
      <trkpt lat="48.92069" lon="2.09618">
        <ele>112</ele>
        <time>2016-05-05T12:10:07.000Z</time>
      </trkpt>
      <trkpt lat="48.92069" lon="2.09618">
        <ele>112</ele>
        <time>2016-05-05T12:10:09.000Z</time>
      </trkpt>
      <trkpt lat="48.92069" lon="2.09618">
        <ele>112</ele>
        <time>2016-05-05T12:10:11.000Z</time>
      </trkpt>
      <trkpt lat="48.92069" lon="2.09618">
        <ele>112</ele>
        <time>2016-05-05T12:10:13.000Z</time>
      </trkpt>
      <trkpt lat="48.92069" lon="2.09618">
        <ele>112</ele>
        <time>2016-05-05T12:10:15.000Z</time>
      </trkpt>
      <trkpt lat="48.92069" lon="2.09618">
        <ele>112</ele>
        <time>2016-05-05T12:10:17.000Z</time>
      </trkpt>
      <trkpt lat="48.92069" lon="2.09618">
        <ele>112</ele>
        <time>2016-05-05T12:10:19.000Z</time>
      </trkpt>
      <trkpt lat="48.92052" lon="2.09619">
        <ele>112</ele>
        <time>2016-05-05T12:10:32.000Z</time>
      </trkpt>
      <trkpt lat="48.92043" lon="2.0962">
        <ele>112</ele>
        <time>2016-05-05T12:10:34.000Z</time>
      </trkpt>
      <trkpt lat="48.92036" lon="2.09621">
        <ele>112</ele>
        <time>2016-05-05T12:10:36.000Z</time>
      </trkpt>
      <trkpt lat="48.92036" lon="2.09621">
        <ele>112</ele>
        <time>2016-05-05T12:10:38.000Z</time>
      </trkpt>
      <trkpt lat="48.92036" lon="2.09621">
        <ele>112</ele>
        <time>2016-05-05T12:10:40.000Z</time>
      </trkpt>
      <trkpt lat="48.92036" lon="2.09621">
        <ele>112</ele>
        <time>2016-05-05T12:10:46.000Z</time>
      </trkpt>
      <trkpt lat="48.92036" lon="2.09621">
        <ele>112</ele>
        <time>2016-05-05T12:10:48.000Z</time>
      </trkpt>
      <trkpt lat="48.92026" lon="2.09623">
        <ele>116</ele>
        <time>2016-05-05T12:10:52.000Z</time>
      </trkpt>
      <trkpt lat="48.9202" lon="2.09624">
        <ele>116</ele>
        <time>2016-05-05T12:10:54.000Z</time>
      </trkpt>
      <trkpt lat="48.9202" lon="2.09624">
        <ele>116</ele>
        <time>2016-05-05T12:10:56.000Z</time>
      </trkpt>
      <trkpt lat="48.9202" lon="2.09624">
        <ele>116</ele>
        <time>2016-05-05T12:10:58.000Z</time>
      </trkpt>
      <trkpt lat="48.9202" lon="2.09624">
        <ele>116</ele>
        <time>2016-05-05T12:11:00.000Z</time>
      </trkpt>
      <trkpt lat="48.92011" lon="2.09625">
        <ele>117</ele>
        <time>2016-05-05T12:11:02.000Z</time>
      </trkpt>
      <trkpt lat="48.92007" lon="2.09626">
        <ele>117</ele>
        <time>2016-05-05T12:11:04.000Z</time>
      </trkpt>
      <trkpt lat="48.92007" lon="2.09626">
        <ele>117</ele>
        <time>2016-05-05T12:11:06.000Z</time>
      </trkpt>
      <trkpt lat="48.92007" lon="2.09626">
        <ele>117</ele>
        <time>2016-05-05T12:11:08.000Z</time>
      </trkpt>
      <trkpt lat="48.91998" lon="2.09625">
        <ele>117</ele>
        <time>2016-05-05T12:11:14.000Z</time>
      </trkpt>
      <trkpt lat="48.91991" lon="2.09624">
        <ele>117</ele>
        <time>2016-05-05T12:11:18.000Z</time>
      </trkpt>
      <trkpt lat="48.91991" lon="2.09624">
        <ele>117</ele>
        <time>2016-05-05T12:11:22.000Z</time>
      </trkpt>
      <trkpt lat="48.91991" lon="2.09624">
        <ele>117</ele>
        <time>2016-05-05T12:11:24.000Z</time>
      </trkpt>
      <trkpt lat="48.91991" lon="2.09624">
        <ele>117</ele>
        <time>2016-05-05T12:11:26.000Z</time>
      </trkpt>
      <trkpt lat="48.91991" lon="2.09624">
        <ele>117</ele>
        <time>2016-05-05T12:11:30.000Z</time>
      </trkpt>
      <trkpt lat="48.91986" lon="2.09631">
        <ele>118</ele>
        <time>2016-05-05T12:12:36.000Z</time>
      </trkpt>
      <trkpt lat="48.91986" lon="2.09631">
        <ele>118</ele>
        <time>2016-05-05T12:12:38.000Z</time>
      </trkpt>
      <trkpt lat="48.9199" lon="2.09621">
        <ele>117</ele>
        <time>2016-05-05T12:14:24.000Z</time>
      </trkpt>
      <trkpt lat="48.91993" lon="2.09616">
        <ele>117</ele>
        <time>2016-05-05T12:14:26.000Z</time>
      </trkpt>
      <trkpt lat="48.91993" lon="2.09616">
        <ele>117</ele>
        <time>2016-05-05T12:14:28.000Z</time>
      </trkpt>
      <trkpt lat="48.91993" lon="2.09616">
        <ele>117</ele>
        <time>2016-05-05T12:14:30.000Z</time>
      </trkpt>
      <trkpt lat="48.91993" lon="2.09616">
        <ele>117</ele>
        <time>2016-05-05T12:14:36.000Z</time>
      </trkpt>
      <trkpt lat="48.91993" lon="2.09616">
        <ele>117</ele>
        <time>2016-05-05T12:14:38.000Z</time>
      </trkpt>
      <trkpt lat="48.91993" lon="2.09616">
        <ele>117</ele>
        <time>2016-05-05T12:14:40.000Z</time>
      </trkpt>
      <trkpt lat="48.91993" lon="2.09616">
        <ele>117</ele>
        <time>2016-05-05T12:14:42.000Z</time>
      </trkpt>
      <trkpt lat="48.91993" lon="2.09616">
        <ele>117</ele>
        <time>2016-05-05T12:14:52.000Z</time>
      </trkpt>
      <trkpt lat="48.91993" lon="2.09616">
        <ele>117</ele>
        <time>2016-05-05T12:14:54.000Z</time>
      </trkpt>
      <trkpt lat="48.92015" lon="2.09586">
        <ele>112</ele>
        <time>2016-05-05T12:16:16.000Z</time>
      </trkpt>
      <trkpt lat="48.92027" lon="2.09571">
        <ele>113</ele>
        <time>2016-05-05T12:16:18.000Z</time>
      </trkpt>
      <trkpt lat="48.92027" lon="2.09571">
        <ele>113</ele>
        <time>2016-05-05T12:16:20.000Z</time>
      </trkpt>
      <trkpt lat="48.92027" lon="2.09571">
        <ele>113</ele>
        <time>2016-05-05T12:16:32.000Z</time>
      </trkpt>
      <trkpt lat="48.92027" lon="2.09571">
        <ele>113</ele>
        <time>2016-05-05T12:16:34.000Z</time>
      </trkpt>
      <trkpt lat="48.92047" lon="2.09544">
        <ele>116</ele>
        <time>2016-05-05T12:17:11.000Z</time>
      </trkpt>
      <trkpt lat="48.92057" lon="2.0953">
        <ele>116</ele>
        <time>2016-05-05T12:17:13.000Z</time>
      </trkpt>
      <trkpt lat="48.92063" lon="2.09522">
        <ele>116</ele>
        <time>2016-05-05T12:17:15.000Z</time>
      </trkpt>
      <trkpt lat="48.92065" lon="2.09517">
        <ele>116</ele>
        <time>2016-05-05T12:17:17.000Z</time>
      </trkpt>
      <trkpt lat="48.92067" lon="2.09514">
        <ele>116</ele>
        <time>2016-05-05T12:17:19.000Z</time>
      </trkpt>
      <trkpt lat="48.92067" lon="2.09514">
        <ele>116</ele>
        <time>2016-05-05T12:17:21.000Z</time>
      </trkpt>
      <trkpt lat="48.92069" lon="2.09505">
        <ele>115</ele>
        <time>2016-05-05T12:17:23.000Z</time>
      </trkpt>
      <trkpt lat="48.92069" lon="2.09505">
        <ele>115</ele>
        <time>2016-05-05T12:17:27.000Z</time>
      </trkpt>
      <trkpt lat="48.92069" lon="2.09505">
        <ele>115</ele>
        <time>2016-05-05T12:17:29.000Z</time>
      </trkpt>
      <trkpt lat="48.92071" lon="2.09496">
        <ele>114</ele>
        <time>2016-05-05T12:17:31.000Z</time>
      </trkpt>
      <trkpt lat="48.92077" lon="2.09485">
        <ele>114</ele>
        <time>2016-05-05T12:17:43.000Z</time>
      </trkpt>
      <trkpt lat="48.92077" lon="2.09485">
        <ele>114</ele>
        <time>2016-05-05T12:17:45.000Z</time>
      </trkpt>
      <trkpt lat="48.92083" lon="2.09478">
        <ele>114</ele>
        <time>2016-05-05T12:17:51.000Z</time>
      </trkpt>
      <trkpt lat="48.92087" lon="2.09472">
        <ele>114</ele>
        <time>2016-05-05T12:17:57.000Z</time>
      </trkpt>
      <trkpt lat="48.92093" lon="2.09462">
        <ele>115</ele>
        <time>2016-05-05T12:18:05.000Z</time>
      </trkpt>
      <trkpt lat="48.92093" lon="2.09462">
        <ele>115</ele>
        <time>2016-05-05T12:18:07.000Z</time>
      </trkpt>
      <trkpt lat="48.92093" lon="2.09462">
        <ele>115</ele>
        <time>2016-05-05T12:18:09.000Z</time>
      </trkpt>
      <trkpt lat="48.92099" lon="2.0945">
        <ele>117</ele>
        <time>2016-05-05T12:18:17.000Z</time>
      </trkpt>
      <trkpt lat="48.92104" lon="2.09444">
        <ele>117</ele>
        <time>2016-05-05T12:18:23.000Z</time>
      </trkpt>
      <trkpt lat="48.92104" lon="2.09444">
        <ele>117</ele>
        <time>2016-05-05T12:18:29.000Z</time>
      </trkpt>
      <trkpt lat="48.92104" lon="2.09444">
        <ele>117</ele>
        <time>2016-05-05T12:18:31.000Z</time>
      </trkpt>
      <trkpt lat="48.92104" lon="2.09444">
        <ele>117</ele>
        <time>2016-05-05T12:18:33.000Z</time>
      </trkpt>
      <trkpt lat="48.9211" lon="2.09432">
        <ele>117</ele>
        <time>2016-05-05T12:18:35.000Z</time>
      </trkpt>
      <trkpt lat="48.9211" lon="2.09432">
        <ele>117</ele>
        <time>2016-05-05T12:18:37.000Z</time>
      </trkpt>
      <trkpt lat="48.9211" lon="2.09432">
        <ele>117</ele>
        <time>2016-05-05T12:18:39.000Z</time>
      </trkpt>
      <trkpt lat="48.9211" lon="2.09432">
        <ele>117</ele>
        <time>2016-05-05T12:18:41.000Z</time>
      </trkpt>
      <trkpt lat="48.9211" lon="2.09432">
        <ele>117</ele>
        <time>2016-05-05T12:18:43.000Z</time>
      </trkpt>
      <trkpt lat="48.9211" lon="2.09432">
        <ele>117</ele>
        <time>2016-05-05T12:18:45.000Z</time>
      </trkpt>
      <trkpt lat="48.92113" lon="2.0942">
        <ele>116</ele>
        <time>2016-05-05T12:19:03.000Z</time>
      </trkpt>
      <trkpt lat="48.92116" lon="2.09414">
        <ele>116</ele>
        <time>2016-05-05T12:19:05.000Z</time>
      </trkpt>
      <trkpt lat="48.92116" lon="2.09414">
        <ele>116</ele>
        <time>2016-05-05T12:19:07.000Z</time>
      </trkpt>
      <trkpt lat="48.92116" lon="2.09414">
        <ele>116</ele>
        <time>2016-05-05T12:19:09.000Z</time>
      </trkpt>
      <trkpt lat="48.92116" lon="2.09414">
        <ele>116</ele>
        <time>2016-05-05T12:19:11.000Z</time>
      </trkpt>
      <trkpt lat="48.92116" lon="2.09414">
        <ele>116</ele>
        <time>2016-05-05T12:19:13.000Z</time>
      </trkpt>
      <trkpt lat="48.92116" lon="2.09414">
        <ele>116</ele>
        <time>2016-05-05T12:19:15.000Z</time>
      </trkpt>
      <trkpt lat="48.92121" lon="2.09399">
        <ele>116</ele>
        <time>2016-05-05T12:19:27.000Z</time>
      </trkpt>
      <trkpt lat="48.92123" lon="2.09391">
        <ele>117</ele>
        <time>2016-05-05T12:19:29.000Z</time>
      </trkpt>
      <trkpt lat="48.92123" lon="2.09391">
        <ele>117</ele>
        <time>2016-05-05T12:19:31.000Z</time>
      </trkpt>
      <trkpt lat="48.92123" lon="2.09391">
        <ele>117</ele>
        <time>2016-05-05T12:19:33.000Z</time>
      </trkpt>
      <trkpt lat="48.92123" lon="2.09391">
        <ele>117</ele>
        <time>2016-05-05T12:19:36.000Z</time>
      </trkpt>
      <trkpt lat="48.92123" lon="2.09391">
        <ele>117</ele>
        <time>2016-05-05T12:19:38.000Z</time>
      </trkpt>
      <trkpt lat="48.92131" lon="2.09378">
        <ele>118</ele>
        <time>2016-05-05T12:19:44.000Z</time>
      </trkpt>
      <trkpt lat="48.92137" lon="2.09371">
        <ele>119</ele>
        <time>2016-05-05T12:19:46.000Z</time>
      </trkpt>
      <trkpt lat="48.9214" lon="2.09366">
        <ele>119</ele>
        <time>2016-05-05T12:19:48.000Z</time>
      </trkpt>
      <trkpt lat="48.9214" lon="2.09366">
        <ele>119</ele>
        <time>2016-05-05T12:19:50.000Z</time>
      </trkpt>
      <trkpt lat="48.9214" lon="2.09366">
        <ele>119</ele>
        <time>2016-05-05T12:19:52.000Z</time>
      </trkpt>
      <trkpt lat="48.92143" lon="2.0936">
        <ele>119</ele>
        <time>2016-05-05T12:19:54.000Z</time>
      </trkpt>
      <trkpt lat="48.92145" lon="2.09356">
        <ele>119</ele>
        <time>2016-05-05T12:19:56.000Z</time>
      </trkpt>
      <trkpt lat="48.92145" lon="2.09356">
        <ele>119</ele>
        <time>2016-05-05T12:19:58.000Z</time>
      </trkpt>
      <trkpt lat="48.92145" lon="2.09356">
        <ele>119</ele>
        <time>2016-05-05T12:20:00.000Z</time>
      </trkpt>
      <trkpt lat="48.92145" lon="2.09356">
        <ele>119</ele>
        <time>2016-05-05T12:20:02.000Z</time>
      </trkpt>
      <trkpt lat="48.92148" lon="2.09351">
        <ele>120</ele>
        <time>2016-05-05T12:20:04.000Z</time>
      </trkpt>
      <trkpt lat="48.92148" lon="2.09351">
        <ele>120</ele>
        <time>2016-05-05T12:20:06.000Z</time>
      </trkpt>
      <trkpt lat="48.92148" lon="2.09351">
        <ele>120</ele>
        <time>2016-05-05T12:20:08.000Z</time>
      </trkpt>
      <trkpt lat="48.92152" lon="2.09346">
        <ele>121</ele>
        <time>2016-05-05T12:20:10.000Z</time>
      </trkpt>
      <trkpt lat="48.92155" lon="2.09341">
        <ele>122</ele>
        <time>2016-05-05T12:20:18.000Z</time>
      </trkpt>
      <trkpt lat="48.92155" lon="2.09341">
        <ele>122</ele>
        <time>2016-05-05T12:20:20.000Z</time>
      </trkpt>
      <trkpt lat="48.9216" lon="2.09336">
        <ele>122</ele>
        <time>2016-05-05T12:20:22.000Z</time>
      </trkpt>
      <trkpt lat="48.9216" lon="2.09336">
        <ele>122</ele>
        <time>2016-05-05T12:20:24.000Z</time>
      </trkpt>
      <trkpt lat="48.9216" lon="2.09336">
        <ele>122</ele>
        <time>2016-05-05T12:20:26.000Z</time>
      </trkpt>
      <trkpt lat="48.9216" lon="2.09336">
        <ele>122</ele>
        <time>2016-05-05T12:20:30.000Z</time>
      </trkpt>
      <trkpt lat="48.9216" lon="2.09336">
        <ele>122</ele>
        <time>2016-05-05T12:20:32.000Z</time>
      </trkpt>
      <trkpt lat="48.9216" lon="2.09336">
        <ele>122</ele>
        <time>2016-05-05T12:20:34.000Z</time>
      </trkpt>
      <trkpt lat="48.9217" lon="2.0932">
        <ele>119</ele>
        <time>2016-05-05T12:20:46.000Z</time>
      </trkpt>
      <trkpt lat="48.92175" lon="2.0931">
        <ele>119</ele>
        <time>2016-05-05T12:20:48.000Z</time>
      </trkpt>
      <trkpt lat="48.92179" lon="2.09302">
        <ele>119</ele>
        <time>2016-05-05T12:20:50.000Z</time>
      </trkpt>
      <trkpt lat="48.92179" lon="2.09302">
        <ele>119</ele>
        <time>2016-05-05T12:20:52.000Z</time>
      </trkpt>
      <trkpt lat="48.92181" lon="2.09295">
        <ele>119</ele>
        <time>2016-05-05T12:20:54.000Z</time>
      </trkpt>
      <trkpt lat="48.92181" lon="2.09295">
        <ele>119</ele>
        <time>2016-05-05T12:20:56.000Z</time>
      </trkpt>
      <trkpt lat="48.92181" lon="2.09295">
        <ele>119</ele>
        <time>2016-05-05T12:20:58.000Z</time>
      </trkpt>
      <trkpt lat="48.92182" lon="2.09289">
        <ele>119</ele>
        <time>2016-05-05T12:21:00.000Z</time>
      </trkpt>
      <trkpt lat="48.92182" lon="2.09282">
        <ele>118</ele>
        <time>2016-05-05T12:21:06.000Z</time>
      </trkpt>
      <trkpt lat="48.92182" lon="2.09282">
        <ele>118</ele>
        <time>2016-05-05T12:21:08.000Z</time>
      </trkpt>
      <trkpt lat="48.92182" lon="2.09282">
        <ele>118</ele>
        <time>2016-05-05T12:21:10.000Z</time>
      </trkpt>
      <trkpt lat="48.92183" lon="2.09277">
        <ele>118</ele>
        <time>2016-05-05T12:21:12.000Z</time>
      </trkpt>
      <trkpt lat="48.92183" lon="2.09277">
        <ele>118</ele>
        <time>2016-05-05T12:21:16.000Z</time>
      </trkpt>
      <trkpt lat="48.92187" lon="2.09273">
        <ele>117</ele>
        <time>2016-05-05T12:21:18.000Z</time>
      </trkpt>
      <trkpt lat="48.92191" lon="2.09269">
        <ele>117</ele>
        <time>2016-05-05T12:21:22.000Z</time>
      </trkpt>
      <trkpt lat="48.92191" lon="2.09269">
        <ele>117</ele>
        <time>2016-05-05T12:21:26.000Z</time>
      </trkpt>
      <trkpt lat="48.92196" lon="2.09265">
        <ele>117</ele>
        <time>2016-05-05T12:21:28.000Z</time>
      </trkpt>
      <trkpt lat="48.922" lon="2.0926">
        <ele>117</ele>
        <time>2016-05-05T12:21:34.000Z</time>
      </trkpt>
      <trkpt lat="48.922" lon="2.0926">
        <ele>117</ele>
        <time>2016-05-05T12:21:36.000Z</time>
      </trkpt>
      <trkpt lat="48.92204" lon="2.09254">
        <ele>117</ele>
        <time>2016-05-05T12:21:38.000Z</time>
      </trkpt>
      <trkpt lat="48.92206" lon="2.09249">
        <ele>117</ele>
        <time>2016-05-05T12:21:44.000Z</time>
      </trkpt>
      <trkpt lat="48.92206" lon="2.09249">
        <ele>117</ele>
        <time>2016-05-05T12:21:46.000Z</time>
      </trkpt>
      <trkpt lat="48.92206" lon="2.09249">
        <ele>117</ele>
        <time>2016-05-05T12:21:48.000Z</time>
      </trkpt>
      <trkpt lat="48.92206" lon="2.09249">
        <ele>117</ele>
        <time>2016-05-05T12:21:50.000Z</time>
      </trkpt>
      <trkpt lat="48.92206" lon="2.09249">
        <ele>117</ele>
        <time>2016-05-05T12:21:52.000Z</time>
      </trkpt>
      <trkpt lat="48.92206" lon="2.09249">
        <ele>117</ele>
        <time>2016-05-05T12:21:54.000Z</time>
      </trkpt>
      <trkpt lat="48.9221" lon="2.09241">
        <ele>118</ele>
        <time>2016-05-05T12:21:57.000Z</time>
      </trkpt>
      <trkpt lat="48.9221" lon="2.09241">
        <ele>118</ele>
        <time>2016-05-05T12:21:59.000Z</time>
      </trkpt>
      <trkpt lat="48.92213" lon="2.09236">
        <ele>118</ele>
        <time>2016-05-05T12:22:01.000Z</time>
      </trkpt>
      <trkpt lat="48.92213" lon="2.09236">
        <ele>118</ele>
        <time>2016-05-05T12:22:03.000Z</time>
      </trkpt>
      <trkpt lat="48.92213" lon="2.09236">
        <ele>118</ele>
        <time>2016-05-05T12:22:05.000Z</time>
      </trkpt>
      <trkpt lat="48.92213" lon="2.09236">
        <ele>118</ele>
        <time>2016-05-05T12:22:07.000Z</time>
      </trkpt>
      <trkpt lat="48.92215" lon="2.09231">
        <ele>119</ele>
        <time>2016-05-05T12:22:13.000Z</time>
      </trkpt>
      <trkpt lat="48.92215" lon="2.09231">
        <ele>119</ele>
        <time>2016-05-05T12:22:15.000Z</time>
      </trkpt>
      <trkpt lat="48.92215" lon="2.09231">
        <ele>119</ele>
        <time>2016-05-05T12:22:17.000Z</time>
      </trkpt>
      <trkpt lat="48.92215" lon="2.09231">
        <ele>119</ele>
        <time>2016-05-05T12:22:19.000Z</time>
      </trkpt>
      <trkpt lat="48.92191" lon="2.09212">
        <ele>122</ele>
        <time>2016-05-05T12:23:38.000Z</time>
      </trkpt>
      <trkpt lat="48.92177" lon="2.09201">
        <ele>121</ele>
        <time>2016-05-05T12:23:40.000Z</time>
      </trkpt>
      <trkpt lat="48.9217" lon="2.09195">
        <ele>121</ele>
        <time>2016-05-05T12:23:42.000Z</time>
      </trkpt>
      <trkpt lat="48.92165" lon="2.09191">
        <ele>120</ele>
        <time>2016-05-05T12:23:44.000Z</time>
      </trkpt>
      <trkpt lat="48.92163" lon="2.09184">
        <ele>120</ele>
        <time>2016-05-05T12:23:50.000Z</time>
      </trkpt>
      <trkpt lat="48.92161" lon="2.09177">
        <ele>120</ele>
        <time>2016-05-05T12:23:54.000Z</time>
      </trkpt>
      <trkpt lat="48.92161" lon="2.09177">
        <ele>120</ele>
        <time>2016-05-05T12:23:56.000Z</time>
      </trkpt>
      <trkpt lat="48.92161" lon="2.09177">
        <ele>120</ele>
        <time>2016-05-05T12:23:58.000Z</time>
      </trkpt>
      <trkpt lat="48.92161" lon="2.09177">
        <ele>120</ele>
        <time>2016-05-05T12:24:00.000Z</time>
      </trkpt>
      <trkpt lat="48.92158" lon="2.09171">
        <ele>121</ele>
        <time>2016-05-05T12:24:02.000Z</time>
      </trkpt>
      <trkpt lat="48.92158" lon="2.09171">
        <ele>121</ele>
        <time>2016-05-05T12:24:08.000Z</time>
      </trkpt>
      <trkpt lat="48.92153" lon="2.09167">
        <ele>120</ele>
        <time>2016-05-05T12:24:10.000Z</time>
      </trkpt>
      <trkpt lat="48.92153" lon="2.09167">
        <ele>120</ele>
        <time>2016-05-05T12:24:12.000Z</time>
      </trkpt>
      <trkpt lat="48.92148" lon="2.09163">
        <ele>120</ele>
        <time>2016-05-05T12:24:14.000Z</time>
      </trkpt>
      <trkpt lat="48.92148" lon="2.09163">
        <ele>120</ele>
        <time>2016-05-05T12:24:16.000Z</time>
      </trkpt>
      <trkpt lat="48.92144" lon="2.09156">
        <ele>120</ele>
        <time>2016-05-05T12:24:18.000Z</time>
      </trkpt>
      <trkpt lat="48.92141" lon="2.09149">
        <ele>119</ele>
        <time>2016-05-05T12:24:24.000Z</time>
      </trkpt>
      <trkpt lat="48.92141" lon="2.09149">
        <ele>119</ele>
        <time>2016-05-05T12:24:26.000Z</time>
      </trkpt>
      <trkpt lat="48.92138" lon="2.09144">
        <ele>119</ele>
        <time>2016-05-05T12:24:30.000Z</time>
      </trkpt>
      <trkpt lat="48.92138" lon="2.09144">
        <ele>119</ele>
        <time>2016-05-05T12:24:32.000Z</time>
      </trkpt>
      <trkpt lat="48.92138" lon="2.09144">
        <ele>119</ele>
        <time>2016-05-05T12:24:34.000Z</time>
      </trkpt>
      <trkpt lat="48.92134" lon="2.0914">
        <ele>119</ele>
        <time>2016-05-05T12:24:36.000Z</time>
      </trkpt>
      <trkpt lat="48.92134" lon="2.0914">
        <ele>119</ele>
        <time>2016-05-05T12:24:38.000Z</time>
      </trkpt>
      <trkpt lat="48.92129" lon="2.09137">
        <ele>120</ele>
        <time>2016-05-05T12:24:40.000Z</time>
      </trkpt>
      <trkpt lat="48.92124" lon="2.09134">
        <ele>120</ele>
        <time>2016-05-05T12:24:44.000Z</time>
      </trkpt>
      <trkpt lat="48.92124" lon="2.09134">
        <ele>120</ele>
        <time>2016-05-05T12:24:46.000Z</time>
      </trkpt>
      <trkpt lat="48.92124" lon="2.09134">
        <ele>120</ele>
        <time>2016-05-05T12:24:48.000Z</time>
      </trkpt>
      <trkpt lat="48.92124" lon="2.09134">
        <ele>120</ele>
        <time>2016-05-05T12:24:50.000Z</time>
      </trkpt>
      <trkpt lat="48.92117" lon="2.09126">
        <ele>120</ele>
        <time>2016-05-05T12:24:54.000Z</time>
      </trkpt>
      <trkpt lat="48.92112" lon="2.09121">
        <ele>120</ele>
        <time>2016-05-05T12:24:56.000Z</time>
      </trkpt>
      <trkpt lat="48.92108" lon="2.09116">
        <ele>119</ele>
        <time>2016-05-05T12:25:02.000Z</time>
      </trkpt>
      <trkpt lat="48.92108" lon="2.09116">
        <ele>119</ele>
        <time>2016-05-05T12:25:04.000Z</time>
      </trkpt>
      <trkpt lat="48.92105" lon="2.0911">
        <ele>118</ele>
        <time>2016-05-05T12:25:06.000Z</time>
      </trkpt>
      <trkpt lat="48.92102" lon="2.09104">
        <ele>117</ele>
        <time>2016-05-05T12:25:12.000Z</time>
      </trkpt>
      <trkpt lat="48.92102" lon="2.09104">
        <ele>117</ele>
        <time>2016-05-05T12:25:14.000Z</time>
      </trkpt>
      <trkpt lat="48.92102" lon="2.09104">
        <ele>117</ele>
        <time>2016-05-05T12:25:16.000Z</time>
      </trkpt>
      <trkpt lat="48.92102" lon="2.09104">
        <ele>117</ele>
        <time>2016-05-05T12:25:18.000Z</time>
      </trkpt>
      <trkpt lat="48.92102" lon="2.09104">
        <ele>117</ele>
        <time>2016-05-05T12:25:34.000Z</time>
      </trkpt>
      <trkpt lat="48.92102" lon="2.09104">
        <ele>117</ele>
        <time>2016-05-05T12:25:36.000Z</time>
      </trkpt>
      <trkpt lat="48.9209" lon="2.0909">
        <ele>120</ele>
        <time>2016-05-05T12:26:16.000Z</time>
      </trkpt>
      <trkpt lat="48.92084" lon="2.09081">
        <ele>120</ele>
        <time>2016-05-05T12:26:18.000Z</time>
      </trkpt>
      <trkpt lat="48.92081" lon="2.09074">
        <ele>120</ele>
        <time>2016-05-05T12:26:20.000Z</time>
      </trkpt>
      <trkpt lat="48.92081" lon="2.09074">
        <ele>120</ele>
        <time>2016-05-05T12:26:24.000Z</time>
      </trkpt>
      <trkpt lat="48.92081" lon="2.09074">
        <ele>120</ele>
        <time>2016-05-05T12:26:26.000Z</time>
      </trkpt>
      <trkpt lat="48.92077" lon="2.09069">
        <ele>120</ele>
        <time>2016-05-05T12:26:28.000Z</time>
      </trkpt>
      <trkpt lat="48.92074" lon="2.09066">
        <ele>120</ele>
        <time>2016-05-05T12:26:32.000Z</time>
      </trkpt>
      <trkpt lat="48.92074" lon="2.09066">
        <ele>120</ele>
        <time>2016-05-05T12:26:34.000Z</time>
      </trkpt>
      <trkpt lat="48.9207" lon="2.09063">
        <ele>120</ele>
        <time>2016-05-05T12:26:36.000Z</time>
      </trkpt>
      <trkpt lat="48.92065" lon="2.09062">
        <ele>119</ele>
        <time>2016-05-05T12:26:38.000Z</time>
      </trkpt>
      <trkpt lat="48.9206" lon="2.09061">
        <ele>119</ele>
        <time>2016-05-05T12:26:40.000Z</time>
      </trkpt>
      <trkpt lat="48.92056" lon="2.0906">
        <ele>118</ele>
        <time>2016-05-05T12:26:44.000Z</time>
      </trkpt>
      <trkpt lat="48.92056" lon="2.0906">
        <ele>118</ele>
        <time>2016-05-05T12:26:46.000Z</time>
      </trkpt>
      <trkpt lat="48.92051" lon="2.09057">
        <ele>118</ele>
        <time>2016-05-05T12:26:48.000Z</time>
      </trkpt>
      <trkpt lat="48.92051" lon="2.09057">
        <ele>118</ele>
        <time>2016-05-05T12:26:50.000Z</time>
      </trkpt>
      <trkpt lat="48.92051" lon="2.09057">
        <ele>118</ele>
        <time>2016-05-05T12:26:52.000Z</time>
      </trkpt>
      <trkpt lat="48.92051" lon="2.09057">
        <ele>118</ele>
        <time>2016-05-05T12:26:54.000Z</time>
      </trkpt>
      <trkpt lat="48.92046" lon="2.09053">
        <ele>116</ele>
        <time>2016-05-05T12:26:56.000Z</time>
      </trkpt>
      <trkpt lat="48.92042" lon="2.09048">
        <ele>115</ele>
        <time>2016-05-05T12:27:00.000Z</time>
      </trkpt>
      <trkpt lat="48.92039" lon="2.09044">
        <ele>115</ele>
        <time>2016-05-05T12:27:02.000Z</time>
      </trkpt>
      <trkpt lat="48.92035" lon="2.09039">
        <ele>114</ele>
        <time>2016-05-05T12:27:06.000Z</time>
      </trkpt>
      <trkpt lat="48.92031" lon="2.09035">
        <ele>114</ele>
        <time>2016-05-05T12:27:08.000Z</time>
      </trkpt>
      <trkpt lat="48.92027" lon="2.09032">
        <ele>114</ele>
        <time>2016-05-05T12:27:10.000Z</time>
      </trkpt>
      <trkpt lat="48.92024" lon="2.0903">
        <ele>114</ele>
        <time>2016-05-05T12:27:12.000Z</time>
      </trkpt>
      <trkpt lat="48.92024" lon="2.0903">
        <ele>114</ele>
        <time>2016-05-05T12:27:14.000Z</time>
      </trkpt>
      <trkpt lat="48.92024" lon="2.0903">
        <ele>114</ele>
        <time>2016-05-05T12:27:16.000Z</time>
      </trkpt>
      <trkpt lat="48.92024" lon="2.0903">
        <ele>114</ele>
        <time>2016-05-05T12:27:18.000Z</time>
      </trkpt>
      <trkpt lat="48.92019" lon="2.09025">
        <ele>114</ele>
        <time>2016-05-05T12:27:20.000Z</time>
      </trkpt>
      <trkpt lat="48.92019" lon="2.09025">
        <ele>114</ele>
        <time>2016-05-05T12:27:22.000Z</time>
      </trkpt>
      <trkpt lat="48.92019" lon="2.09025">
        <ele>114</ele>
        <time>2016-05-05T12:27:24.000Z</time>
      </trkpt>
      <trkpt lat="48.92019" lon="2.09025">
        <ele>114</ele>
        <time>2016-05-05T12:27:26.000Z</time>
      </trkpt>
      <trkpt lat="48.92019" lon="2.09025">
        <ele>114</ele>
        <time>2016-05-05T12:27:28.000Z</time>
      </trkpt>
      <trkpt lat="48.92019" lon="2.09025">
        <ele>114</ele>
        <time>2016-05-05T12:27:30.000Z</time>
      </trkpt>
      <trkpt lat="48.92019" lon="2.09025">
        <ele>114</ele>
        <time>2016-05-05T12:27:32.000Z</time>
      </trkpt>
      <trkpt lat="48.92011" lon="2.09013">
        <ele>112</ele>
        <time>2016-05-05T12:27:40.000Z</time>
      </trkpt>
      <trkpt lat="48.92006" lon="2.09006">
        <ele>112</ele>
        <time>2016-05-05T12:27:42.000Z</time>
      </trkpt>
      <trkpt lat="48.92002" lon="2.09001">
        <ele>112</ele>
        <time>2016-05-05T12:27:44.000Z</time>
      </trkpt>
      <trkpt lat="48.91998" lon="2.08996">
        <ele>111</ele>
        <time>2016-05-05T12:27:48.000Z</time>
      </trkpt>
      <trkpt lat="48.91994" lon="2.08991">
        <ele>110</ele>
        <time>2016-05-05T12:27:54.000Z</time>
      </trkpt>
      <trkpt lat="48.91994" lon="2.08991">
        <ele>110</ele>
        <time>2016-05-05T12:27:56.000Z</time>
      </trkpt>
      <trkpt lat="48.91994" lon="2.08991">
        <ele>110</ele>
        <time>2016-05-05T12:27:58.000Z</time>
      </trkpt>
      <trkpt lat="48.91989" lon="2.08986">
        <ele>109</ele>
        <time>2016-05-05T12:28:04.000Z</time>
      </trkpt>
      <trkpt lat="48.91986" lon="2.08984">
        <ele>108</ele>
        <time>2016-05-05T12:28:06.000Z</time>
      </trkpt>
      <trkpt lat="48.91986" lon="2.08984">
        <ele>108</ele>
        <time>2016-05-05T12:28:10.000Z</time>
      </trkpt>
      <trkpt lat="48.91986" lon="2.08984">
        <ele>108</ele>
        <time>2016-05-05T12:28:12.000Z</time>
      </trkpt>
      <trkpt lat="48.91979" lon="2.08981">
        <ele>111</ele>
        <time>2016-05-05T12:28:24.000Z</time>
      </trkpt>
      <trkpt lat="48.91979" lon="2.08981">
        <ele>111</ele>
        <time>2016-05-05T12:28:26.000Z</time>
      </trkpt>
      <trkpt lat="48.91979" lon="2.08981">
        <ele>111</ele>
        <time>2016-05-05T12:28:28.000Z</time>
      </trkpt>
      <trkpt lat="48.91977" lon="2.08994">
        <ele>115</ele>
        <time>2016-05-05T12:30:28.000Z</time>
      </trkpt>
      <trkpt lat="48.91977" lon="2.08994">
        <ele>115</ele>
        <time>2016-05-05T12:30:30.000Z</time>
      </trkpt>
      <trkpt lat="48.91986" lon="2.08987">
        <ele>108</ele>
        <time>2016-05-05T12:35:36.000Z</time>
      </trkpt>
      <trkpt lat="48.91993" lon="2.08984">
        <ele>109</ele>
        <time>2016-05-05T12:35:38.000Z</time>
      </trkpt>
      <trkpt lat="48.91993" lon="2.08984">
        <ele>109</ele>
        <time>2016-05-05T12:35:40.000Z</time>
      </trkpt>
      <trkpt lat="48.91993" lon="2.08984">
        <ele>109</ele>
        <time>2016-05-05T12:35:42.000Z</time>
      </trkpt>
      <trkpt lat="48.91998" lon="2.08983">
        <ele>110</ele>
        <time>2016-05-05T12:35:44.000Z</time>
      </trkpt>
      <trkpt lat="48.92002" lon="2.08981">
        <ele>110</ele>
        <time>2016-05-05T12:35:46.000Z</time>
      </trkpt>
      <trkpt lat="48.92002" lon="2.08981">
        <ele>110</ele>
        <time>2016-05-05T12:35:48.000Z</time>
      </trkpt>
      <trkpt lat="48.92002" lon="2.08981">
        <ele>110</ele>
        <time>2016-05-05T12:35:50.000Z</time>
      </trkpt>
      <trkpt lat="48.92002" lon="2.08981">
        <ele>110</ele>
        <time>2016-05-05T12:35:52.000Z</time>
      </trkpt>
      <trkpt lat="48.92002" lon="2.08981">
        <ele>110</ele>
        <time>2016-05-05T12:35:54.000Z</time>
      </trkpt>
      <trkpt lat="48.92002" lon="2.08981">
        <ele>110</ele>
        <time>2016-05-05T12:35:56.000Z</time>
      </trkpt>
      <trkpt lat="48.92012" lon="2.08975">
        <ele>110</ele>
        <time>2016-05-05T12:36:08.000Z</time>
      </trkpt>
      <trkpt lat="48.92018" lon="2.08969">
        <ele>109</ele>
        <time>2016-05-05T12:36:10.000Z</time>
      </trkpt>
      <trkpt lat="48.92018" lon="2.08969">
        <ele>109</ele>
        <time>2016-05-05T12:36:12.000Z</time>
      </trkpt>
      <trkpt lat="48.92018" lon="2.08969">
        <ele>109</ele>
        <time>2016-05-05T12:36:14.000Z</time>
      </trkpt>
      <trkpt lat="48.92024" lon="2.08961">
        <ele>110</ele>
        <time>2016-05-05T12:36:22.000Z</time>
      </trkpt>
      <trkpt lat="48.92027" lon="2.08956">
        <ele>111</ele>
        <time>2016-05-05T12:36:24.000Z</time>
      </trkpt>
      <trkpt lat="48.92027" lon="2.08956">
        <ele>111</ele>
        <time>2016-05-05T12:36:26.000Z</time>
      </trkpt>
      <trkpt lat="48.92027" lon="2.08956">
        <ele>111</ele>
        <time>2016-05-05T12:36:28.000Z</time>
      </trkpt>
      <trkpt lat="48.92029" lon="2.08949">
        <ele>111</ele>
        <time>2016-05-05T12:36:30.000Z</time>
      </trkpt>
      <trkpt lat="48.92031" lon="2.0894">
        <ele>110</ele>
        <time>2016-05-05T12:36:34.000Z</time>
      </trkpt>
      <trkpt lat="48.92033" lon="2.08934">
        <ele>110</ele>
        <time>2016-05-05T12:36:38.000Z</time>
      </trkpt>
      <trkpt lat="48.92035" lon="2.08929">
        <ele>110</ele>
        <time>2016-05-05T12:36:40.000Z</time>
      </trkpt>
      <trkpt lat="48.92035" lon="2.08929">
        <ele>110</ele>
        <time>2016-05-05T12:36:42.000Z</time>
      </trkpt>
      <trkpt lat="48.92035" lon="2.08929">
        <ele>110</ele>
        <time>2016-05-05T12:36:44.000Z</time>
      </trkpt>
      <trkpt lat="48.92035" lon="2.08929">
        <ele>110</ele>
        <time>2016-05-05T12:36:46.000Z</time>
      </trkpt>
      <trkpt lat="48.92042" lon="2.08919">
        <ele>108</ele>
        <time>2016-05-05T12:36:54.000Z</time>
      </trkpt>
      <trkpt lat="48.92046" lon="2.08913">
        <ele>108</ele>
        <time>2016-05-05T12:36:56.000Z</time>
      </trkpt>
      <trkpt lat="48.92046" lon="2.08913">
        <ele>108</ele>
        <time>2016-05-05T12:36:58.000Z</time>
      </trkpt>
      <trkpt lat="48.92051" lon="2.08904">
        <ele>108</ele>
        <time>2016-05-05T12:37:00.000Z</time>
      </trkpt>
      <trkpt lat="48.92053" lon="2.08897">
        <ele>107</ele>
        <time>2016-05-05T12:37:02.000Z</time>
      </trkpt>
      <trkpt lat="48.92053" lon="2.08897">
        <ele>107</ele>
        <time>2016-05-05T12:37:06.000Z</time>
      </trkpt>
      <trkpt lat="48.92055" lon="2.0889">
        <ele>106</ele>
        <time>2016-05-05T12:37:08.000Z</time>
      </trkpt>
      <trkpt lat="48.92055" lon="2.0889">
        <ele>106</ele>
        <time>2016-05-05T12:37:10.000Z</time>
      </trkpt>
      <trkpt lat="48.92058" lon="2.08883">
        <ele>106</ele>
        <time>2016-05-05T12:37:12.000Z</time>
      </trkpt>
      <trkpt lat="48.9206" lon="2.08878">
        <ele>106</ele>
        <time>2016-05-05T12:37:14.000Z</time>
      </trkpt>
      <trkpt lat="48.9206" lon="2.08878">
        <ele>106</ele>
        <time>2016-05-05T12:37:16.000Z</time>
      </trkpt>
      <trkpt lat="48.9206" lon="2.08878">
        <ele>106</ele>
        <time>2016-05-05T12:37:18.000Z</time>
      </trkpt>
      <trkpt lat="48.9206" lon="2.08878">
        <ele>106</ele>
        <time>2016-05-05T12:37:20.000Z</time>
      </trkpt>
      <trkpt lat="48.92063" lon="2.08872">
        <ele>108</ele>
        <time>2016-05-05T12:37:22.000Z</time>
      </trkpt>
      <trkpt lat="48.92067" lon="2.08865">
        <ele>108</ele>
        <time>2016-05-05T12:37:26.000Z</time>
      </trkpt>
      <trkpt lat="48.9207" lon="2.0886">
        <ele>108</ele>
        <time>2016-05-05T12:37:28.000Z</time>
      </trkpt>
      <trkpt lat="48.92072" lon="2.08855">
        <ele>108</ele>
        <time>2016-05-05T12:37:32.000Z</time>
      </trkpt>
      <trkpt lat="48.92074" lon="2.08851">
        <ele>108</ele>
        <time>2016-05-05T12:37:34.000Z</time>
      </trkpt>
      <trkpt lat="48.92074" lon="2.08851">
        <ele>108</ele>
        <time>2016-05-05T12:37:36.000Z</time>
      </trkpt>
      <trkpt lat="48.92075" lon="2.08845">
        <ele>110</ele>
        <time>2016-05-05T12:37:38.000Z</time>
      </trkpt>
      <trkpt lat="48.92075" lon="2.08845">
        <ele>110</ele>
        <time>2016-05-05T12:37:40.000Z</time>
      </trkpt>
      <trkpt lat="48.92078" lon="2.08839">
        <ele>112</ele>
        <time>2016-05-05T12:37:44.000Z</time>
      </trkpt>
      <trkpt lat="48.92078" lon="2.08839">
        <ele>112</ele>
        <time>2016-05-05T12:37:46.000Z</time>
      </trkpt>
      <trkpt lat="48.92082" lon="2.08831">
        <ele>112</ele>
        <time>2016-05-05T12:37:48.000Z</time>
      </trkpt>
      <trkpt lat="48.92084" lon="2.08825">
        <ele>113</ele>
        <time>2016-05-05T12:37:51.000Z</time>
      </trkpt>
      <trkpt lat="48.92086" lon="2.0882">
        <ele>113</ele>
        <time>2016-05-05T12:37:53.000Z</time>
      </trkpt>
      <trkpt lat="48.92087" lon="2.08815">
        <ele>114</ele>
        <time>2016-05-05T12:37:57.000Z</time>
      </trkpt>
      <trkpt lat="48.92088" lon="2.08809">
        <ele>115</ele>
        <time>2016-05-05T12:38:01.000Z</time>
      </trkpt>
      <trkpt lat="48.92091" lon="2.08801">
        <ele>115</ele>
        <time>2016-05-05T12:38:07.000Z</time>
      </trkpt>
      <trkpt lat="48.92093" lon="2.08795">
        <ele>116</ele>
        <time>2016-05-05T12:38:11.000Z</time>
      </trkpt>
      <trkpt lat="48.92095" lon="2.08789">
        <ele>115</ele>
        <time>2016-05-05T12:38:15.000Z</time>
      </trkpt>
      <trkpt lat="48.92097" lon="2.08784">
        <ele>115</ele>
        <time>2016-05-05T12:38:17.000Z</time>
      </trkpt>
      <trkpt lat="48.92098" lon="2.0878">
        <ele>115</ele>
        <time>2016-05-05T12:38:19.000Z</time>
      </trkpt>
      <trkpt lat="48.92098" lon="2.0878">
        <ele>115</ele>
        <time>2016-05-05T12:38:21.000Z</time>
      </trkpt>
      <trkpt lat="48.92098" lon="2.0878">
        <ele>115</ele>
        <time>2016-05-05T12:38:23.000Z</time>
      </trkpt>
      <trkpt lat="48.92098" lon="2.0878">
        <ele>115</ele>
        <time>2016-05-05T12:38:25.000Z</time>
      </trkpt>
      <trkpt lat="48.921" lon="2.08773">
        <ele>115</ele>
        <time>2016-05-05T12:38:27.000Z</time>
      </trkpt>
      <trkpt lat="48.921" lon="2.08773">
        <ele>115</ele>
        <time>2016-05-05T12:38:29.000Z</time>
      </trkpt>
      <trkpt lat="48.92101" lon="2.08766">
        <ele>115</ele>
        <time>2016-05-05T12:38:31.000Z</time>
      </trkpt>
      <trkpt lat="48.92101" lon="2.08766">
        <ele>115</ele>
        <time>2016-05-05T12:38:33.000Z</time>
      </trkpt>
      <trkpt lat="48.92101" lon="2.08766">
        <ele>115</ele>
        <time>2016-05-05T12:38:35.000Z</time>
      </trkpt>
      <trkpt lat="48.92103" lon="2.08759">
        <ele>115</ele>
        <time>2016-05-05T12:38:37.000Z</time>
      </trkpt>
      <trkpt lat="48.92103" lon="2.08759">
        <ele>115</ele>
        <time>2016-05-05T12:38:39.000Z</time>
      </trkpt>
      <trkpt lat="48.92103" lon="2.08759">
        <ele>115</ele>
        <time>2016-05-05T12:38:41.000Z</time>
      </trkpt>
      <trkpt lat="48.92105" lon="2.08751">
        <ele>115</ele>
        <time>2016-05-05T12:38:43.000Z</time>
      </trkpt>
      <trkpt lat="48.92105" lon="2.08751">
        <ele>115</ele>
        <time>2016-05-05T12:38:45.000Z</time>
      </trkpt>
      <trkpt lat="48.92107" lon="2.08744">
        <ele>115</ele>
        <time>2016-05-05T12:38:47.000Z</time>
      </trkpt>
      <trkpt lat="48.92107" lon="2.08744">
        <ele>115</ele>
        <time>2016-05-05T12:38:49.000Z</time>
      </trkpt>
      <trkpt lat="48.9211" lon="2.08738">
        <ele>115</ele>
        <time>2016-05-05T12:38:51.000Z</time>
      </trkpt>
      <trkpt lat="48.92112" lon="2.08731">
        <ele>114</ele>
        <time>2016-05-05T12:38:55.000Z</time>
      </trkpt>
      <trkpt lat="48.92114" lon="2.08725">
        <ele>114</ele>
        <time>2016-05-05T12:38:59.000Z</time>
      </trkpt>
      <trkpt lat="48.92117" lon="2.0872">
        <ele>113</ele>
        <time>2016-05-05T12:39:03.000Z</time>
      </trkpt>
      <trkpt lat="48.92117" lon="2.0872">
        <ele>113</ele>
        <time>2016-05-05T12:39:05.000Z</time>
      </trkpt>
      <trkpt lat="48.9212" lon="2.08714">
        <ele>113</ele>
        <time>2016-05-05T12:39:07.000Z</time>
      </trkpt>
      <trkpt lat="48.9212" lon="2.08714">
        <ele>113</ele>
        <time>2016-05-05T12:39:09.000Z</time>
      </trkpt>
      <trkpt lat="48.9212" lon="2.08714">
        <ele>113</ele>
        <time>2016-05-05T12:39:11.000Z</time>
      </trkpt>
      <trkpt lat="48.9212" lon="2.08714">
        <ele>113</ele>
        <time>2016-05-05T12:39:13.000Z</time>
      </trkpt>
      <trkpt lat="48.9212" lon="2.08714">
        <ele>113</ele>
        <time>2016-05-05T12:39:15.000Z</time>
      </trkpt>
      <trkpt lat="48.92129" lon="2.08699">
        <ele>115</ele>
        <time>2016-05-05T12:39:51.000Z</time>
      </trkpt>
      <trkpt lat="48.92133" lon="2.0869">
        <ele>115</ele>
        <time>2016-05-05T12:39:53.000Z</time>
      </trkpt>
      <trkpt lat="48.92136" lon="2.08683">
        <ele>114</ele>
        <time>2016-05-05T12:39:57.000Z</time>
      </trkpt>
      <trkpt lat="48.92137" lon="2.08678">
        <ele>114</ele>
        <time>2016-05-05T12:39:59.000Z</time>
      </trkpt>
      <trkpt lat="48.92138" lon="2.08673">
        <ele>114</ele>
        <time>2016-05-05T12:40:03.000Z</time>
      </trkpt>
      <trkpt lat="48.92138" lon="2.08669">
        <ele>114</ele>
        <time>2016-05-05T12:40:05.000Z</time>
      </trkpt>
      <trkpt lat="48.92139" lon="2.08663">
        <ele>114</ele>
        <time>2016-05-05T12:40:09.000Z</time>
      </trkpt>
      <trkpt lat="48.92142" lon="2.08658">
        <ele>113</ele>
        <time>2016-05-05T12:40:13.000Z</time>
      </trkpt>
      <trkpt lat="48.92144" lon="2.08653">
        <ele>113</ele>
        <time>2016-05-05T12:40:15.000Z</time>
      </trkpt>
      <trkpt lat="48.92146" lon="2.08648">
        <ele>113</ele>
        <time>2016-05-05T12:40:19.000Z</time>
      </trkpt>
      <trkpt lat="48.92146" lon="2.08648">
        <ele>113</ele>
        <time>2016-05-05T12:40:21.000Z</time>
      </trkpt>
      <trkpt lat="48.92147" lon="2.08643">
        <ele>112</ele>
        <time>2016-05-05T12:40:23.000Z</time>
      </trkpt>
      <trkpt lat="48.92147" lon="2.08643">
        <ele>112</ele>
        <time>2016-05-05T12:40:25.000Z</time>
      </trkpt>
      <trkpt lat="48.92149" lon="2.08637">
        <ele>111</ele>
        <time>2016-05-05T12:40:27.000Z</time>
      </trkpt>
      <trkpt lat="48.92149" lon="2.08637">
        <ele>111</ele>
        <time>2016-05-05T12:40:29.000Z</time>
      </trkpt>
      <trkpt lat="48.92152" lon="2.0863">
        <ele>110</ele>
        <time>2016-05-05T12:40:31.000Z</time>
      </trkpt>
      <trkpt lat="48.92154" lon="2.08623">
        <ele>110</ele>
        <time>2016-05-05T12:40:35.000Z</time>
      </trkpt>
      <trkpt lat="48.92154" lon="2.08623">
        <ele>110</ele>
        <time>2016-05-05T12:40:37.000Z</time>
      </trkpt>
      <trkpt lat="48.92157" lon="2.08617">
        <ele>109</ele>
        <time>2016-05-05T12:40:39.000Z</time>
      </trkpt>
      <trkpt lat="48.92159" lon="2.08613">
        <ele>109</ele>
        <time>2016-05-05T12:40:41.000Z</time>
      </trkpt>
      <trkpt lat="48.92159" lon="2.08613">
        <ele>109</ele>
        <time>2016-05-05T12:40:43.000Z</time>
      </trkpt>
      <trkpt lat="48.92162" lon="2.08608">
        <ele>109</ele>
        <time>2016-05-05T12:40:45.000Z</time>
      </trkpt>
      <trkpt lat="48.92162" lon="2.08608">
        <ele>109</ele>
        <time>2016-05-05T12:40:47.000Z</time>
      </trkpt>
      <trkpt lat="48.92165" lon="2.08602">
        <ele>108</ele>
        <time>2016-05-05T12:40:49.000Z</time>
      </trkpt>
      <trkpt lat="48.92168" lon="2.08598">
        <ele>108</ele>
        <time>2016-05-05T12:40:51.000Z</time>
      </trkpt>
      <trkpt lat="48.92168" lon="2.08598">
        <ele>108</ele>
        <time>2016-05-05T12:40:53.000Z</time>
      </trkpt>
      <trkpt lat="48.92169" lon="2.08593">
        <ele>108</ele>
        <time>2016-05-05T12:40:55.000Z</time>
      </trkpt>
      <trkpt lat="48.92169" lon="2.08593">
        <ele>108</ele>
        <time>2016-05-05T12:40:57.000Z</time>
      </trkpt>
      <trkpt lat="48.92171" lon="2.08587">
        <ele>108</ele>
        <time>2016-05-05T12:40:59.000Z</time>
      </trkpt>
      <trkpt lat="48.92173" lon="2.08583">
        <ele>107</ele>
        <time>2016-05-05T12:41:01.000Z</time>
      </trkpt>
      <trkpt lat="48.92175" lon="2.08578">
        <ele>107</ele>
        <time>2016-05-05T12:41:05.000Z</time>
      </trkpt>
      <trkpt lat="48.92177" lon="2.08574">
        <ele>107</ele>
        <time>2016-05-05T12:41:09.000Z</time>
      </trkpt>
      <trkpt lat="48.92177" lon="2.08574">
        <ele>107</ele>
        <time>2016-05-05T12:41:11.000Z</time>
      </trkpt>
      <trkpt lat="48.9218" lon="2.08568">
        <ele>107</ele>
        <time>2016-05-05T12:41:13.000Z</time>
      </trkpt>
      <trkpt lat="48.9218" lon="2.08568">
        <ele>107</ele>
        <time>2016-05-05T12:41:15.000Z</time>
      </trkpt>
      <trkpt lat="48.92183" lon="2.08563">
        <ele>107</ele>
        <time>2016-05-05T12:41:17.000Z</time>
      </trkpt>
      <trkpt lat="48.92183" lon="2.08563">
        <ele>107</ele>
        <time>2016-05-05T12:41:19.000Z</time>
      </trkpt>
      <trkpt lat="48.92185" lon="2.08559">
        <ele>107</ele>
        <time>2016-05-05T12:41:21.000Z</time>
      </trkpt>
      <trkpt lat="48.92185" lon="2.08559">
        <ele>107</ele>
        <time>2016-05-05T12:41:23.000Z</time>
      </trkpt>
      <trkpt lat="48.92189" lon="2.08552">
        <ele>108</ele>
        <time>2016-05-05T12:41:27.000Z</time>
      </trkpt>
      <trkpt lat="48.92191" lon="2.08547">
        <ele>108</ele>
        <time>2016-05-05T12:41:29.000Z</time>
      </trkpt>
      <trkpt lat="48.92194" lon="2.08543">
        <ele>108</ele>
        <time>2016-05-05T12:41:31.000Z</time>
      </trkpt>
      <trkpt lat="48.92197" lon="2.08536">
        <ele>108</ele>
        <time>2016-05-05T12:41:37.000Z</time>
      </trkpt>
      <trkpt lat="48.922" lon="2.0853">
        <ele>108</ele>
        <time>2016-05-05T12:41:41.000Z</time>
      </trkpt>
      <trkpt lat="48.922" lon="2.0853">
        <ele>108</ele>
        <time>2016-05-05T12:41:43.000Z</time>
      </trkpt>
      <trkpt lat="48.92203" lon="2.08525">
        <ele>108</ele>
        <time>2016-05-05T12:41:45.000Z</time>
      </trkpt>
      <trkpt lat="48.92204" lon="2.0852">
        <ele>108</ele>
        <time>2016-05-05T12:41:47.000Z</time>
      </trkpt>
      <trkpt lat="48.92205" lon="2.08516">
        <ele>109</ele>
        <time>2016-05-05T12:41:49.000Z</time>
      </trkpt>
      <trkpt lat="48.92205" lon="2.08516">
        <ele>109</ele>
        <time>2016-05-05T12:41:53.000Z</time>
      </trkpt>
      <trkpt lat="48.92205" lon="2.08516">
        <ele>109</ele>
        <time>2016-05-05T12:41:55.000Z</time>
      </trkpt>
      <trkpt lat="48.9221" lon="2.08516">
        <ele>108</ele>
        <time>2016-05-05T12:41:57.000Z</time>
      </trkpt>
      <trkpt lat="48.92213" lon="2.08515">
        <ele>107</ele>
        <time>2016-05-05T12:41:59.000Z</time>
      </trkpt>
      <trkpt lat="48.92213" lon="2.08515">
        <ele>107</ele>
        <time>2016-05-05T12:42:01.000Z</time>
      </trkpt>
      <trkpt lat="48.92213" lon="2.08515">
        <ele>107</ele>
        <time>2016-05-05T12:42:03.000Z</time>
      </trkpt>
      <trkpt lat="48.92213" lon="2.08515">
        <ele>107</ele>
        <time>2016-05-05T12:42:05.000Z</time>
      </trkpt>
      <trkpt lat="48.92213" lon="2.08515">
        <ele>107</ele>
        <time>2016-05-05T12:42:07.000Z</time>
      </trkpt>
      <trkpt lat="48.92228" lon="2.08522">
        <ele>108</ele>
        <time>2016-05-05T12:43:15.000Z</time>
      </trkpt>
      <trkpt lat="48.92228" lon="2.08522">
        <ele>108</ele>
        <time>2016-05-05T12:43:17.000Z</time>
      </trkpt>
      <trkpt lat="48.92228" lon="2.08522">
        <ele>108</ele>
        <time>2016-05-05T12:43:19.000Z</time>
      </trkpt>
      <trkpt lat="48.92228" lon="2.08522">
        <ele>108</ele>
        <time>2016-05-05T12:43:21.000Z</time>
      </trkpt>
      <trkpt lat="48.92242" lon="2.08518">
        <ele>107</ele>
        <time>2016-05-05T12:43:45.000Z</time>
      </trkpt>
      <trkpt lat="48.92249" lon="2.08514">
        <ele>106</ele>
        <time>2016-05-05T12:43:47.000Z</time>
      </trkpt>
      <trkpt lat="48.92253" lon="2.08512">
        <ele>106</ele>
        <time>2016-05-05T12:43:49.000Z</time>
      </trkpt>
      <trkpt lat="48.92257" lon="2.0851">
        <ele>107</ele>
        <time>2016-05-05T12:43:51.000Z</time>
      </trkpt>
      <trkpt lat="48.9226" lon="2.08507">
        <ele>106</ele>
        <time>2016-05-05T12:43:55.000Z</time>
      </trkpt>
      <trkpt lat="48.92261" lon="2.08501">
        <ele>106</ele>
        <time>2016-05-05T12:43:59.000Z</time>
      </trkpt>
      <trkpt lat="48.92261" lon="2.08496">
        <ele>106</ele>
        <time>2016-05-05T12:44:01.000Z</time>
      </trkpt>
      <trkpt lat="48.92262" lon="2.08491">
        <ele>106</ele>
        <time>2016-05-05T12:44:03.000Z</time>
      </trkpt>
      <trkpt lat="48.92262" lon="2.08491">
        <ele>106</ele>
        <time>2016-05-05T12:44:05.000Z</time>
      </trkpt>
      <trkpt lat="48.92265" lon="2.08487">
        <ele>106</ele>
        <time>2016-05-05T12:44:07.000Z</time>
      </trkpt>
      <trkpt lat="48.92268" lon="2.08485">
        <ele>106</ele>
        <time>2016-05-05T12:44:09.000Z</time>
      </trkpt>
      <trkpt lat="48.92271" lon="2.08483">
        <ele>106</ele>
        <time>2016-05-05T12:44:11.000Z</time>
      </trkpt>
      <trkpt lat="48.92271" lon="2.08483">
        <ele>106</ele>
        <time>2016-05-05T12:44:13.000Z</time>
      </trkpt>
      <trkpt lat="48.92271" lon="2.08483">
        <ele>106</ele>
        <time>2016-05-05T12:44:15.000Z</time>
      </trkpt>
      <trkpt lat="48.92277" lon="2.08483">
        <ele>105</ele>
        <time>2016-05-05T12:44:17.000Z</time>
      </trkpt>
      <trkpt lat="48.92277" lon="2.08483">
        <ele>105</ele>
        <time>2016-05-05T12:44:19.000Z</time>
      </trkpt>
      <trkpt lat="48.92277" lon="2.08483">
        <ele>105</ele>
        <time>2016-05-05T12:44:21.000Z</time>
      </trkpt>
      <trkpt lat="48.92277" lon="2.08483">
        <ele>105</ele>
        <time>2016-05-05T12:44:23.000Z</time>
      </trkpt>
      <trkpt lat="48.92277" lon="2.08483">
        <ele>105</ele>
        <time>2016-05-05T12:44:25.000Z</time>
      </trkpt>
      <trkpt lat="48.92284" lon="2.0849">
        <ele>106</ele>
        <time>2016-05-05T12:44:41.000Z</time>
      </trkpt>
      <trkpt lat="48.92288" lon="2.08494">
        <ele>106</ele>
        <time>2016-05-05T12:44:43.000Z</time>
      </trkpt>
      <trkpt lat="48.92288" lon="2.08494">
        <ele>106</ele>
        <time>2016-05-05T12:44:45.000Z</time>
      </trkpt>
      <trkpt lat="48.92292" lon="2.08497">
        <ele>107</ele>
        <time>2016-05-05T12:44:49.000Z</time>
      </trkpt>
      <trkpt lat="48.92292" lon="2.08497">
        <ele>107</ele>
        <time>2016-05-05T12:44:51.000Z</time>
      </trkpt>
      <trkpt lat="48.92292" lon="2.08497">
        <ele>107</ele>
        <time>2016-05-05T12:44:53.000Z</time>
      </trkpt>
      <trkpt lat="48.92292" lon="2.08497">
        <ele>107</ele>
        <time>2016-05-05T12:44:55.000Z</time>
      </trkpt>
      <trkpt lat="48.92299" lon="2.08499">
        <ele>108</ele>
        <time>2016-05-05T12:44:59.000Z</time>
      </trkpt>
      <trkpt lat="48.92303" lon="2.085">
        <ele>108</ele>
        <time>2016-05-05T12:45:03.000Z</time>
      </trkpt>
      <trkpt lat="48.92307" lon="2.08501">
        <ele>108</ele>
        <time>2016-05-05T12:45:05.000Z</time>
      </trkpt>
      <trkpt lat="48.92307" lon="2.08501">
        <ele>108</ele>
        <time>2016-05-05T12:45:07.000Z</time>
      </trkpt>
      <trkpt lat="48.92311" lon="2.085">
        <ele>109</ele>
        <time>2016-05-05T12:45:09.000Z</time>
      </trkpt>
      <trkpt lat="48.92311" lon="2.085">
        <ele>109</ele>
        <time>2016-05-05T12:45:11.000Z</time>
      </trkpt>
      <trkpt lat="48.92311" lon="2.085">
        <ele>109</ele>
        <time>2016-05-05T12:45:13.000Z</time>
      </trkpt>
      <trkpt lat="48.92311" lon="2.085">
        <ele>109</ele>
        <time>2016-05-05T12:45:29.000Z</time>
      </trkpt>
      <trkpt lat="48.92321" lon="2.08502">
        <ele>112</ele>
        <time>2016-05-05T12:45:43.000Z</time>
      </trkpt>
      <trkpt lat="48.92327" lon="2.08504">
        <ele>112</ele>
        <time>2016-05-05T12:45:45.000Z</time>
      </trkpt>
      <trkpt lat="48.92332" lon="2.08506">
        <ele>112</ele>
        <time>2016-05-05T12:45:49.000Z</time>
      </trkpt>
      <trkpt lat="48.92337" lon="2.08509">
        <ele>112</ele>
        <time>2016-05-05T12:45:53.000Z</time>
      </trkpt>
      <trkpt lat="48.92337" lon="2.08509">
        <ele>112</ele>
        <time>2016-05-05T12:45:55.000Z</time>
      </trkpt>
      <trkpt lat="48.92341" lon="2.08512">
        <ele>112</ele>
        <time>2016-05-05T12:45:57.000Z</time>
      </trkpt>
      <trkpt lat="48.92346" lon="2.08516">
        <ele>112</ele>
        <time>2016-05-05T12:46:03.000Z</time>
      </trkpt>
      <trkpt lat="48.92351" lon="2.08518">
        <ele>111</ele>
        <time>2016-05-05T12:46:07.000Z</time>
      </trkpt>
      <trkpt lat="48.92355" lon="2.0852">
        <ele>111</ele>
        <time>2016-05-05T12:46:09.000Z</time>
      </trkpt>
      <trkpt lat="48.92355" lon="2.0852">
        <ele>111</ele>
        <time>2016-05-05T12:46:11.000Z</time>
      </trkpt>
      <trkpt lat="48.92355" lon="2.0852">
        <ele>111</ele>
        <time>2016-05-05T12:46:13.000Z</time>
      </trkpt>
      <trkpt lat="48.92359" lon="2.08521">
        <ele>111</ele>
        <time>2016-05-05T12:46:15.000Z</time>
      </trkpt>
      <trkpt lat="48.92364" lon="2.08522">
        <ele>111</ele>
        <time>2016-05-05T12:46:19.000Z</time>
      </trkpt>
      <trkpt lat="48.92368" lon="2.08523">
        <ele>111</ele>
        <time>2016-05-05T12:46:23.000Z</time>
      </trkpt>
      <trkpt lat="48.92371" lon="2.08524">
        <ele>110</ele>
        <time>2016-05-05T12:46:25.000Z</time>
      </trkpt>
      <trkpt lat="48.92374" lon="2.08527">
        <ele>110</ele>
        <time>2016-05-05T12:46:29.000Z</time>
      </trkpt>
      <trkpt lat="48.92374" lon="2.08527">
        <ele>110</ele>
        <time>2016-05-05T12:46:31.000Z</time>
      </trkpt>
      <trkpt lat="48.92374" lon="2.08527">
        <ele>110</ele>
        <time>2016-05-05T12:46:33.000Z</time>
      </trkpt>
      <trkpt lat="48.92374" lon="2.08527">
        <ele>110</ele>
        <time>2016-05-05T12:46:37.000Z</time>
      </trkpt>
      <trkpt lat="48.92374" lon="2.08527">
        <ele>110</ele>
        <time>2016-05-05T12:46:39.000Z</time>
      </trkpt>
      <trkpt lat="48.92374" lon="2.08527">
        <ele>110</ele>
        <time>2016-05-05T12:46:41.000Z</time>
      </trkpt>
      <trkpt lat="48.92379" lon="2.08531">
        <ele>105</ele>
        <time>2016-05-05T12:46:55.000Z</time>
      </trkpt>
      <trkpt lat="48.92385" lon="2.08533">
        <ele>104</ele>
        <time>2016-05-05T12:46:59.000Z</time>
      </trkpt>
      <trkpt lat="48.92389" lon="2.08534">
        <ele>104</ele>
        <time>2016-05-05T12:47:01.000Z</time>
      </trkpt>
      <trkpt lat="48.92389" lon="2.08534">
        <ele>104</ele>
        <time>2016-05-05T12:47:03.000Z</time>
      </trkpt>
      <trkpt lat="48.92389" lon="2.08534">
        <ele>104</ele>
        <time>2016-05-05T12:47:05.000Z</time>
      </trkpt>
      <trkpt lat="48.92389" lon="2.08534">
        <ele>104</ele>
        <time>2016-05-05T12:47:07.000Z</time>
      </trkpt>
      <trkpt lat="48.92389" lon="2.08534">
        <ele>104</ele>
        <time>2016-05-05T12:47:09.000Z</time>
      </trkpt>
      <trkpt lat="48.92397" lon="2.0854">
        <ele>101</ele>
        <time>2016-05-05T12:47:11.000Z</time>
      </trkpt>
      <trkpt lat="48.92402" lon="2.08544">
        <ele>101</ele>
        <time>2016-05-05T12:47:13.000Z</time>
      </trkpt>
      <trkpt lat="48.92407" lon="2.08546">
        <ele>100</ele>
        <time>2016-05-05T12:47:15.000Z</time>
      </trkpt>
      <trkpt lat="48.92412" lon="2.08548">
        <ele>100</ele>
        <time>2016-05-05T12:47:19.000Z</time>
      </trkpt>
      <trkpt lat="48.92412" lon="2.08548">
        <ele>100</ele>
        <time>2016-05-05T12:47:23.000Z</time>
      </trkpt>
      <trkpt lat="48.92416" lon="2.08552">
        <ele>100</ele>
        <time>2016-05-05T12:47:25.000Z</time>
      </trkpt>
      <trkpt lat="48.92416" lon="2.08552">
        <ele>100</ele>
        <time>2016-05-05T12:47:27.000Z</time>
      </trkpt>
      <trkpt lat="48.92421" lon="2.08555">
        <ele>101</ele>
        <time>2016-05-05T12:47:29.000Z</time>
      </trkpt>
      <trkpt lat="48.92421" lon="2.08555">
        <ele>101</ele>
        <time>2016-05-05T12:47:31.000Z</time>
      </trkpt>
      <trkpt lat="48.92425" lon="2.08557">
        <ele>101</ele>
        <time>2016-05-05T12:47:33.000Z</time>
      </trkpt>
      <trkpt lat="48.92429" lon="2.08558">
        <ele>101</ele>
        <time>2016-05-05T12:47:39.000Z</time>
      </trkpt>
      <trkpt lat="48.92434" lon="2.08561">
        <ele>101</ele>
        <time>2016-05-05T12:47:43.000Z</time>
      </trkpt>
      <trkpt lat="48.9244" lon="2.08565">
        <ele>100</ele>
        <time>2016-05-05T12:47:47.000Z</time>
      </trkpt>
      <trkpt lat="48.92444" lon="2.08566">
        <ele>100</ele>
        <time>2016-05-05T12:47:49.000Z</time>
      </trkpt>
      <trkpt lat="48.92444" lon="2.08566">
        <ele>100</ele>
        <time>2016-05-05T12:47:51.000Z</time>
      </trkpt>
      <trkpt lat="48.92448" lon="2.08568">
        <ele>99</ele>
        <time>2016-05-05T12:47:53.000Z</time>
      </trkpt>
      <trkpt lat="48.92448" lon="2.08568">
        <ele>99</ele>
        <time>2016-05-05T12:47:55.000Z</time>
      </trkpt>
      <trkpt lat="48.92448" lon="2.08568">
        <ele>99</ele>
        <time>2016-05-05T12:47:57.000Z</time>
      </trkpt>
      <trkpt lat="48.92453" lon="2.08569">
        <ele>100</ele>
        <time>2016-05-05T12:47:59.000Z</time>
      </trkpt>
      <trkpt lat="48.92458" lon="2.08571">
        <ele>100</ele>
        <time>2016-05-05T12:48:01.000Z</time>
      </trkpt>
      <trkpt lat="48.92463" lon="2.08573">
        <ele>100</ele>
        <time>2016-05-05T12:48:05.000Z</time>
      </trkpt>
      <trkpt lat="48.92463" lon="2.08573">
        <ele>100</ele>
        <time>2016-05-05T12:48:09.000Z</time>
      </trkpt>
      <trkpt lat="48.92468" lon="2.08573">
        <ele>100</ele>
        <time>2016-05-05T12:48:11.000Z</time>
      </trkpt>
      <trkpt lat="48.92472" lon="2.08574">
        <ele>100</ele>
        <time>2016-05-05T12:48:13.000Z</time>
      </trkpt>
      <trkpt lat="48.92472" lon="2.08574">
        <ele>100</ele>
        <time>2016-05-05T12:48:15.000Z</time>
      </trkpt>
      <trkpt lat="48.92472" lon="2.08574">
        <ele>100</ele>
        <time>2016-05-05T12:48:17.000Z</time>
      </trkpt>
      <trkpt lat="48.92477" lon="2.08575">
        <ele>100</ele>
        <time>2016-05-05T12:48:19.000Z</time>
      </trkpt>
      <trkpt lat="48.92477" lon="2.08575">
        <ele>100</ele>
        <time>2016-05-05T12:48:21.000Z</time>
      </trkpt>
      <trkpt lat="48.92481" lon="2.08576">
        <ele>100</ele>
        <time>2016-05-05T12:48:23.000Z</time>
      </trkpt>
      <trkpt lat="48.92484" lon="2.08576">
        <ele>100</ele>
        <time>2016-05-05T12:48:25.000Z</time>
      </trkpt>
      <trkpt lat="48.92484" lon="2.08576">
        <ele>100</ele>
        <time>2016-05-05T12:48:27.000Z</time>
      </trkpt>
      <trkpt lat="48.92484" lon="2.08576">
        <ele>100</ele>
        <time>2016-05-05T12:48:29.000Z</time>
      </trkpt>
      <trkpt lat="48.92489" lon="2.0858">
        <ele>99</ele>
        <time>2016-05-05T12:48:35.000Z</time>
      </trkpt>
      <trkpt lat="48.92489" lon="2.0858">
        <ele>99</ele>
        <time>2016-05-05T12:48:37.000Z</time>
      </trkpt>
      <trkpt lat="48.92489" lon="2.0858">
        <ele>99</ele>
        <time>2016-05-05T12:48:39.000Z</time>
      </trkpt>
      <trkpt lat="48.92489" lon="2.0858">
        <ele>99</ele>
        <time>2016-05-05T12:48:41.000Z</time>
      </trkpt>
      <trkpt lat="48.92493" lon="2.08585">
        <ele>99</ele>
        <time>2016-05-05T12:48:43.000Z</time>
      </trkpt>
      <trkpt lat="48.92497" lon="2.08588">
        <ele>99</ele>
        <time>2016-05-05T12:48:45.000Z</time>
      </trkpt>
      <trkpt lat="48.92497" lon="2.08588">
        <ele>99</ele>
        <time>2016-05-05T12:48:47.000Z</time>
      </trkpt>
      <trkpt lat="48.92497" lon="2.08588">
        <ele>99</ele>
        <time>2016-05-05T12:48:53.000Z</time>
      </trkpt>
      <trkpt lat="48.92497" lon="2.08588">
        <ele>99</ele>
        <time>2016-05-05T12:48:55.000Z</time>
      </trkpt>
      <trkpt lat="48.92502" lon="2.0859">
        <ele>97</ele>
        <time>2016-05-05T12:48:57.000Z</time>
      </trkpt>
      <trkpt lat="48.92507" lon="2.08591">
        <ele>96</ele>
        <time>2016-05-05T12:48:59.000Z</time>
      </trkpt>
      <trkpt lat="48.92507" lon="2.08591">
        <ele>96</ele>
        <time>2016-05-05T12:49:01.000Z</time>
      </trkpt>
      <trkpt lat="48.92507" lon="2.08591">
        <ele>96</ele>
        <time>2016-05-05T12:49:03.000Z</time>
      </trkpt>
      <trkpt lat="48.92512" lon="2.08593">
        <ele>96</ele>
        <time>2016-05-05T12:49:05.000Z</time>
      </trkpt>
      <trkpt lat="48.92512" lon="2.08593">
        <ele>96</ele>
        <time>2016-05-05T12:49:07.000Z</time>
      </trkpt>
      <trkpt lat="48.92515" lon="2.08594">
        <ele>95</ele>
        <time>2016-05-05T12:49:09.000Z</time>
      </trkpt>
      <trkpt lat="48.92515" lon="2.08594">
        <ele>95</ele>
        <time>2016-05-05T12:49:11.000Z</time>
      </trkpt>
      <trkpt lat="48.92515" lon="2.08594">
        <ele>95</ele>
        <time>2016-05-05T12:49:13.000Z</time>
      </trkpt>
      <trkpt lat="48.9252" lon="2.08596">
        <ele>94</ele>
        <time>2016-05-05T12:49:15.000Z</time>
      </trkpt>
      <trkpt lat="48.9252" lon="2.08596">
        <ele>94</ele>
        <time>2016-05-05T12:49:17.000Z</time>
      </trkpt>
      <trkpt lat="48.9252" lon="2.08596">
        <ele>94</ele>
        <time>2016-05-05T12:49:19.000Z</time>
      </trkpt>
      <trkpt lat="48.9252" lon="2.08596">
        <ele>94</ele>
        <time>2016-05-05T12:49:21.000Z</time>
      </trkpt>
      <trkpt lat="48.92541" lon="2.08607">
        <ele>90</ele>
        <time>2016-05-05T12:49:51.000Z</time>
      </trkpt>
      <trkpt lat="48.92552" lon="2.08613">
        <ele>90</ele>
        <time>2016-05-05T12:49:53.000Z</time>
      </trkpt>
      <trkpt lat="48.92559" lon="2.08616">
        <ele>90</ele>
        <time>2016-05-05T12:49:55.000Z</time>
      </trkpt>
      <trkpt lat="48.92563" lon="2.08617">
        <ele>89</ele>
        <time>2016-05-05T12:49:57.000Z</time>
      </trkpt>
      <trkpt lat="48.92563" lon="2.08617">
        <ele>89</ele>
        <time>2016-05-05T12:50:01.000Z</time>
      </trkpt>
      <trkpt lat="48.92568" lon="2.08621">
        <ele>89</ele>
        <time>2016-05-05T12:50:03.000Z</time>
      </trkpt>
      <trkpt lat="48.92568" lon="2.08621">
        <ele>89</ele>
        <time>2016-05-05T12:50:05.000Z</time>
      </trkpt>
      <trkpt lat="48.92568" lon="2.08621">
        <ele>89</ele>
        <time>2016-05-05T12:50:07.000Z</time>
      </trkpt>
      <trkpt lat="48.92571" lon="2.08627">
        <ele>88</ele>
        <time>2016-05-05T12:50:09.000Z</time>
      </trkpt>
      <trkpt lat="48.92571" lon="2.08627">
        <ele>88</ele>
        <time>2016-05-05T12:50:11.000Z</time>
      </trkpt>
      <trkpt lat="48.92575" lon="2.08628">
        <ele>88</ele>
        <time>2016-05-05T12:50:15.000Z</time>
      </trkpt>
      <trkpt lat="48.92575" lon="2.08628">
        <ele>88</ele>
        <time>2016-05-05T12:50:17.000Z</time>
      </trkpt>
      <trkpt lat="48.92575" lon="2.08628">
        <ele>88</ele>
        <time>2016-05-05T12:50:19.000Z</time>
      </trkpt>
      <trkpt lat="48.92581" lon="2.08629">
        <ele>87</ele>
        <time>2016-05-05T12:50:21.000Z</time>
      </trkpt>
      <trkpt lat="48.92586" lon="2.0863">
        <ele>86</ele>
        <time>2016-05-05T12:50:25.000Z</time>
      </trkpt>
      <trkpt lat="48.92586" lon="2.0863">
        <ele>86</ele>
        <time>2016-05-05T12:50:27.000Z</time>
      </trkpt>
      <trkpt lat="48.92591" lon="2.08632">
        <ele>85</ele>
        <time>2016-05-05T12:50:29.000Z</time>
      </trkpt>
      <trkpt lat="48.92596" lon="2.08632">
        <ele>84</ele>
        <time>2016-05-05T12:50:33.000Z</time>
      </trkpt>
      <trkpt lat="48.92604" lon="2.08634">
        <ele>83</ele>
        <time>2016-05-05T12:50:36.000Z</time>
      </trkpt>
      <trkpt lat="48.9261" lon="2.08635">
        <ele>83</ele>
        <time>2016-05-05T12:50:38.000Z</time>
      </trkpt>
      <trkpt lat="48.92616" lon="2.08636">
        <ele>83</ele>
        <time>2016-05-05T12:50:42.000Z</time>
      </trkpt>
      <trkpt lat="48.92616" lon="2.08636">
        <ele>83</ele>
        <time>2016-05-05T12:50:44.000Z</time>
      </trkpt>
      <trkpt lat="48.92616" lon="2.08636">
        <ele>83</ele>
        <time>2016-05-05T12:50:46.000Z</time>
      </trkpt>
      <trkpt lat="48.92624" lon="2.08637">
        <ele>84</ele>
        <time>2016-05-05T12:50:49.000Z</time>
      </trkpt>
      <trkpt lat="48.9263" lon="2.08638">
        <ele>84</ele>
        <time>2016-05-05T12:50:51.000Z</time>
      </trkpt>
      <trkpt lat="48.92635" lon="2.08639">
        <ele>84</ele>
        <time>2016-05-05T12:50:53.000Z</time>
      </trkpt>
      <trkpt lat="48.92641" lon="2.0864">
        <ele>85</ele>
        <time>2016-05-05T12:50:57.000Z</time>
      </trkpt>
      <trkpt lat="48.92645" lon="2.08642">
        <ele>85</ele>
        <time>2016-05-05T12:50:59.000Z</time>
      </trkpt>
      <trkpt lat="48.92649" lon="2.08643">
        <ele>86</ele>
        <time>2016-05-05T12:51:03.000Z</time>
      </trkpt>
      <trkpt lat="48.92649" lon="2.08643">
        <ele>86</ele>
        <time>2016-05-05T12:51:07.000Z</time>
      </trkpt>
      <trkpt lat="48.92654" lon="2.08645">
        <ele>87</ele>
        <time>2016-05-05T12:51:09.000Z</time>
      </trkpt>
      <trkpt lat="48.92659" lon="2.08647">
        <ele>88</ele>
        <time>2016-05-05T12:51:11.000Z</time>
      </trkpt>
      <trkpt lat="48.92664" lon="2.08648">
        <ele>88</ele>
        <time>2016-05-05T12:51:13.000Z</time>
      </trkpt>
      <trkpt lat="48.92667" lon="2.08649">
        <ele>88</ele>
        <time>2016-05-05T12:51:15.000Z</time>
      </trkpt>
      <trkpt lat="48.92667" lon="2.08649">
        <ele>88</ele>
        <time>2016-05-05T12:51:17.000Z</time>
      </trkpt>
      <trkpt lat="48.92671" lon="2.08651">
        <ele>89</ele>
        <time>2016-05-05T12:51:19.000Z</time>
      </trkpt>
      <trkpt lat="48.92671" lon="2.08651">
        <ele>89</ele>
        <time>2016-05-05T12:51:21.000Z</time>
      </trkpt>
      <trkpt lat="48.92671" lon="2.08651">
        <ele>89</ele>
        <time>2016-05-05T12:51:23.000Z</time>
      </trkpt>
      <trkpt lat="48.92674" lon="2.08651">
        <ele>90</ele>
        <time>2016-05-05T12:51:25.000Z</time>
      </trkpt>
      <trkpt lat="48.92674" lon="2.08651">
        <ele>90</ele>
        <time>2016-05-05T12:51:27.000Z</time>
      </trkpt>
      <trkpt lat="48.92674" lon="2.08651">
        <ele>90</ele>
        <time>2016-05-05T12:51:29.000Z</time>
      </trkpt>
      <trkpt lat="48.9268" lon="2.08653">
        <ele>90</ele>
        <time>2016-05-05T12:51:31.000Z</time>
      </trkpt>
      <trkpt lat="48.92685" lon="2.08656">
        <ele>90</ele>
        <time>2016-05-05T12:51:35.000Z</time>
      </trkpt>
      <trkpt lat="48.9269" lon="2.08658">
        <ele>91</ele>
        <time>2016-05-05T12:51:39.000Z</time>
      </trkpt>
      <trkpt lat="48.9269" lon="2.08658">
        <ele>91</ele>
        <time>2016-05-05T12:51:41.000Z</time>
      </trkpt>
      <trkpt lat="48.92695" lon="2.0866">
        <ele>91</ele>
        <time>2016-05-05T12:51:43.000Z</time>
      </trkpt>
      <trkpt lat="48.92695" lon="2.0866">
        <ele>91</ele>
        <time>2016-05-05T12:51:45.000Z</time>
      </trkpt>
      <trkpt lat="48.92702" lon="2.08663">
        <ele>92</ele>
        <time>2016-05-05T12:51:49.000Z</time>
      </trkpt>
      <trkpt lat="48.92705" lon="2.08665">
        <ele>93</ele>
        <time>2016-05-05T12:51:51.000Z</time>
      </trkpt>
      <trkpt lat="48.92705" lon="2.08665">
        <ele>93</ele>
        <time>2016-05-05T12:51:53.000Z</time>
      </trkpt>
      <trkpt lat="48.92705" lon="2.08665">
        <ele>93</ele>
        <time>2016-05-05T12:51:55.000Z</time>
      </trkpt>
      <trkpt lat="48.92705" lon="2.08665">
        <ele>93</ele>
        <time>2016-05-05T12:51:57.000Z</time>
      </trkpt>
      <trkpt lat="48.92705" lon="2.08665">
        <ele>93</ele>
        <time>2016-05-05T12:51:59.000Z</time>
      </trkpt>
      <trkpt lat="48.92712" lon="2.08667">
        <ele>93</ele>
        <time>2016-05-05T12:52:03.000Z</time>
      </trkpt>
      <trkpt lat="48.92716" lon="2.08668">
        <ele>93</ele>
        <time>2016-05-05T12:52:05.000Z</time>
      </trkpt>
      <trkpt lat="48.92719" lon="2.08669">
        <ele>93</ele>
        <time>2016-05-05T12:52:09.000Z</time>
      </trkpt>
      <trkpt lat="48.92719" lon="2.08669">
        <ele>93</ele>
        <time>2016-05-05T12:52:11.000Z</time>
      </trkpt>
      <trkpt lat="48.92719" lon="2.08669">
        <ele>93</ele>
        <time>2016-05-05T12:52:13.000Z</time>
      </trkpt>
      <trkpt lat="48.92726" lon="2.08677">
        <ele>93</ele>
        <time>2016-05-05T12:52:27.000Z</time>
      </trkpt>
      <trkpt lat="48.9273" lon="2.08683">
        <ele>93</ele>
        <time>2016-05-05T12:52:29.000Z</time>
      </trkpt>
      <trkpt lat="48.9273" lon="2.08683">
        <ele>93</ele>
        <time>2016-05-05T12:52:31.000Z</time>
      </trkpt>
      <trkpt lat="48.92734" lon="2.08686">
        <ele>92</ele>
        <time>2016-05-05T12:52:33.000Z</time>
      </trkpt>
      <trkpt lat="48.92737" lon="2.08688">
        <ele>92</ele>
        <time>2016-05-05T12:52:35.000Z</time>
      </trkpt>
      <trkpt lat="48.92743" lon="2.0869">
        <ele>92</ele>
        <time>2016-05-05T12:52:39.000Z</time>
      </trkpt>
      <trkpt lat="48.92749" lon="2.08692">
        <ele>92</ele>
        <time>2016-05-05T12:52:41.000Z</time>
      </trkpt>
      <trkpt lat="48.92749" lon="2.08692">
        <ele>92</ele>
        <time>2016-05-05T12:52:43.000Z</time>
      </trkpt>
      <trkpt lat="48.92757" lon="2.08693">
        <ele>92</ele>
        <time>2016-05-05T12:52:47.000Z</time>
      </trkpt>
      <trkpt lat="48.92763" lon="2.08695">
        <ele>91</ele>
        <time>2016-05-05T12:52:49.000Z</time>
      </trkpt>
      <trkpt lat="48.92767" lon="2.08695">
        <ele>91</ele>
        <time>2016-05-05T12:52:51.000Z</time>
      </trkpt>
      <trkpt lat="48.9277" lon="2.08695">
        <ele>91</ele>
        <time>2016-05-05T12:52:53.000Z</time>
      </trkpt>
      <trkpt lat="48.92773" lon="2.08694">
        <ele>91</ele>
        <time>2016-05-05T12:52:55.000Z</time>
      </trkpt>
      <trkpt lat="48.92773" lon="2.08694">
        <ele>91</ele>
        <time>2016-05-05T12:52:57.000Z</time>
      </trkpt>
      <trkpt lat="48.92783" lon="2.08695">
        <ele>90</ele>
        <time>2016-05-05T12:53:01.000Z</time>
      </trkpt>
      <trkpt lat="48.92783" lon="2.08695">
        <ele>90</ele>
        <time>2016-05-05T12:53:07.000Z</time>
      </trkpt>
      <trkpt lat="48.92783" lon="2.08695">
        <ele>90</ele>
        <time>2016-05-05T12:53:09.000Z</time>
      </trkpt>
      <trkpt lat="48.92783" lon="2.08695">
        <ele>90</ele>
        <time>2016-05-05T12:53:11.000Z</time>
      </trkpt>
      <trkpt lat="48.92783" lon="2.08695">
        <ele>90</ele>
        <time>2016-05-05T12:53:13.000Z</time>
      </trkpt>
      <trkpt lat="48.9279" lon="2.08706">
        <ele>88</ele>
        <time>2016-05-05T12:53:15.000Z</time>
      </trkpt>
      <trkpt lat="48.9279" lon="2.08706">
        <ele>88</ele>
        <time>2016-05-05T12:53:17.000Z</time>
      </trkpt>
      <trkpt lat="48.9279" lon="2.08706">
        <ele>88</ele>
        <time>2016-05-05T12:53:21.000Z</time>
      </trkpt>
      <trkpt lat="48.9279" lon="2.08706">
        <ele>88</ele>
        <time>2016-05-05T12:53:23.000Z</time>
      </trkpt>
      <trkpt lat="48.92798" lon="2.08713">
        <ele>87</ele>
        <time>2016-05-05T12:53:25.000Z</time>
      </trkpt>
      <trkpt lat="48.92798" lon="2.08713">
        <ele>87</ele>
        <time>2016-05-05T12:53:27.000Z</time>
      </trkpt>
      <trkpt lat="48.92798" lon="2.08713">
        <ele>87</ele>
        <time>2016-05-05T12:53:29.000Z</time>
      </trkpt>
      <trkpt lat="48.92812" lon="2.0872">
        <ele>87</ele>
        <time>2016-05-05T12:53:31.000Z</time>
      </trkpt>
      <trkpt lat="48.92812" lon="2.0872">
        <ele>87</ele>
        <time>2016-05-05T12:53:39.000Z</time>
      </trkpt>
      <trkpt lat="48.92823" lon="2.08722">
        <ele>87</ele>
        <time>2016-05-05T12:53:43.000Z</time>
      </trkpt>
      <trkpt lat="48.9283" lon="2.08715">
        <ele>87</ele>
        <time>2016-05-05T12:53:51.000Z</time>
      </trkpt>
      <trkpt lat="48.9283" lon="2.08715">
        <ele>87</ele>
        <time>2016-05-05T12:53:53.000Z</time>
      </trkpt>
      <trkpt lat="48.92829" lon="2.08703">
        <ele>87</ele>
        <time>2016-05-05T12:53:55.000Z</time>
      </trkpt>
      <trkpt lat="48.92831" lon="2.08693">
        <ele>88</ele>
        <time>2016-05-05T12:54:01.000Z</time>
      </trkpt>
      <trkpt lat="48.92831" lon="2.08693">
        <ele>88</ele>
        <time>2016-05-05T12:54:05.000Z</time>
      </trkpt>
      <trkpt lat="48.92834" lon="2.08684">
        <ele>90</ele>
        <time>2016-05-05T12:54:07.000Z</time>
      </trkpt>
      <trkpt lat="48.92834" lon="2.08684">
        <ele>90</ele>
        <time>2016-05-05T12:54:09.000Z</time>
      </trkpt>
      <trkpt lat="48.92834" lon="2.08684">
        <ele>90</ele>
        <time>2016-05-05T12:54:11.000Z</time>
      </trkpt>
      <trkpt lat="48.92834" lon="2.08684">
        <ele>90</ele>
        <time>2016-05-05T12:54:13.000Z</time>
      </trkpt>
      <trkpt lat="48.92834" lon="2.08679">
        <ele>93</ele>
        <time>2016-05-05T12:54:15.000Z</time>
      </trkpt>
      <trkpt lat="48.92834" lon="2.08679">
        <ele>93</ele>
        <time>2016-05-05T12:54:17.000Z</time>
      </trkpt>
      <trkpt lat="48.92835" lon="2.08673">
        <ele>94</ele>
        <time>2016-05-05T12:54:19.000Z</time>
      </trkpt>
      <trkpt lat="48.92835" lon="2.08673">
        <ele>94</ele>
        <time>2016-05-05T12:54:21.000Z</time>
      </trkpt>
      <trkpt lat="48.92835" lon="2.08673">
        <ele>94</ele>
        <time>2016-05-05T12:54:23.000Z</time>
      </trkpt>
      <trkpt lat="48.92835" lon="2.08665">
        <ele>96</ele>
        <time>2016-05-05T12:54:25.000Z</time>
      </trkpt>
      <trkpt lat="48.92834" lon="2.08659">
        <ele>97</ele>
        <time>2016-05-05T12:54:27.000Z</time>
      </trkpt>
      <trkpt lat="48.92834" lon="2.08654">
        <ele>97</ele>
        <time>2016-05-05T12:54:29.000Z</time>
      </trkpt>
      <trkpt lat="48.92834" lon="2.08654">
        <ele>97</ele>
        <time>2016-05-05T12:54:31.000Z</time>
      </trkpt>
      <trkpt lat="48.92835" lon="2.08648">
        <ele>99</ele>
        <time>2016-05-05T12:54:33.000Z</time>
      </trkpt>
      <trkpt lat="48.92836" lon="2.08643">
        <ele>100</ele>
        <time>2016-05-05T12:54:35.000Z</time>
      </trkpt>
      <trkpt lat="48.92837" lon="2.08638">
        <ele>100</ele>
        <time>2016-05-05T12:54:37.000Z</time>
      </trkpt>
      <trkpt lat="48.92838" lon="2.08633">
        <ele>101</ele>
        <time>2016-05-05T12:54:39.000Z</time>
      </trkpt>
      <trkpt lat="48.92839" lon="2.08629">
        <ele>101</ele>
        <time>2016-05-05T12:54:41.000Z</time>
      </trkpt>
      <trkpt lat="48.92841" lon="2.08619">
        <ele>102</ele>
        <time>2016-05-05T12:54:45.000Z</time>
      </trkpt>
      <trkpt lat="48.92843" lon="2.08611">
        <ele>103</ele>
        <time>2016-05-05T12:54:51.000Z</time>
      </trkpt>
      <trkpt lat="48.92845" lon="2.08595">
        <ele>103</ele>
        <time>2016-05-05T12:54:59.000Z</time>
      </trkpt>
      <trkpt lat="48.92845" lon="2.08595">
        <ele>103</ele>
        <time>2016-05-05T12:55:01.000Z</time>
      </trkpt>
      <trkpt lat="48.92845" lon="2.08595">
        <ele>103</ele>
        <time>2016-05-05T12:55:03.000Z</time>
      </trkpt>
      <trkpt lat="48.92844" lon="2.08586">
        <ele>102</ele>
        <time>2016-05-05T12:55:05.000Z</time>
      </trkpt>
      <trkpt lat="48.92844" lon="2.08586">
        <ele>102</ele>
        <time>2016-05-05T12:55:07.000Z</time>
      </trkpt>
      <trkpt lat="48.92844" lon="2.08586">
        <ele>102</ele>
        <time>2016-05-05T12:55:09.000Z</time>
      </trkpt>
      <trkpt lat="48.92845" lon="2.08576">
        <ele>102</ele>
        <time>2016-05-05T12:55:11.000Z</time>
      </trkpt>
      <trkpt lat="48.92845" lon="2.08576">
        <ele>102</ele>
        <time>2016-05-05T12:55:13.000Z</time>
      </trkpt>
      <trkpt lat="48.92845" lon="2.08576">
        <ele>102</ele>
        <time>2016-05-05T12:55:15.000Z</time>
      </trkpt>
      <trkpt lat="48.92847" lon="2.08565">
        <ele>103</ele>
        <time>2016-05-05T12:55:19.000Z</time>
      </trkpt>
      <trkpt lat="48.92847" lon="2.08565">
        <ele>103</ele>
        <time>2016-05-05T12:55:21.000Z</time>
      </trkpt>
      <trkpt lat="48.92847" lon="2.08565">
        <ele>103</ele>
        <time>2016-05-05T12:55:23.000Z</time>
      </trkpt>
      <trkpt lat="48.9285" lon="2.08557">
        <ele>105</ele>
        <time>2016-05-05T12:55:25.000Z</time>
      </trkpt>
      <trkpt lat="48.9285" lon="2.08557">
        <ele>105</ele>
        <time>2016-05-05T12:55:27.000Z</time>
      </trkpt>
      <trkpt lat="48.92855" lon="2.0855">
        <ele>106</ele>
        <time>2016-05-05T12:55:31.000Z</time>
      </trkpt>
      <trkpt lat="48.92854" lon="2.08535">
        <ele>106</ele>
        <time>2016-05-05T12:55:37.000Z</time>
      </trkpt>
      <trkpt lat="48.92854" lon="2.08535">
        <ele>106</ele>
        <time>2016-05-05T12:55:39.000Z</time>
      </trkpt>
      <trkpt lat="48.92854" lon="2.08535">
        <ele>106</ele>
        <time>2016-05-05T12:55:41.000Z</time>
      </trkpt>
      <trkpt lat="48.92854" lon="2.08535">
        <ele>106</ele>
        <time>2016-05-05T12:55:43.000Z</time>
      </trkpt>
      <trkpt lat="48.92853" lon="2.08519">
        <ele>106</ele>
        <time>2016-05-05T12:55:45.000Z</time>
      </trkpt>
      <trkpt lat="48.92853" lon="2.08519">
        <ele>106</ele>
        <time>2016-05-05T12:55:47.000Z</time>
      </trkpt>
      <trkpt lat="48.92853" lon="2.08519">
        <ele>106</ele>
        <time>2016-05-05T12:55:49.000Z</time>
      </trkpt>
      <trkpt lat="48.92853" lon="2.08505">
        <ele>106</ele>
        <time>2016-05-05T12:55:51.000Z</time>
      </trkpt>
      <trkpt lat="48.92853" lon="2.08505">
        <ele>106</ele>
        <time>2016-05-05T12:55:53.000Z</time>
      </trkpt>
      <trkpt lat="48.92853" lon="2.08505">
        <ele>106</ele>
        <time>2016-05-05T12:55:55.000Z</time>
      </trkpt>
      <trkpt lat="48.92853" lon="2.08505">
        <ele>106</ele>
        <time>2016-05-05T12:55:57.000Z</time>
      </trkpt>
      <trkpt lat="48.92852" lon="2.08495">
        <ele>106</ele>
        <time>2016-05-05T12:55:59.000Z</time>
      </trkpt>
      <trkpt lat="48.92852" lon="2.08495">
        <ele>106</ele>
        <time>2016-05-05T12:56:01.000Z</time>
      </trkpt>
      <trkpt lat="48.92852" lon="2.08495">
        <ele>106</ele>
        <time>2016-05-05T12:56:03.000Z</time>
      </trkpt>
      <trkpt lat="48.92853" lon="2.08486">
        <ele>105</ele>
        <time>2016-05-05T12:56:05.000Z</time>
      </trkpt>
      <trkpt lat="48.92854" lon="2.08478">
        <ele>105</ele>
        <time>2016-05-05T12:56:13.000Z</time>
      </trkpt>
      <trkpt lat="48.92854" lon="2.08472">
        <ele>105</ele>
        <time>2016-05-05T12:56:15.000Z</time>
      </trkpt>
      <trkpt lat="48.92854" lon="2.08467">
        <ele>105</ele>
        <time>2016-05-05T12:56:17.000Z</time>
      </trkpt>
      <trkpt lat="48.92855" lon="2.08461">
        <ele>105</ele>
        <time>2016-05-05T12:56:21.000Z</time>
      </trkpt>
      <trkpt lat="48.92855" lon="2.08461">
        <ele>105</ele>
        <time>2016-05-05T12:56:23.000Z</time>
      </trkpt>
      <trkpt lat="48.92855" lon="2.08454">
        <ele>105</ele>
        <time>2016-05-05T12:56:25.000Z</time>
      </trkpt>
      <trkpt lat="48.92856" lon="2.08449">
        <ele>105</ele>
        <time>2016-05-05T12:56:27.000Z</time>
      </trkpt>
      <trkpt lat="48.92856" lon="2.08449">
        <ele>105</ele>
        <time>2016-05-05T12:56:29.000Z</time>
      </trkpt>
      <trkpt lat="48.92857" lon="2.08444">
        <ele>105</ele>
        <time>2016-05-05T12:56:31.000Z</time>
      </trkpt>
      <trkpt lat="48.92857" lon="2.08444">
        <ele>105</ele>
        <time>2016-05-05T12:56:33.000Z</time>
      </trkpt>
      <trkpt lat="48.92858" lon="2.08438">
        <ele>105</ele>
        <time>2016-05-05T12:56:35.000Z</time>
      </trkpt>
      <trkpt lat="48.92858" lon="2.08438">
        <ele>105</ele>
        <time>2016-05-05T12:56:37.000Z</time>
      </trkpt>
      <trkpt lat="48.92859" lon="2.08431">
        <ele>105</ele>
        <time>2016-05-05T12:56:41.000Z</time>
      </trkpt>
      <trkpt lat="48.92859" lon="2.08431">
        <ele>105</ele>
        <time>2016-05-05T12:56:43.000Z</time>
      </trkpt>
      <trkpt lat="48.92859" lon="2.08431">
        <ele>105</ele>
        <time>2016-05-05T12:56:45.000Z</time>
      </trkpt>
      <trkpt lat="48.92859" lon="2.08422">
        <ele>104</ele>
        <time>2016-05-05T12:56:47.000Z</time>
      </trkpt>
      <trkpt lat="48.92859" lon="2.08414">
        <ele>104</ele>
        <time>2016-05-05T12:56:51.000Z</time>
      </trkpt>
      <trkpt lat="48.92859" lon="2.08414">
        <ele>104</ele>
        <time>2016-05-05T12:56:53.000Z</time>
      </trkpt>
      <trkpt lat="48.92859" lon="2.08406">
        <ele>104</ele>
        <time>2016-05-05T12:56:55.000Z</time>
      </trkpt>
      <trkpt lat="48.92859" lon="2.08401">
        <ele>104</ele>
        <time>2016-05-05T12:56:57.000Z</time>
      </trkpt>
      <trkpt lat="48.92859" lon="2.08397">
        <ele>104</ele>
        <time>2016-05-05T12:56:59.000Z</time>
      </trkpt>
      <trkpt lat="48.92859" lon="2.0839">
        <ele>104</ele>
        <time>2016-05-05T12:57:03.000Z</time>
      </trkpt>
      <trkpt lat="48.92859" lon="2.08384">
        <ele>104</ele>
        <time>2016-05-05T12:57:05.000Z</time>
      </trkpt>
      <trkpt lat="48.9286" lon="2.08377">
        <ele>104</ele>
        <time>2016-05-05T12:57:09.000Z</time>
      </trkpt>
      <trkpt lat="48.92861" lon="2.08367">
        <ele>103</ele>
        <time>2016-05-05T12:57:15.000Z</time>
      </trkpt>
      <trkpt lat="48.92861" lon="2.08367">
        <ele>103</ele>
        <time>2016-05-05T12:57:17.000Z</time>
      </trkpt>
      <trkpt lat="48.92862" lon="2.0836">
        <ele>103</ele>
        <time>2016-05-05T12:57:19.000Z</time>
      </trkpt>
      <trkpt lat="48.92862" lon="2.0836">
        <ele>103</ele>
        <time>2016-05-05T12:57:21.000Z</time>
      </trkpt>
      <trkpt lat="48.92862" lon="2.08355">
        <ele>102</ele>
        <time>2016-05-05T12:57:23.000Z</time>
      </trkpt>
      <trkpt lat="48.92862" lon="2.08355">
        <ele>102</ele>
        <time>2016-05-05T12:57:25.000Z</time>
      </trkpt>
      <trkpt lat="48.92862" lon="2.08355">
        <ele>102</ele>
        <time>2016-05-05T12:57:27.000Z</time>
      </trkpt>
      <trkpt lat="48.92862" lon="2.08348">
        <ele>103</ele>
        <time>2016-05-05T12:57:31.000Z</time>
      </trkpt>
      <trkpt lat="48.92862" lon="2.08348">
        <ele>103</ele>
        <time>2016-05-05T12:57:33.000Z</time>
      </trkpt>
      <trkpt lat="48.92863" lon="2.08339">
        <ele>103</ele>
        <time>2016-05-05T12:57:37.000Z</time>
      </trkpt>
      <trkpt lat="48.92865" lon="2.08331">
        <ele>103</ele>
        <time>2016-05-05T12:57:41.000Z</time>
      </trkpt>
      <trkpt lat="48.92868" lon="2.08324">
        <ele>104</ele>
        <time>2016-05-05T12:57:45.000Z</time>
      </trkpt>
      <trkpt lat="48.9287" lon="2.08318">
        <ele>104</ele>
        <time>2016-05-05T12:57:49.000Z</time>
      </trkpt>
      <trkpt lat="48.92871" lon="2.0831">
        <ele>104</ele>
        <time>2016-05-05T12:57:55.000Z</time>
      </trkpt>
      <trkpt lat="48.92871" lon="2.0831">
        <ele>104</ele>
        <time>2016-05-05T12:57:57.000Z</time>
      </trkpt>
      <trkpt lat="48.92871" lon="2.08303">
        <ele>105</ele>
        <time>2016-05-05T12:57:59.000Z</time>
      </trkpt>
      <trkpt lat="48.92871" lon="2.08303">
        <ele>105</ele>
        <time>2016-05-05T12:58:01.000Z</time>
      </trkpt>
      <trkpt lat="48.92871" lon="2.08303">
        <ele>105</ele>
        <time>2016-05-05T12:58:03.000Z</time>
      </trkpt>
      <trkpt lat="48.92871" lon="2.08294">
        <ele>105</ele>
        <time>2016-05-05T12:58:05.000Z</time>
      </trkpt>
      <trkpt lat="48.92871" lon="2.08286">
        <ele>104</ele>
        <time>2016-05-05T12:58:09.000Z</time>
      </trkpt>
      <trkpt lat="48.92871" lon="2.08279">
        <ele>104</ele>
        <time>2016-05-05T12:58:11.000Z</time>
      </trkpt>
      <trkpt lat="48.92871" lon="2.08279">
        <ele>104</ele>
        <time>2016-05-05T12:58:13.000Z</time>
      </trkpt>
      <trkpt lat="48.92871" lon="2.08272">
        <ele>104</ele>
        <time>2016-05-05T12:58:15.000Z</time>
      </trkpt>
      <trkpt lat="48.92871" lon="2.08272">
        <ele>104</ele>
        <time>2016-05-05T12:58:17.000Z</time>
      </trkpt>
      <trkpt lat="48.92871" lon="2.08272">
        <ele>104</ele>
        <time>2016-05-05T12:58:19.000Z</time>
      </trkpt>
      <trkpt lat="48.92871" lon="2.08272">
        <ele>104</ele>
        <time>2016-05-05T12:58:21.000Z</time>
      </trkpt>
      <trkpt lat="48.92872" lon="2.08263">
        <ele>104</ele>
        <time>2016-05-05T12:58:23.000Z</time>
      </trkpt>
      <trkpt lat="48.92873" lon="2.08256">
        <ele>104</ele>
        <time>2016-05-05T12:58:25.000Z</time>
      </trkpt>
      <trkpt lat="48.92873" lon="2.08248">
        <ele>103</ele>
        <time>2016-05-05T12:58:31.000Z</time>
      </trkpt>
      <trkpt lat="48.92873" lon="2.08241">
        <ele>102</ele>
        <time>2016-05-05T12:58:35.000Z</time>
      </trkpt>
      <trkpt lat="48.92873" lon="2.08234">
        <ele>101</ele>
        <time>2016-05-05T12:58:41.000Z</time>
      </trkpt>
      <trkpt lat="48.92873" lon="2.08234">
        <ele>101</ele>
        <time>2016-05-05T12:58:43.000Z</time>
      </trkpt>
      <trkpt lat="48.92873" lon="2.08234">
        <ele>101</ele>
        <time>2016-05-05T12:58:45.000Z</time>
      </trkpt>
      <trkpt lat="48.92872" lon="2.08225">
        <ele>99</ele>
        <time>2016-05-05T12:58:47.000Z</time>
      </trkpt>
      <trkpt lat="48.92872" lon="2.08225">
        <ele>99</ele>
        <time>2016-05-05T12:58:49.000Z</time>
      </trkpt>
      <trkpt lat="48.92871" lon="2.08217">
        <ele>98</ele>
        <time>2016-05-05T12:58:51.000Z</time>
      </trkpt>
      <trkpt lat="48.92871" lon="2.08217">
        <ele>98</ele>
        <time>2016-05-05T12:58:55.000Z</time>
      </trkpt>
      <trkpt lat="48.92871" lon="2.08217">
        <ele>98</ele>
        <time>2016-05-05T12:58:57.000Z</time>
      </trkpt>
      <trkpt lat="48.92875" lon="2.08201">
        <ele>96</ele>
        <time>2016-05-05T12:59:07.000Z</time>
      </trkpt>
      <trkpt lat="48.92877" lon="2.0819">
        <ele>96</ele>
        <time>2016-05-05T12:59:09.000Z</time>
      </trkpt>
      <trkpt lat="48.92878" lon="2.08182">
        <ele>96</ele>
        <time>2016-05-05T12:59:11.000Z</time>
      </trkpt>
      <trkpt lat="48.92878" lon="2.08182">
        <ele>96</ele>
        <time>2016-05-05T12:59:13.000Z</time>
      </trkpt>
      <trkpt lat="48.92878" lon="2.08182">
        <ele>96</ele>
        <time>2016-05-05T12:59:15.000Z</time>
      </trkpt>
      <trkpt lat="48.92879" lon="2.08174">
        <ele>97</ele>
        <time>2016-05-05T12:59:17.000Z</time>
      </trkpt>
      <trkpt lat="48.92881" lon="2.08167">
        <ele>99</ele>
        <time>2016-05-05T12:59:25.000Z</time>
      </trkpt>
      <trkpt lat="48.92881" lon="2.08167">
        <ele>99</ele>
        <time>2016-05-05T12:59:27.000Z</time>
      </trkpt>
      <trkpt lat="48.92882" lon="2.08161">
        <ele>99</ele>
        <time>2016-05-05T12:59:29.000Z</time>
      </trkpt>
      <trkpt lat="48.92882" lon="2.08161">
        <ele>99</ele>
        <time>2016-05-05T12:59:31.000Z</time>
      </trkpt>
      <trkpt lat="48.92882" lon="2.08161">
        <ele>99</ele>
        <time>2016-05-05T12:59:33.000Z</time>
      </trkpt>
      <trkpt lat="48.92884" lon="2.08154">
        <ele>98</ele>
        <time>2016-05-05T12:59:35.000Z</time>
      </trkpt>
      <trkpt lat="48.92884" lon="2.08154">
        <ele>98</ele>
        <time>2016-05-05T12:59:37.000Z</time>
      </trkpt>
      <trkpt lat="48.92884" lon="2.08148">
        <ele>98</ele>
        <time>2016-05-05T12:59:39.000Z</time>
      </trkpt>
      <trkpt lat="48.92885" lon="2.08138">
        <ele>98</ele>
        <time>2016-05-05T12:59:45.000Z</time>
      </trkpt>
      <trkpt lat="48.92885" lon="2.08129">
        <ele>97</ele>
        <time>2016-05-05T12:59:47.000Z</time>
      </trkpt>
      <trkpt lat="48.92884" lon="2.08122">
        <ele>97</ele>
        <time>2016-05-05T12:59:49.000Z</time>
      </trkpt>
      <trkpt lat="48.92884" lon="2.08115">
        <ele>96</ele>
        <time>2016-05-05T12:59:53.000Z</time>
      </trkpt>
      <trkpt lat="48.92884" lon="2.08107">
        <ele>96</ele>
        <time>2016-05-05T12:59:57.000Z</time>
      </trkpt>
      <trkpt lat="48.92884" lon="2.08099">
        <ele>96</ele>
        <time>2016-05-05T13:00:01.000Z</time>
      </trkpt>
      <trkpt lat="48.92886" lon="2.08087">
        <ele>95</ele>
        <time>2016-05-05T13:00:09.000Z</time>
      </trkpt>
      <trkpt lat="48.92886" lon="2.08079">
        <ele>94</ele>
        <time>2016-05-05T13:00:11.000Z</time>
      </trkpt>
      <trkpt lat="48.92886" lon="2.08079">
        <ele>94</ele>
        <time>2016-05-05T13:00:13.000Z</time>
      </trkpt>
      <trkpt lat="48.92886" lon="2.08072">
        <ele>92</ele>
        <time>2016-05-05T13:00:19.000Z</time>
      </trkpt>
      <trkpt lat="48.92886" lon="2.08072">
        <ele>92</ele>
        <time>2016-05-05T13:00:21.000Z</time>
      </trkpt>
      <trkpt lat="48.92885" lon="2.08064">
        <ele>92</ele>
        <time>2016-05-05T13:00:23.000Z</time>
      </trkpt>
      <trkpt lat="48.92885" lon="2.08064">
        <ele>92</ele>
        <time>2016-05-05T13:00:25.000Z</time>
      </trkpt>
      <trkpt lat="48.92885" lon="2.08064">
        <ele>92</ele>
        <time>2016-05-05T13:00:27.000Z</time>
      </trkpt>
      <trkpt lat="48.92883" lon="2.08052">
        <ele>88</ele>
        <time>2016-05-05T13:00:39.000Z</time>
      </trkpt>
      <trkpt lat="48.92882" lon="2.08044">
        <ele>88</ele>
        <time>2016-05-05T13:00:41.000Z</time>
      </trkpt>
      <trkpt lat="48.92882" lon="2.08044">
        <ele>88</ele>
        <time>2016-05-05T13:00:43.000Z</time>
      </trkpt>
      <trkpt lat="48.92882" lon="2.08044">
        <ele>88</ele>
        <time>2016-05-05T13:00:45.000Z</time>
      </trkpt>
      <trkpt lat="48.92891" lon="2.08045">
        <ele>85</ele>
        <time>2016-05-05T13:01:25.000Z</time>
      </trkpt>
      <trkpt lat="48.92891" lon="2.08045">
        <ele>85</ele>
        <time>2016-05-05T13:01:27.000Z</time>
      </trkpt>
      <trkpt lat="48.90571" lon="2.08424">
        <ele>127</ele>
        <time>2016-05-05T15:02:00.000Z</time>
      </trkpt>
      <trkpt lat="48.90571" lon="2.08424">
        <ele>127</ele>
        <time>2016-05-05T15:02:02.000Z</time>
      </trkpt>
      <trkpt lat="48.90571" lon="2.08424">
        <ele>127</ele>
        <time>2016-05-05T15:02:17.000Z</time>
      </trkpt>
    </trkseg>
  </trk>
</gpx>